<?xml version="1.0" encoding="UTF-8" standalone="no" ?>
<gpx xmlns="http://www.topografix.com/GPX/1/1" xmlns:xsi="http://www.w3.org/2001/XMLSchema-instance" xsi:schemaLocation="http://www.topografix.com/GPX/1/1 http://www.topografix.com/GPX/1/1/gpx.xsd" version="1.1" creator="VisuGPX - https://www.visugpx.com">
  <metadata>
    <name>L'agenaise</name>
    <desc><![CDATA[L'aventure entière]]></desc>
  </metadata>
  <trk>
    <name><![CDATA[L'Agenaise]]></name>
    <trkseg>
      <trkpt lat="44.20801" lon="0.62069">
        <ele>52.3</ele>
        <time>2016-05-15T07:39:41Z</time>
      </trkpt>
      <trkpt lat="44.20799" lon="0.62066">
        <ele>52.3</ele>
        <time>2016-05-15T07:40:08Z</time>
      </trkpt>
      <trkpt lat="44.20798" lon="0.62083">
        <ele>52.7</ele>
        <time>2016-05-15T07:40:31Z</time>
      </trkpt>
      <trkpt lat="44.20791" lon="0.62152">
        <ele>53.4</ele>
        <time>2016-05-15T07:40:46Z</time>
      </trkpt>
      <trkpt lat="44.20783" lon="0.62187">
        <ele>52.7</ele>
        <time>2016-05-15T07:40:54Z</time>
      </trkpt>
      <trkpt lat="44.20777" lon="0.62233">
        <ele>51.8</ele>
        <time>2016-05-15T07:41:02Z</time>
      </trkpt>
      <trkpt lat="44.20691" lon="0.62369">
        <ele>51.3</ele>
        <time>2016-05-15T07:41:38Z</time>
      </trkpt>
      <trkpt lat="44.20603" lon="0.62505">
        <ele>53.1</ele>
        <time>2016-05-15T07:42:09Z</time>
      </trkpt>
      <trkpt lat="44.2058" lon="0.62538">
        <ele>53.5</ele>
        <time>2016-05-15T07:42:26Z</time>
      </trkpt>
      <trkpt lat="44.20571" lon="0.62599">
        <ele>53</ele>
        <time>2016-05-15T07:42:59Z</time>
      </trkpt>
      <trkpt lat="44.20569" lon="0.62608">
        <ele>52.9</ele>
        <time>2016-05-15T07:43:08Z</time>
      </trkpt>
      <trkpt lat="44.20598" lon="0.62625">
        <ele>52.3</ele>
        <time>2016-05-15T07:43:17Z</time>
      </trkpt>
      <trkpt lat="44.20836" lon="0.62797">
        <ele>50.1</ele>
        <time>2016-05-15T07:44:18Z</time>
      </trkpt>
      <trkpt lat="44.20843" lon="0.62934">
        <ele>51.7</ele>
        <time>2016-05-15T07:44:42Z</time>
      </trkpt>
      <trkpt lat="44.20832" lon="0.62984">
        <ele>51.3</ele>
        <time>2016-05-15T07:44:51Z</time>
      </trkpt>
      <trkpt lat="44.20829" lon="0.62996">
        <ele>51.2</ele>
        <time>2016-05-15T07:44:53Z</time>
      </trkpt>
      <trkpt lat="44.20726" lon="0.63466">
        <ele>50.7</ele>
        <time>2016-05-15T07:46:05Z</time>
      </trkpt>
      <trkpt lat="44.2072" lon="0.63521">
        <ele>51.5</ele>
        <time>2016-05-15T07:46:13Z</time>
      </trkpt>
      <trkpt lat="44.20712" lon="0.63575">
        <ele>51.1</ele>
        <time>2016-05-15T07:46:21Z</time>
      </trkpt>
      <trkpt lat="44.20691" lon="0.6365">
        <ele>50.7</ele>
        <time>2016-05-15T07:46:42Z</time>
      </trkpt>
      <trkpt lat="44.2067" lon="0.63693">
        <ele>51.7</ele>
        <time>2016-05-15T07:47:12Z</time>
      </trkpt>
      <trkpt lat="44.2067" lon="0.63688">
        <ele>51.6</ele>
        <time>2016-05-15T07:47:14Z</time>
      </trkpt>
      <trkpt lat="44.20671" lon="0.63669">
        <ele>51.3</ele>
        <time>2016-05-15T07:47:19Z</time>
      </trkpt>
      <trkpt lat="44.20749" lon="0.63664">
        <ele>50.5</ele>
        <time>2016-05-15T07:47:43Z</time>
      </trkpt>
      <trkpt lat="44.20762" lon="0.63665">
        <ele>50.3</ele>
        <time>2016-05-15T07:47:46Z</time>
      </trkpt>
      <trkpt lat="44.20792" lon="0.63842">
        <ele>51.6</ele>
        <time>2016-05-15T07:48:12Z</time>
      </trkpt>
      <trkpt lat="44.20799" lon="0.63873">
        <ele>52.1</ele>
        <time>2016-05-15T07:48:17Z</time>
      </trkpt>
      <trkpt lat="44.20911" lon="0.63899">
        <ele>55.6</ele>
        <time>2016-05-15T07:48:46Z</time>
      </trkpt>
      <trkpt lat="44.2094" lon="0.63891">
        <ele>56.6</ele>
        <time>2016-05-15T07:48:55Z</time>
      </trkpt>
      <trkpt lat="44.20954" lon="0.63885">
        <ele>57.1</ele>
        <time>2016-05-15T07:50:12Z</time>
      </trkpt>
      <trkpt lat="44.20966" lon="0.63871">
        <ele>56.7</ele>
        <time>2016-05-15T07:51:35Z</time>
      </trkpt>
      <trkpt lat="44.20971" lon="0.63867">
        <ele>56.4</ele>
        <time>2016-05-15T07:51:59Z</time>
      </trkpt>
      <trkpt lat="44.21007" lon="0.63868">
        <ele>55.7</ele>
        <time>2016-05-15T07:52:55Z</time>
      </trkpt>
      <trkpt lat="44.21018" lon="0.63859">
        <ele>55.3</ele>
        <time>2016-05-15T07:53:07Z</time>
      </trkpt>
      <trkpt lat="44.21023" lon="0.6395">
        <ele>56.5</ele>
        <time>2016-05-15T07:53:34Z</time>
      </trkpt>
      <trkpt lat="44.21018" lon="0.64164">
        <ele>53.7</ele>
        <time>2016-05-15T07:54:07Z</time>
      </trkpt>
      <trkpt lat="44.21087" lon="0.64275">
        <ele>56.8</ele>
        <time>2016-05-15T07:54:32Z</time>
      </trkpt>
      <trkpt lat="44.21121" lon="0.64319">
        <ele>56.9</ele>
        <time>2016-05-15T07:54:43Z</time>
      </trkpt>
      <trkpt lat="44.21341" lon="0.64561">
        <ele>59.8</ele>
        <time>2016-05-15T07:55:36Z</time>
      </trkpt>
      <trkpt lat="44.2146" lon="0.64605">
        <ele>60.9</ele>
        <time>2016-05-15T07:56:02Z</time>
      </trkpt>
      <trkpt lat="44.21502" lon="0.64618">
        <ele>60</ele>
        <time>2016-05-15T07:56:12Z</time>
      </trkpt>
      <trkpt lat="44.2152" lon="0.64634">
        <ele>59.6</ele>
        <time>2016-05-15T07:56:17Z</time>
      </trkpt>
      <trkpt lat="44.2163" lon="0.64732">
        <ele>63.2</ele>
        <time>2016-05-15T07:56:46Z</time>
      </trkpt>
      <trkpt lat="44.2167" lon="0.64761">
        <ele>64.3</ele>
        <time>2016-05-15T07:56:55Z</time>
      </trkpt>
      <trkpt lat="44.21714" lon="0.64781">
        <ele>64.2</ele>
        <time>2016-05-15T07:57:03Z</time>
      </trkpt>
      <trkpt lat="44.21758" lon="0.64799">
        <ele>64.6</ele>
        <time>2016-05-15T07:57:11Z</time>
      </trkpt>
      <trkpt lat="44.21849" lon="0.64875">
        <ele>60</ele>
        <time>2016-05-15T07:57:31Z</time>
      </trkpt>
      <trkpt lat="44.219" lon="0.64932">
        <ele>58.3</ele>
        <time>2016-05-15T07:57:44Z</time>
      </trkpt>
      <trkpt lat="44.21949" lon="0.6501">
        <ele>56.7</ele>
        <time>2016-05-15T07:57:59Z</time>
      </trkpt>
      <trkpt lat="44.21955" lon="0.65022">
        <ele>56.4</ele>
        <time>2016-05-15T07:58:01Z</time>
      </trkpt>
      <trkpt lat="44.22144" lon="0.65365">
        <ele>57.1</ele>
        <time>2016-05-15T07:59:00Z</time>
      </trkpt>
      <trkpt lat="44.222" lon="0.65416">
        <ele>58.2</ele>
        <time>2016-05-15T07:59:14Z</time>
      </trkpt>
      <trkpt lat="44.22204" lon="0.65419">
        <ele>58.3</ele>
        <time>2016-05-15T07:59:15Z</time>
      </trkpt>
      <trkpt lat="44.22362" lon="0.65836">
        <ele>59.1</ele>
        <time>2016-05-15T08:00:23Z</time>
      </trkpt>
      <trkpt lat="44.22384" lon="0.6588">
        <ele>59.9</ele>
        <time>2016-05-15T08:00:31Z</time>
      </trkpt>
      <trkpt lat="44.22413" lon="0.65926">
        <ele>61.5</ele>
        <time>2016-05-15T08:00:40Z</time>
      </trkpt>
      <trkpt lat="44.22558" lon="0.66178">
        <ele>61.7</ele>
        <time>2016-05-15T08:01:25Z</time>
      </trkpt>
      <trkpt lat="44.22581" lon="0.6624">
        <ele>61.2</ele>
        <time>2016-05-15T08:01:33Z</time>
      </trkpt>
      <trkpt lat="44.22602" lon="0.6632">
        <ele>61.4</ele>
        <time>2016-05-15T08:01:44Z</time>
      </trkpt>
      <trkpt lat="44.22655" lon="0.66407">
        <ele>63.4</ele>
        <time>2016-05-15T08:02:01Z</time>
      </trkpt>
      <trkpt lat="44.22712" lon="0.66477">
        <ele>66.4</ele>
        <time>2016-05-15T08:02:19Z</time>
      </trkpt>
      <trkpt lat="44.22755" lon="0.6653">
        <ele>69.8</ele>
        <time>2016-05-15T08:02:34Z</time>
      </trkpt>
      <trkpt lat="44.22761" lon="0.66537">
        <ele>70</ele>
        <time>2016-05-15T08:02:36Z</time>
      </trkpt>
      <trkpt lat="44.22831" lon="0.66599">
        <ele>71.1</ele>
        <time>2016-05-15T08:02:56Z</time>
      </trkpt>
      <trkpt lat="44.22868" lon="0.66635">
        <ele>71.3</ele>
        <time>2016-05-15T08:03:10Z</time>
      </trkpt>
      <trkpt lat="44.22884" lon="0.66689">
        <ele>71.1</ele>
        <time>2016-05-15T08:03:21Z</time>
      </trkpt>
      <trkpt lat="44.22921" lon="0.66834">
        <ele>71.5</ele>
        <time>2016-05-15T08:03:45Z</time>
      </trkpt>
      <trkpt lat="44.22996" lon="0.66977">
        <ele>73</ele>
        <time>2016-05-15T08:04:11Z</time>
      </trkpt>
      <trkpt lat="44.23031" lon="0.67047">
        <ele>70.9</ele>
        <time>2016-05-15T08:04:23Z</time>
      </trkpt>
      <trkpt lat="44.23053" lon="0.67096">
        <ele>70.7</ele>
        <time>2016-05-15T08:04:32Z</time>
      </trkpt>
      <trkpt lat="44.23088" lon="0.67161">
        <ele>72.4</ele>
        <time>2016-05-15T08:04:43Z</time>
      </trkpt>
      <trkpt lat="44.23172" lon="0.67351">
        <ele>70.5</ele>
        <time>2016-05-15T08:05:11Z</time>
      </trkpt>
      <trkpt lat="44.23211" lon="0.67413">
        <ele>71.3</ele>
        <time>2016-05-15T08:05:21Z</time>
      </trkpt>
      <trkpt lat="44.23214" lon="0.67419">
        <ele>71.5</ele>
        <time>2016-05-15T08:05:22Z</time>
      </trkpt>
      <trkpt lat="44.2323" lon="0.67455">
        <ele>71.9</ele>
        <time>2016-05-15T08:05:27Z</time>
      </trkpt>
      <trkpt lat="44.23343" lon="0.67582">
        <ele>69.7</ele>
        <time>2016-05-15T08:05:50Z</time>
      </trkpt>
      <trkpt lat="44.23369" lon="0.67622">
        <ele>68.9</ele>
        <time>2016-05-15T08:05:57Z</time>
      </trkpt>
      <trkpt lat="44.23395" lon="0.67646">
        <ele>68.9</ele>
        <time>2016-05-15T08:06:03Z</time>
      </trkpt>
      <trkpt lat="44.23427" lon="0.6766">
        <ele>68.9</ele>
        <time>2016-05-15T08:06:11Z</time>
      </trkpt>
      <trkpt lat="44.2346" lon="0.67694">
        <ele>68.4</ele>
        <time>2016-05-15T08:06:24Z</time>
      </trkpt>
      <trkpt lat="44.23491" lon="0.677">
        <ele>68.9</ele>
        <time>2016-05-15T08:06:33Z</time>
      </trkpt>
      <trkpt lat="44.236" lon="0.67699">
        <ele>70.2</ele>
        <time>2016-05-15T08:06:59Z</time>
      </trkpt>
      <trkpt lat="44.23762" lon="0.67701">
        <ele>71</ele>
        <time>2016-05-15T08:07:30Z</time>
      </trkpt>
      <trkpt lat="44.23782" lon="0.67695">
        <ele>71.6</ele>
        <time>2016-05-15T08:07:34Z</time>
      </trkpt>
      <trkpt lat="44.23841" lon="0.67672">
        <ele>74.6</ele>
        <time>2016-05-15T08:07:47Z</time>
      </trkpt>
      <trkpt lat="44.23858" lon="0.67667">
        <ele>75.5</ele>
        <time>2016-05-15T08:07:51Z</time>
      </trkpt>
      <trkpt lat="44.23885" lon="0.67666">
        <ele>76.4</ele>
        <time>2016-05-15T08:07:58Z</time>
      </trkpt>
      <trkpt lat="44.23907" lon="0.67673">
        <ele>76.6</ele>
        <time>2016-05-15T08:08:05Z</time>
      </trkpt>
      <trkpt lat="44.23933" lon="0.67684">
        <ele>76.5</ele>
        <time>2016-05-15T08:08:11Z</time>
      </trkpt>
      <trkpt lat="44.24028" lon="0.67741">
        <ele>74.5</ele>
        <time>2016-05-15T08:08:30Z</time>
      </trkpt>
      <trkpt lat="44.24218" lon="0.67847">
        <ele>74</ele>
        <time>2016-05-15T08:09:06Z</time>
      </trkpt>
      <trkpt lat="44.24231" lon="0.67854">
        <ele>74.3</ele>
        <time>2016-05-15T08:09:09Z</time>
      </trkpt>
      <trkpt lat="44.24241" lon="0.67858">
        <ele>74.6</ele>
        <time>2016-05-15T08:09:11Z</time>
      </trkpt>
      <trkpt lat="44.24271" lon="0.67865">
        <ele>75.8</ele>
        <time>2016-05-15T08:09:18Z</time>
      </trkpt>
      <trkpt lat="44.24294" lon="0.67862">
        <ele>77.2</ele>
        <time>2016-05-15T08:09:23Z</time>
      </trkpt>
      <trkpt lat="44.24322" lon="0.67856">
        <ele>78.6</ele>
        <time>2016-05-15T08:09:28Z</time>
      </trkpt>
      <trkpt lat="44.24327" lon="0.67856">
        <ele>78.8</ele>
        <time>2016-05-15T08:09:29Z</time>
      </trkpt>
      <trkpt lat="44.24351" lon="0.67862">
        <ele>79.1</ele>
        <time>2016-05-15T08:09:33Z</time>
      </trkpt>
      <trkpt lat="44.24579" lon="0.67952">
        <ele>83.9</ele>
        <time>2016-05-15T08:10:21Z</time>
      </trkpt>
      <trkpt lat="44.24618" lon="0.67962">
        <ele>86.9</ele>
        <time>2016-05-15T08:10:29Z</time>
      </trkpt>
      <trkpt lat="44.24744" lon="0.68048">
        <ele>83.7</ele>
        <time>2016-05-15T08:11:01Z</time>
      </trkpt>
      <trkpt lat="44.24818" lon="0.68117">
        <ele>81.7</ele>
        <time>2016-05-15T08:11:15Z</time>
      </trkpt>
      <trkpt lat="44.2485" lon="0.68158">
        <ele>80</ele>
        <time>2016-05-15T08:11:22Z</time>
      </trkpt>
      <trkpt lat="44.24857" lon="0.68167">
        <ele>80</ele>
        <time>2016-05-15T08:11:24Z</time>
      </trkpt>
      <trkpt lat="44.24879" lon="0.68195">
        <ele>80.7</ele>
        <time>2016-05-15T08:11:31Z</time>
      </trkpt>
      <trkpt lat="44.2489" lon="0.68212">
        <ele>82.1</ele>
        <time>2016-05-15T08:11:35Z</time>
      </trkpt>
      <trkpt lat="44.24935" lon="0.68284">
        <ele>87.7</ele>
        <time>2016-05-15T08:11:55Z</time>
      </trkpt>
      <trkpt lat="44.24977" lon="0.68337">
        <ele>89.2</ele>
        <time>2016-05-15T08:12:09Z</time>
      </trkpt>
      <trkpt lat="44.25015" lon="0.68415">
        <ele>86</ele>
        <time>2016-05-15T08:12:22Z</time>
      </trkpt>
      <trkpt lat="44.25029" lon="0.68465">
        <ele>82.5</ele>
        <time>2016-05-15T08:12:28Z</time>
      </trkpt>
      <trkpt lat="44.25047" lon="0.68553">
        <ele>81.4</ele>
        <time>2016-05-15T08:12:39Z</time>
      </trkpt>
      <trkpt lat="44.2505" lon="0.68562">
        <ele>81.5</ele>
        <time>2016-05-15T08:12:40Z</time>
      </trkpt>
      <trkpt lat="44.25097" lon="0.68673">
        <ele>81.6</ele>
        <time>2016-05-15T08:12:50Z</time>
      </trkpt>
      <trkpt lat="44.25178" lon="0.68843">
        <ele>81.5</ele>
        <time>2016-05-15T08:13:18Z</time>
      </trkpt>
      <trkpt lat="44.25208" lon="0.68902">
        <ele>81.3</ele>
        <time>2016-05-15T08:13:29Z</time>
      </trkpt>
      <trkpt lat="44.25255" lon="0.68954">
        <ele>84</ele>
        <time>2016-05-15T08:13:41Z</time>
      </trkpt>
      <trkpt lat="44.25262" lon="0.68964">
        <ele>84.3</ele>
        <time>2016-05-15T08:13:43Z</time>
      </trkpt>
      <trkpt lat="44.2528" lon="0.68999">
        <ele>84.5</ele>
        <time>2016-05-15T08:13:49Z</time>
      </trkpt>
      <trkpt lat="44.25329" lon="0.69121">
        <ele>83.4</ele>
        <time>2016-05-15T08:14:09Z</time>
      </trkpt>
      <trkpt lat="44.25351" lon="0.69161">
        <ele>83.6</ele>
        <time>2016-05-15T08:14:16Z</time>
      </trkpt>
      <trkpt lat="44.25376" lon="0.692">
        <ele>84.3</ele>
        <time>2016-05-15T08:14:26Z</time>
      </trkpt>
      <trkpt lat="44.25353" lon="0.69256">
        <ele>81.3</ele>
        <time>2016-05-15T08:14:39Z</time>
      </trkpt>
      <trkpt lat="44.25355" lon="0.69273">
        <ele>81</ele>
        <time>2016-05-15T08:14:41Z</time>
      </trkpt>
      <trkpt lat="44.25367" lon="0.69291">
        <ele>81.4</ele>
        <time>2016-05-15T08:14:44Z</time>
      </trkpt>
      <trkpt lat="44.25373" lon="0.69294">
        <ele>81.8</ele>
        <time>2016-05-15T08:14:45Z</time>
      </trkpt>
      <trkpt lat="44.25432" lon="0.69345">
        <ele>83</ele>
        <time>2016-05-15T08:14:54Z</time>
      </trkpt>
      <trkpt lat="44.25666" lon="0.69641">
        <ele>84.5</ele>
        <time>2016-05-15T08:15:43Z</time>
      </trkpt>
      <trkpt lat="44.25695" lon="0.69671">
        <ele>84.4</ele>
        <time>2016-05-15T08:15:49Z</time>
      </trkpt>
      <trkpt lat="44.25865" lon="0.69842">
        <ele>85.2</ele>
        <time>2016-05-15T08:16:25Z</time>
      </trkpt>
      <trkpt lat="44.25933" lon="0.69919">
        <ele>87</ele>
        <time>2016-05-15T08:16:42Z</time>
      </trkpt>
      <trkpt lat="44.25959" lon="0.69957">
        <ele>84.2</ele>
        <time>2016-05-15T08:16:48Z</time>
      </trkpt>
      <trkpt lat="44.25985" lon="0.69987">
        <ele>85.8</ele>
        <time>2016-05-15T08:16:54Z</time>
      </trkpt>
      <trkpt lat="44.26009" lon="0.70009">
        <ele>86.8</ele>
        <time>2016-05-15T08:17:00Z</time>
      </trkpt>
      <trkpt lat="44.26042" lon="0.70027">
        <ele>88.1</ele>
        <time>2016-05-15T08:17:07Z</time>
      </trkpt>
      <trkpt lat="44.26051" lon="0.70034">
        <ele>88.3</ele>
        <time>2016-05-15T08:17:09Z</time>
      </trkpt>
      <trkpt lat="44.26081" lon="0.7007">
        <ele>89.3</ele>
        <time>2016-05-15T08:17:17Z</time>
      </trkpt>
      <trkpt lat="44.26099" lon="0.701">
        <ele>89.7</ele>
        <time>2016-05-15T08:17:24Z</time>
      </trkpt>
      <trkpt lat="44.2611" lon="0.70109">
        <ele>90.3</ele>
        <time>2016-05-15T08:17:27Z</time>
      </trkpt>
      <trkpt lat="44.26144" lon="0.70137">
        <ele>93.3</ele>
        <time>2016-05-15T08:17:38Z</time>
      </trkpt>
      <trkpt lat="44.26164" lon="0.70157">
        <ele>95</ele>
        <time>2016-05-15T08:17:45Z</time>
      </trkpt>
      <trkpt lat="44.26211" lon="0.70216">
        <ele>95.8</ele>
        <time>2016-05-15T08:18:01Z</time>
      </trkpt>
      <trkpt lat="44.26245" lon="0.70201">
        <ele>98.3</ele>
        <time>2016-05-15T08:18:15Z</time>
      </trkpt>
      <trkpt lat="44.26255" lon="0.7022">
        <ele>97.8</ele>
        <time>2016-05-15T08:25:50Z</time>
      </trkpt>
      <trkpt lat="44.26338" lon="0.70339">
        <ele>100.8</ele>
        <time>2016-05-15T08:26:27Z</time>
      </trkpt>
      <trkpt lat="44.26369" lon="0.70349">
        <ele>102.5</ele>
        <time>2016-05-15T08:26:37Z</time>
      </trkpt>
      <trkpt lat="44.26405" lon="0.70353">
        <ele>102.7</ele>
        <time>2016-05-15T08:26:47Z</time>
      </trkpt>
      <trkpt lat="44.26437" lon="0.70363">
        <ele>101.9</ele>
        <time>2016-05-15T08:26:54Z</time>
      </trkpt>
      <trkpt lat="44.26466" lon="0.70375">
        <ele>101.2</ele>
        <time>2016-05-15T08:27:00Z</time>
      </trkpt>
      <trkpt lat="44.26493" lon="0.70393">
        <ele>100.5</ele>
        <time>2016-05-15T08:27:05Z</time>
      </trkpt>
      <trkpt lat="44.26567" lon="0.70444">
        <ele>97.4</ele>
        <time>2016-05-15T08:27:18Z</time>
      </trkpt>
      <trkpt lat="44.26599" lon="0.70467">
        <ele>96.5</ele>
        <time>2016-05-15T08:27:24Z</time>
      </trkpt>
      <trkpt lat="44.2661" lon="0.70528">
        <ele>93.3</ele>
        <time>2016-05-15T08:27:31Z</time>
      </trkpt>
      <trkpt lat="44.26598" lon="0.70592">
        <ele>90.6</ele>
        <time>2016-05-15T08:27:37Z</time>
      </trkpt>
      <trkpt lat="44.26595" lon="0.70643">
        <ele>89.3</ele>
        <time>2016-05-15T08:27:42Z</time>
      </trkpt>
      <trkpt lat="44.26584" lon="0.70665">
        <ele>88.8</ele>
        <time>2016-05-15T08:27:45Z</time>
      </trkpt>
      <trkpt lat="44.2658" lon="0.70672">
        <ele>88.6</ele>
        <time>2016-05-15T08:27:46Z</time>
      </trkpt>
      <trkpt lat="44.26573" lon="0.70696">
        <ele>88.2</ele>
        <time>2016-05-15T08:27:49Z</time>
      </trkpt>
      <trkpt lat="44.26566" lon="0.70745">
        <ele>88.1</ele>
        <time>2016-05-15T08:27:55Z</time>
      </trkpt>
      <trkpt lat="44.26562" lon="0.70811">
        <ele>88.8</ele>
        <time>2016-05-15T08:28:06Z</time>
      </trkpt>
      <trkpt lat="44.26556" lon="0.70845">
        <ele>89.7</ele>
        <time>2016-05-15T08:28:20Z</time>
      </trkpt>
      <trkpt lat="44.26558" lon="0.70847">
        <ele>89.8</ele>
        <time>2016-05-15T08:29:03Z</time>
      </trkpt>
      <trkpt lat="44.26568" lon="0.70818">
        <ele>89.1</ele>
        <time>2016-05-15T08:29:15Z</time>
      </trkpt>
      <trkpt lat="44.26579" lon="0.70705">
        <ele>88.1</ele>
        <time>2016-05-15T08:29:31Z</time>
      </trkpt>
      <trkpt lat="44.26601" lon="0.70609">
        <ele>90.2</ele>
        <time>2016-05-15T08:29:48Z</time>
      </trkpt>
      <trkpt lat="44.266" lon="0.70596">
        <ele>90.5</ele>
        <time>2016-05-15T08:29:50Z</time>
      </trkpt>
      <trkpt lat="44.26616" lon="0.70522">
        <ele>93.9</ele>
        <time>2016-05-15T08:30:05Z</time>
      </trkpt>
      <trkpt lat="44.26618" lon="0.70519">
        <ele>94.2</ele>
        <time>2016-05-15T08:30:08Z</time>
      </trkpt>
      <trkpt lat="44.26647" lon="0.70541">
        <ele>93.6</ele>
        <time>2016-05-15T08:30:22Z</time>
      </trkpt>
      <trkpt lat="44.26772" lon="0.70579">
        <ele>96.9</ele>
        <time>2016-05-15T08:31:01Z</time>
      </trkpt>
      <trkpt lat="44.26776" lon="0.70579">
        <ele>97</ele>
        <time>2016-05-15T08:31:02Z</time>
      </trkpt>
      <trkpt lat="44.26815" lon="0.70591">
        <ele>98.4</ele>
        <time>2016-05-15T08:31:12Z</time>
      </trkpt>
      <trkpt lat="44.26839" lon="0.70602">
        <ele>98.7</ele>
        <time>2016-05-15T08:31:19Z</time>
      </trkpt>
      <trkpt lat="44.26855" lon="0.70609">
        <ele>99</ele>
        <time>2016-05-15T08:31:23Z</time>
      </trkpt>
      <trkpt lat="44.27071" lon="0.70716">
        <ele>100.4</ele>
        <time>2016-05-15T08:32:17Z</time>
      </trkpt>
      <trkpt lat="44.27117" lon="0.70755">
        <ele>97.6</ele>
        <time>2016-05-15T08:32:25Z</time>
      </trkpt>
      <trkpt lat="44.27149" lon="0.70785">
        <ele>94.9</ele>
        <time>2016-05-15T08:32:30Z</time>
      </trkpt>
      <trkpt lat="44.27347" lon="0.70943">
        <ele>92.1</ele>
        <time>2016-05-15T08:33:08Z</time>
      </trkpt>
      <trkpt lat="44.27387" lon="0.70975">
        <ele>92.1</ele>
        <time>2016-05-15T08:33:16Z</time>
      </trkpt>
      <trkpt lat="44.27425" lon="0.70998">
        <ele>92.9</ele>
        <time>2016-05-15T08:33:24Z</time>
      </trkpt>
      <trkpt lat="44.27462" lon="0.71016">
        <ele>93.4</ele>
        <time>2016-05-15T08:33:32Z</time>
      </trkpt>
      <trkpt lat="44.27518" lon="0.71014">
        <ele>97.2</ele>
        <time>2016-05-15T08:33:43Z</time>
      </trkpt>
      <trkpt lat="44.27555" lon="0.71002">
        <ele>99.8</ele>
        <time>2016-05-15T08:33:50Z</time>
      </trkpt>
      <trkpt lat="44.27583" lon="0.7098">
        <ele>101.1</ele>
        <time>2016-05-15T08:33:57Z</time>
      </trkpt>
      <trkpt lat="44.27614" lon="0.70996">
        <ele>99.7</ele>
        <time>2016-05-15T08:34:04Z</time>
      </trkpt>
      <trkpt lat="44.27618" lon="0.71001">
        <ele>99.5</ele>
        <time>2016-05-15T08:34:05Z</time>
      </trkpt>
      <trkpt lat="44.2765" lon="0.7104">
        <ele>98.3</ele>
        <time>2016-05-15T08:34:13Z</time>
      </trkpt>
      <trkpt lat="44.27693" lon="0.71093">
        <ele>100.2</ele>
        <time>2016-05-15T08:34:30Z</time>
      </trkpt>
      <trkpt lat="44.27736" lon="0.71062">
        <ele>101.5</ele>
        <time>2016-05-15T08:34:45Z</time>
      </trkpt>
      <trkpt lat="44.27821" lon="0.7094">
        <ele>104.9</ele>
        <time>2016-05-15T08:35:16Z</time>
      </trkpt>
      <trkpt lat="44.27858" lon="0.70886">
        <ele>108</ele>
        <time>2016-05-15T08:35:31Z</time>
      </trkpt>
      <trkpt lat="44.2786" lon="0.70882">
        <ele>108.1</ele>
        <time>2016-05-15T08:35:32Z</time>
      </trkpt>
      <trkpt lat="44.27896" lon="0.70837">
        <ele>111.3</ele>
        <time>2016-05-15T08:35:47Z</time>
      </trkpt>
      <trkpt lat="44.28083" lon="0.70641">
        <ele>113.5</ele>
        <time>2016-05-15T08:36:59Z</time>
      </trkpt>
      <trkpt lat="44.28105" lon="0.70624">
        <ele>112.3</ele>
        <time>2016-05-15T08:37:05Z</time>
      </trkpt>
      <trkpt lat="44.28213" lon="0.70521">
        <ele>112.2</ele>
        <time>2016-05-15T08:37:37Z</time>
      </trkpt>
      <trkpt lat="44.28259" lon="0.70473">
        <ele>116</ele>
        <time>2016-05-15T08:37:53Z</time>
      </trkpt>
      <trkpt lat="44.28266" lon="0.70461">
        <ele>115.7</ele>
        <time>2016-05-15T08:37:56Z</time>
      </trkpt>
      <trkpt lat="44.28298" lon="0.70385">
        <ele>115.4</ele>
        <time>2016-05-15T08:38:14Z</time>
      </trkpt>
      <trkpt lat="44.28331" lon="0.70328">
        <ele>116.8</ele>
        <time>2016-05-15T08:38:24Z</time>
      </trkpt>
      <trkpt lat="44.28379" lon="0.70262">
        <ele>123.9</ele>
        <time>2016-05-15T08:38:33Z</time>
      </trkpt>
      <trkpt lat="44.28395" lon="0.70241">
        <ele>129.3</ele>
        <time>2016-05-15T08:38:36Z</time>
      </trkpt>
      <trkpt lat="44.28416" lon="0.70218">
        <ele>134.2</ele>
        <time>2016-05-15T08:38:40Z</time>
      </trkpt>
      <trkpt lat="44.28439" lon="0.70206">
        <ele>136.3</ele>
        <time>2016-05-15T08:38:45Z</time>
      </trkpt>
      <trkpt lat="44.28467" lon="0.70191">
        <ele>139</ele>
        <time>2016-05-15T08:38:54Z</time>
      </trkpt>
      <trkpt lat="44.28483" lon="0.70181">
        <ele>140.2</ele>
        <time>2016-05-15T08:39:00Z</time>
      </trkpt>
      <trkpt lat="44.28527" lon="0.70146">
        <ele>144.1</ele>
        <time>2016-05-15T08:39:17Z</time>
      </trkpt>
      <trkpt lat="44.28534" lon="0.70129">
        <ele>147.2</ele>
        <time>2016-05-15T08:39:22Z</time>
      </trkpt>
      <trkpt lat="44.2854" lon="0.70101">
        <ele>151.3</ele>
        <time>2016-05-15T08:39:29Z</time>
      </trkpt>
      <trkpt lat="44.28546" lon="0.70064">
        <ele>156.5</ele>
        <time>2016-05-15T08:39:39Z</time>
      </trkpt>
      <trkpt lat="44.28557" lon="0.7002">
        <ele>159.2</ele>
        <time>2016-05-15T08:39:50Z</time>
      </trkpt>
      <trkpt lat="44.28611" lon="0.6989">
        <ele>162.2</ele>
        <time>2016-05-15T08:40:27Z</time>
      </trkpt>
      <trkpt lat="44.28629" lon="0.69859">
        <ele>163.6</ele>
        <time>2016-05-15T08:40:37Z</time>
      </trkpt>
      <trkpt lat="44.2865" lon="0.69797">
        <ele>163.8</ele>
        <time>2016-05-15T08:40:55Z</time>
      </trkpt>
      <trkpt lat="44.28667" lon="0.69778">
        <ele>163.3</ele>
        <time>2016-05-15T08:41:03Z</time>
      </trkpt>
      <trkpt lat="44.28687" lon="0.69782">
        <ele>159.4</ele>
        <time>2016-05-15T08:41:10Z</time>
      </trkpt>
      <trkpt lat="44.2869" lon="0.69812">
        <ele>157.5</ele>
        <time>2016-05-15T08:41:16Z</time>
      </trkpt>
      <trkpt lat="44.28672" lon="0.69843">
        <ele>159.3</ele>
        <time>2016-05-15T08:41:23Z</time>
      </trkpt>
      <trkpt lat="44.28667" lon="0.69858">
        <ele>159.4</ele>
        <time>2016-05-15T08:41:26Z</time>
      </trkpt>
      <trkpt lat="44.28667" lon="0.69905">
        <ele>157.3</ele>
        <time>2016-05-15T08:41:42Z</time>
      </trkpt>
      <trkpt lat="44.28669" lon="0.69971">
        <ele>153.7</ele>
        <time>2016-05-15T08:42:03Z</time>
      </trkpt>
      <trkpt lat="44.28671" lon="0.69984">
        <ele>152.9</ele>
        <time>2016-05-15T08:42:07Z</time>
      </trkpt>
      <trkpt lat="44.28675" lon="0.69991">
        <ele>152.6</ele>
        <time>2016-05-15T08:42:10Z</time>
      </trkpt>
      <trkpt lat="44.2872" lon="0.70003">
        <ele>155.4</ele>
        <time>2016-05-15T08:42:37Z</time>
      </trkpt>
      <trkpt lat="44.28741" lon="0.69985">
        <ele>159.3</ele>
        <time>2016-05-15T08:44:33Z</time>
      </trkpt>
      <trkpt lat="44.28763" lon="0.69965">
        <ele>164.8</ele>
        <time>2016-05-15T08:44:42Z</time>
      </trkpt>
      <trkpt lat="44.28777" lon="0.69951">
        <ele>168.1</ele>
        <time>2016-05-15T08:44:48Z</time>
      </trkpt>
      <trkpt lat="44.28801" lon="0.69934">
        <ele>171.3</ele>
        <time>2016-05-15T08:44:57Z</time>
      </trkpt>
      <trkpt lat="44.28829" lon="0.69924">
        <ele>174.3</ele>
        <time>2016-05-15T08:45:07Z</time>
      </trkpt>
      <trkpt lat="44.28855" lon="0.69918">
        <ele>177.5</ele>
        <time>2016-05-15T08:45:16Z</time>
      </trkpt>
      <trkpt lat="44.28877" lon="0.69898">
        <ele>181.8</ele>
        <time>2016-05-15T08:45:28Z</time>
      </trkpt>
      <trkpt lat="44.28878" lon="0.69896">
        <ele>182</ele>
        <time>2016-05-15T08:45:29Z</time>
      </trkpt>
      <trkpt lat="44.28888" lon="0.69881">
        <ele>183.5</ele>
        <time>2016-05-15T08:45:35Z</time>
      </trkpt>
      <trkpt lat="44.2893" lon="0.69823">
        <ele>186.7</ele>
        <time>2016-05-15T08:45:59Z</time>
      </trkpt>
      <trkpt lat="44.28942" lon="0.69812">
        <ele>187.8</ele>
        <time>2016-05-15T08:46:05Z</time>
      </trkpt>
      <trkpt lat="44.29018" lon="0.6982">
        <ele>187.6</ele>
        <time>2016-05-15T08:46:41Z</time>
      </trkpt>
      <trkpt lat="44.29065" lon="0.69805">
        <ele>189.6</ele>
        <time>2016-05-15T08:46:59Z</time>
      </trkpt>
      <trkpt lat="44.29074" lon="0.69796">
        <ele>190.5</ele>
        <time>2016-05-15T08:47:05Z</time>
      </trkpt>
      <trkpt lat="44.29102" lon="0.69789">
        <ele>191.5</ele>
        <time>2016-05-15T08:50:20Z</time>
      </trkpt>
      <trkpt lat="44.29172" lon="0.69801">
        <ele>193.6</ele>
        <time>2016-05-15T08:50:37Z</time>
      </trkpt>
      <trkpt lat="44.29187" lon="0.698">
        <ele>194.1</ele>
        <time>2016-05-15T08:50:41Z</time>
      </trkpt>
      <trkpt lat="44.29217" lon="0.69709">
        <ele>192</ele>
        <time>2016-05-15T08:50:53Z</time>
      </trkpt>
      <trkpt lat="44.29217" lon="0.69616">
        <ele>190.2</ele>
        <time>2016-05-15T08:51:03Z</time>
      </trkpt>
      <trkpt lat="44.29218" lon="0.69558">
        <ele>190.2</ele>
        <time>2016-05-15T08:51:11Z</time>
      </trkpt>
      <trkpt lat="44.2922" lon="0.6954">
        <ele>190.3</ele>
        <time>2016-05-15T08:51:14Z</time>
      </trkpt>
      <trkpt lat="44.29232" lon="0.69475">
        <ele>191.6</ele>
        <time>2016-05-15T08:51:25Z</time>
      </trkpt>
      <trkpt lat="44.29241" lon="0.69448">
        <ele>192.5</ele>
        <time>2016-05-15T08:51:30Z</time>
      </trkpt>
      <trkpt lat="44.29243" lon="0.69443">
        <ele>192.8</ele>
        <time>2016-05-15T08:51:31Z</time>
      </trkpt>
      <trkpt lat="44.29252" lon="0.69419">
        <ele>194.1</ele>
        <time>2016-05-15T08:51:36Z</time>
      </trkpt>
      <trkpt lat="44.29271" lon="0.69362">
        <ele>197.5</ele>
        <time>2016-05-15T08:51:48Z</time>
      </trkpt>
      <trkpt lat="44.29274" lon="0.69334">
        <ele>198.2</ele>
        <time>2016-05-15T08:51:54Z</time>
      </trkpt>
      <trkpt lat="44.29271" lon="0.69153">
        <ele>200.3</ele>
        <time>2016-05-15T08:52:52Z</time>
      </trkpt>
      <trkpt lat="44.2928" lon="0.69163">
        <ele>200.7</ele>
        <time>2016-05-15T08:52:59Z</time>
      </trkpt>
      <trkpt lat="44.29368" lon="0.69233">
        <ele>204</ele>
        <time>2016-05-15T08:53:32Z</time>
      </trkpt>
      <trkpt lat="44.29397" lon="0.69259">
        <ele>204.1</ele>
        <time>2016-05-15T08:53:39Z</time>
      </trkpt>
      <trkpt lat="44.2951" lon="0.69351">
        <ele>201</ele>
        <time>2016-05-15T08:54:02Z</time>
      </trkpt>
      <trkpt lat="44.29628" lon="0.69446">
        <ele>197.7</ele>
        <time>2016-05-15T08:54:24Z</time>
      </trkpt>
      <trkpt lat="44.29803" lon="0.69588">
        <ele>196.7</ele>
        <time>2016-05-15T08:55:00Z</time>
      </trkpt>
      <trkpt lat="44.29932" lon="0.69688">
        <ele>199.9</ele>
        <time>2016-05-15T08:55:28Z</time>
      </trkpt>
      <trkpt lat="44.3002" lon="0.69754">
        <ele>200.9</ele>
        <time>2016-05-15T08:55:46Z</time>
      </trkpt>
      <trkpt lat="44.30055" lon="0.69783">
        <ele>201.2</ele>
        <time>2016-05-15T08:55:53Z</time>
      </trkpt>
      <trkpt lat="44.30095" lon="0.69864">
        <ele>199.8</ele>
        <time>2016-05-15T08:56:04Z</time>
      </trkpt>
      <trkpt lat="44.30123" lon="0.69941">
        <ele>199.1</ele>
        <time>2016-05-15T08:56:14Z</time>
      </trkpt>
      <trkpt lat="44.30147" lon="0.69998">
        <ele>199.5</ele>
        <time>2016-05-15T08:56:22Z</time>
      </trkpt>
      <trkpt lat="44.30269" lon="0.70056">
        <ele>199.8</ele>
        <time>2016-05-15T08:56:48Z</time>
      </trkpt>
      <trkpt lat="44.30356" lon="0.70043">
        <ele>200</ele>
        <time>2016-05-15T08:57:05Z</time>
      </trkpt>
      <trkpt lat="44.30461" lon="0.70094">
        <ele>199.8</ele>
        <time>2016-05-15T08:57:26Z</time>
      </trkpt>
      <trkpt lat="44.30558" lon="0.70169">
        <ele>202.3</ele>
        <time>2016-05-15T08:57:51Z</time>
      </trkpt>
      <trkpt lat="44.30609" lon="0.70207">
        <ele>204.1</ele>
        <time>2016-05-15T08:58:06Z</time>
      </trkpt>
      <trkpt lat="44.30613" lon="0.70211">
        <ele>204.2</ele>
        <time>2016-05-15T08:58:07Z</time>
      </trkpt>
      <trkpt lat="44.30631" lon="0.70225">
        <ele>204</ele>
        <time>2016-05-15T08:58:11Z</time>
      </trkpt>
      <trkpt lat="44.309" lon="0.70433">
        <ele>206.3</ele>
        <time>2016-05-15T08:59:04Z</time>
      </trkpt>
      <trkpt lat="44.30933" lon="0.7046">
        <ele>209.3</ele>
        <time>2016-05-15T08:59:17Z</time>
      </trkpt>
      <trkpt lat="44.30945" lon="0.70471">
        <ele>210.5</ele>
        <time>2016-05-15T08:59:22Z</time>
      </trkpt>
      <trkpt lat="44.30967" lon="0.70486">
        <ele>212.5</ele>
        <time>2016-05-15T08:59:31Z</time>
      </trkpt>
      <trkpt lat="44.30991" lon="0.70506">
        <ele>214.9</ele>
        <time>2016-05-15T08:59:44Z</time>
      </trkpt>
      <trkpt lat="44.31017" lon="0.70526">
        <ele>217.5</ele>
        <time>2016-05-15T08:59:58Z</time>
      </trkpt>
      <trkpt lat="44.31041" lon="0.70545">
        <ele>220.2</ele>
        <time>2016-05-15T09:00:11Z</time>
      </trkpt>
      <trkpt lat="44.31066" lon="0.70568">
        <ele>223.8</ele>
        <time>2016-05-15T09:00:26Z</time>
      </trkpt>
      <trkpt lat="44.31076" lon="0.7059">
        <ele>225.9</ele>
        <time>2016-05-15T09:00:37Z</time>
      </trkpt>
      <trkpt lat="44.31069" lon="0.70617">
        <ele>227.1</ele>
        <time>2016-05-15T09:03:13Z</time>
      </trkpt>
      <trkpt lat="44.31063" lon="0.70635">
        <ele>227.6</ele>
        <time>2016-05-15T09:03:17Z</time>
      </trkpt>
      <trkpt lat="44.31054" lon="0.70671">
        <ele>228.9</ele>
        <time>2016-05-15T09:03:25Z</time>
      </trkpt>
      <trkpt lat="44.31045" lon="0.70709">
        <ele>230.9</ele>
        <time>2016-05-15T09:03:30Z</time>
      </trkpt>
      <trkpt lat="44.31029" lon="0.70765">
        <ele>229.6</ele>
        <time>2016-05-15T09:03:35Z</time>
      </trkpt>
      <trkpt lat="44.31035" lon="0.70861">
        <ele>226.1</ele>
        <time>2016-05-15T09:03:42Z</time>
      </trkpt>
      <trkpt lat="44.31051" lon="0.70918">
        <ele>222.8</ele>
        <time>2016-05-15T09:03:46Z</time>
      </trkpt>
      <trkpt lat="44.31079" lon="0.70969">
        <ele>218.2</ele>
        <time>2016-05-15T09:03:50Z</time>
      </trkpt>
      <trkpt lat="44.31104" lon="0.71005">
        <ele>214.8</ele>
        <time>2016-05-15T09:03:53Z</time>
      </trkpt>
      <trkpt lat="44.31167" lon="0.71101">
        <ele>211.6</ele>
        <time>2016-05-15T09:04:02Z</time>
      </trkpt>
      <trkpt lat="44.31217" lon="0.71176">
        <ele>207.8</ele>
        <time>2016-05-15T09:04:10Z</time>
      </trkpt>
      <trkpt lat="44.31266" lon="0.71221">
        <ele>204</ele>
        <time>2016-05-15T09:04:17Z</time>
      </trkpt>
      <trkpt lat="44.31314" lon="0.71255">
        <ele>202.6</ele>
        <time>2016-05-15T09:04:25Z</time>
      </trkpt>
      <trkpt lat="44.31509" lon="0.71403">
        <ele>199.6</ele>
        <time>2016-05-15T09:04:56Z</time>
      </trkpt>
      <trkpt lat="44.31592" lon="0.71465">
        <ele>197.1</ele>
        <time>2016-05-15T09:05:07Z</time>
      </trkpt>
      <trkpt lat="44.31671" lon="0.71527">
        <ele>200.2</ele>
        <time>2016-05-15T09:05:30Z</time>
      </trkpt>
      <trkpt lat="44.31708" lon="0.71556">
        <ele>202.2</ele>
        <time>2016-05-15T09:05:40Z</time>
      </trkpt>
      <trkpt lat="44.31789" lon="0.71618">
        <ele>199.2</ele>
        <time>2016-05-15T09:05:53Z</time>
      </trkpt>
      <trkpt lat="44.3182" lon="0.71641">
        <ele>199.4</ele>
        <time>2016-05-15T09:05:59Z</time>
      </trkpt>
      <trkpt lat="44.31851" lon="0.71666">
        <ele>200.5</ele>
        <time>2016-05-15T09:06:06Z</time>
      </trkpt>
      <trkpt lat="44.31864" lon="0.71675">
        <ele>201</ele>
        <time>2016-05-15T09:06:09Z</time>
      </trkpt>
      <trkpt lat="44.31908" lon="0.7171">
        <ele>204.2</ele>
        <time>2016-05-15T09:06:25Z</time>
      </trkpt>
      <trkpt lat="44.31927" lon="0.71727">
        <ele>205.1</ele>
        <time>2016-05-15T09:08:22Z</time>
      </trkpt>
      <trkpt lat="44.32001" lon="0.71821">
        <ele>201.7</ele>
        <time>2016-05-15T09:08:35Z</time>
      </trkpt>
      <trkpt lat="44.32041" lon="0.7187">
        <ele>197.2</ele>
        <time>2016-05-15T09:08:40Z</time>
      </trkpt>
      <trkpt lat="44.32065" lon="0.71898">
        <ele>195</ele>
        <time>2016-05-15T09:08:43Z</time>
      </trkpt>
      <trkpt lat="44.32131" lon="0.7193">
        <ele>191.1</ele>
        <time>2016-05-15T09:08:51Z</time>
      </trkpt>
      <trkpt lat="44.32165" lon="0.71927">
        <ele>191.8</ele>
        <time>2016-05-15T09:08:56Z</time>
      </trkpt>
      <trkpt lat="44.32171" lon="0.71925">
        <ele>191.9</ele>
        <time>2016-05-15T09:08:57Z</time>
      </trkpt>
      <trkpt lat="44.32206" lon="0.71913">
        <ele>192.3</ele>
        <time>2016-05-15T09:09:03Z</time>
      </trkpt>
      <trkpt lat="44.32222" lon="0.71908">
        <ele>193.7</ele>
        <time>2016-05-15T09:09:07Z</time>
      </trkpt>
      <trkpt lat="44.32253" lon="0.719">
        <ele>197</ele>
        <time>2016-05-15T09:09:16Z</time>
      </trkpt>
      <trkpt lat="44.32296" lon="0.71887">
        <ele>201.4</ele>
        <time>2016-05-15T09:09:27Z</time>
      </trkpt>
      <trkpt lat="44.32299" lon="0.71886">
        <ele>201.6</ele>
        <time>2016-05-15T09:09:28Z</time>
      </trkpt>
      <trkpt lat="44.32322" lon="0.71879">
        <ele>203.2</ele>
        <time>2016-05-15T09:09:37Z</time>
      </trkpt>
      <trkpt lat="44.3237" lon="0.71864">
        <ele>206.3</ele>
        <time>2016-05-15T09:09:55Z</time>
      </trkpt>
      <trkpt lat="44.32416" lon="0.7185">
        <ele>207.9</ele>
        <time>2016-05-15T09:10:09Z</time>
      </trkpt>
      <trkpt lat="44.32627" lon="0.71789">
        <ele>211</ele>
        <time>2016-05-15T09:11:02Z</time>
      </trkpt>
      <trkpt lat="44.32637" lon="0.71786">
        <ele>211</ele>
        <time>2016-05-15T09:11:04Z</time>
      </trkpt>
      <trkpt lat="44.32722" lon="0.71713">
        <ele>213.8</ele>
        <time>2016-05-15T09:11:21Z</time>
      </trkpt>
      <trkpt lat="44.32775" lon="0.71656">
        <ele>211.6</ele>
        <time>2016-05-15T09:11:33Z</time>
      </trkpt>
      <trkpt lat="44.32789" lon="0.71676">
        <ele>210.3</ele>
        <time>2016-05-15T09:11:59Z</time>
      </trkpt>
      <trkpt lat="44.3281" lon="0.71727">
        <ele>208.6</ele>
        <time>2016-05-15T09:12:15Z</time>
      </trkpt>
      <trkpt lat="44.32848" lon="0.71737">
        <ele>208</ele>
        <time>2016-05-15T09:12:27Z</time>
      </trkpt>
      <trkpt lat="44.3287" lon="0.71731">
        <ele>207.8</ele>
        <time>2016-05-15T09:12:32Z</time>
      </trkpt>
      <trkpt lat="44.32972" lon="0.71706">
        <ele>207.1</ele>
        <time>2016-05-15T09:12:52Z</time>
      </trkpt>
      <trkpt lat="44.33025" lon="0.71694">
        <ele>207.2</ele>
        <time>2016-05-15T09:13:04Z</time>
      </trkpt>
      <trkpt lat="44.33095" lon="0.71682">
        <ele>208.8</ele>
        <time>2016-05-15T09:13:20Z</time>
      </trkpt>
      <trkpt lat="44.33204" lon="0.71672">
        <ele>212.1</ele>
        <time>2016-05-15T09:13:48Z</time>
      </trkpt>
      <trkpt lat="44.3324" lon="0.7167">
        <ele>211.6</ele>
        <time>2016-05-15T09:13:56Z</time>
      </trkpt>
      <trkpt lat="44.33515" lon="0.71589">
        <ele>214.4</ele>
        <time>2016-05-15T09:15:05Z</time>
      </trkpt>
      <trkpt lat="44.33519" lon="0.71588">
        <ele>214.7</ele>
        <time>2016-05-15T09:15:06Z</time>
      </trkpt>
      <trkpt lat="44.33561" lon="0.71575">
        <ele>217.8</ele>
        <time>2016-05-15T09:15:18Z</time>
      </trkpt>
      <trkpt lat="44.3361" lon="0.71561">
        <ele>222.5</ele>
        <time>2016-05-15T09:15:34Z</time>
      </trkpt>
      <trkpt lat="44.33654" lon="0.71542">
        <ele>223.9</ele>
        <time>2016-05-15T09:15:47Z</time>
      </trkpt>
      <trkpt lat="44.33769" lon="0.71485">
        <ele>220.7</ele>
        <time>2016-05-15T09:16:11Z</time>
      </trkpt>
      <trkpt lat="44.33821" lon="0.7146">
        <ele>217.6</ele>
        <time>2016-05-15T09:16:20Z</time>
      </trkpt>
      <trkpt lat="44.34113" lon="0.71317">
        <ele>219.9</ele>
        <time>2016-05-15T09:17:20Z</time>
      </trkpt>
      <trkpt lat="44.34144" lon="0.71302">
        <ele>220.6</ele>
        <time>2016-05-15T09:17:28Z</time>
      </trkpt>
      <trkpt lat="44.34216" lon="0.71246">
        <ele>219.1</ele>
        <time>2016-05-15T09:17:46Z</time>
      </trkpt>
      <trkpt lat="44.34265" lon="0.71198">
        <ele>215.6</ele>
        <time>2016-05-15T09:17:56Z</time>
      </trkpt>
      <trkpt lat="44.34309" lon="0.71155">
        <ele>211.5</ele>
        <time>2016-05-15T09:18:03Z</time>
      </trkpt>
      <trkpt lat="44.34389" lon="0.71076">
        <ele>207.9</ele>
        <time>2016-05-15T09:18:14Z</time>
      </trkpt>
      <trkpt lat="44.34472" lon="0.70994">
        <ele>205.5</ele>
        <time>2016-05-15T09:18:26Z</time>
      </trkpt>
      <trkpt lat="44.34628" lon="0.7084">
        <ele>202</ele>
        <time>2016-05-15T09:18:51Z</time>
      </trkpt>
      <trkpt lat="44.34654" lon="0.70819">
        <ele>200.2</ele>
        <time>2016-05-15T09:18:55Z</time>
      </trkpt>
      <trkpt lat="44.34711" lon="0.70792">
        <ele>196.9</ele>
        <time>2016-05-15T09:19:03Z</time>
      </trkpt>
      <trkpt lat="44.3475" lon="0.70784">
        <ele>195.5</ele>
        <time>2016-05-15T09:19:08Z</time>
      </trkpt>
      <trkpt lat="44.34808" lon="0.70761">
        <ele>193.1</ele>
        <time>2016-05-15T09:19:16Z</time>
      </trkpt>
      <trkpt lat="44.34844" lon="0.70711">
        <ele>192.3</ele>
        <time>2016-05-15T09:19:23Z</time>
      </trkpt>
      <trkpt lat="44.34897" lon="0.70603">
        <ele>195.7</ele>
        <time>2016-05-15T09:19:39Z</time>
      </trkpt>
      <trkpt lat="44.34906" lon="0.70586">
        <ele>196.4</ele>
        <time>2016-05-15T09:19:42Z</time>
      </trkpt>
      <trkpt lat="44.34938" lon="0.70539">
        <ele>197.8</ele>
        <time>2016-05-15T09:19:52Z</time>
      </trkpt>
      <trkpt lat="44.3503" lon="0.70447">
        <ele>200.4</ele>
        <time>2016-05-15T09:20:16Z</time>
      </trkpt>
      <trkpt lat="44.35096" lon="0.70416">
        <ele>199.1</ele>
        <time>2016-05-15T09:20:32Z</time>
      </trkpt>
      <trkpt lat="44.35292" lon="0.70354">
        <ele>197.2</ele>
        <time>2016-05-15T09:21:13Z</time>
      </trkpt>
      <trkpt lat="44.35391" lon="0.70319">
        <ele>195.6</ele>
        <time>2016-05-15T09:21:37Z</time>
      </trkpt>
      <trkpt lat="44.35485" lon="0.7029">
        <ele>195.6</ele>
        <time>2016-05-15T09:21:59Z</time>
      </trkpt>
      <trkpt lat="44.35531" lon="0.70275">
        <ele>196.5</ele>
        <time>2016-05-15T09:22:10Z</time>
      </trkpt>
      <trkpt lat="44.35577" lon="0.70259">
        <ele>197.6</ele>
        <time>2016-05-15T09:22:22Z</time>
      </trkpt>
      <trkpt lat="44.3562" lon="0.70249">
        <ele>198.9</ele>
        <time>2016-05-15T09:22:32Z</time>
      </trkpt>
      <trkpt lat="44.36012" lon="0.70374">
        <ele>197.4</ele>
        <time>2016-05-15T09:23:50Z</time>
      </trkpt>
      <trkpt lat="44.3611" lon="0.70405">
        <ele>196.1</ele>
        <time>2016-05-15T09:24:07Z</time>
      </trkpt>
      <trkpt lat="44.362" lon="0.70436">
        <ele>196.7</ele>
        <time>2016-05-15T09:24:27Z</time>
      </trkpt>
      <trkpt lat="44.36246" lon="0.70385">
        <ele>196.2</ele>
        <time>2016-05-15T09:24:48Z</time>
      </trkpt>
      <trkpt lat="44.36292" lon="0.70348">
        <ele>197.4</ele>
        <time>2016-05-15T09:25:01Z</time>
      </trkpt>
      <trkpt lat="44.36323" lon="0.7032">
        <ele>197.2</ele>
        <time>2016-05-15T09:25:09Z</time>
      </trkpt>
      <trkpt lat="44.36352" lon="0.70286">
        <ele>197.1</ele>
        <time>2016-05-15T09:25:17Z</time>
      </trkpt>
      <trkpt lat="44.36419" lon="0.70202">
        <ele>195.7</ele>
        <time>2016-05-15T09:25:34Z</time>
      </trkpt>
      <trkpt lat="44.36458" lon="0.70146">
        <ele>196.7</ele>
        <time>2016-05-15T09:25:44Z</time>
      </trkpt>
      <trkpt lat="44.36558" lon="0.70047">
        <ele>199.9</ele>
        <time>2016-05-15T09:26:08Z</time>
      </trkpt>
      <trkpt lat="44.36562" lon="0.70049">
        <ele>200.2</ele>
        <time>2016-05-15T09:26:09Z</time>
      </trkpt>
      <trkpt lat="44.36603" lon="0.70063">
        <ele>202.1</ele>
        <time>2016-05-15T09:26:17Z</time>
      </trkpt>
      <trkpt lat="44.36642" lon="0.70062">
        <ele>202.7</ele>
        <time>2016-05-15T09:26:23Z</time>
      </trkpt>
      <trkpt lat="44.36696" lon="0.70048">
        <ele>201.3</ele>
        <time>2016-05-15T09:26:30Z</time>
      </trkpt>
      <trkpt lat="44.36732" lon="0.70037">
        <ele>198.1</ele>
        <time>2016-05-15T09:26:34Z</time>
      </trkpt>
      <trkpt lat="44.36761" lon="0.70028">
        <ele>194.3</ele>
        <time>2016-05-15T09:26:37Z</time>
      </trkpt>
      <trkpt lat="44.368" lon="0.70017">
        <ele>189.4</ele>
        <time>2016-05-15T09:26:41Z</time>
      </trkpt>
      <trkpt lat="44.36848" lon="0.70003">
        <ele>185.1</ele>
        <time>2016-05-15T09:26:46Z</time>
      </trkpt>
      <trkpt lat="44.36902" lon="0.69996">
        <ele>183</ele>
        <time>2016-05-15T09:26:52Z</time>
      </trkpt>
      <trkpt lat="44.37133" lon="0.70014">
        <ele>178.9</ele>
        <time>2016-05-15T09:27:17Z</time>
      </trkpt>
      <trkpt lat="44.37325" lon="0.70033">
        <ele>180.8</ele>
        <time>2016-05-15T09:27:47Z</time>
      </trkpt>
      <trkpt lat="44.37389" lon="0.70037">
        <ele>183.9</ele>
        <time>2016-05-15T09:28:00Z</time>
      </trkpt>
      <trkpt lat="44.37423" lon="0.7004">
        <ele>186.4</ele>
        <time>2016-05-15T09:28:07Z</time>
      </trkpt>
      <trkpt lat="44.37465" lon="0.70044">
        <ele>189.1</ele>
        <time>2016-05-15T09:28:16Z</time>
      </trkpt>
      <trkpt lat="44.37548" lon="0.70049">
        <ele>192.1</ele>
        <time>2016-05-15T09:28:36Z</time>
      </trkpt>
      <trkpt lat="44.37591" lon="0.70051">
        <ele>193.5</ele>
        <time>2016-05-15T09:28:47Z</time>
      </trkpt>
      <trkpt lat="44.37623" lon="0.70052">
        <ele>194.7</ele>
        <time>2016-05-15T09:28:56Z</time>
      </trkpt>
      <trkpt lat="44.37687" lon="0.70059">
        <ele>195</ele>
        <time>2016-05-15T09:29:26Z</time>
      </trkpt>
      <trkpt lat="44.377" lon="0.70069">
        <ele>195.2</ele>
        <time>2016-05-15T09:29:34Z</time>
      </trkpt>
      <trkpt lat="44.37726" lon="0.70068">
        <ele>195.5</ele>
        <time>2016-05-15T09:29:46Z</time>
      </trkpt>
      <trkpt lat="44.37755" lon="0.70059">
        <ele>195.7</ele>
        <time>2016-05-15T09:32:15Z</time>
      </trkpt>
      <trkpt lat="44.37803" lon="0.70038">
        <ele>195.7</ele>
        <time>2016-05-15T09:32:27Z</time>
      </trkpt>
      <trkpt lat="44.37892" lon="0.69927">
        <ele>192.1</ele>
        <time>2016-05-15T09:32:49Z</time>
      </trkpt>
      <trkpt lat="44.37921" lon="0.69885">
        <ele>189</ele>
        <time>2016-05-15T09:32:57Z</time>
      </trkpt>
      <trkpt lat="44.37955" lon="0.69844">
        <ele>181.2</ele>
        <time>2016-05-15T09:33:04Z</time>
      </trkpt>
      <trkpt lat="44.37989" lon="0.698">
        <ele>177.8</ele>
        <time>2016-05-15T09:33:11Z</time>
      </trkpt>
      <trkpt lat="44.38038" lon="0.69733">
        <ele>176.7</ele>
        <time>2016-05-15T09:33:22Z</time>
      </trkpt>
      <trkpt lat="44.38076" lon="0.69612">
        <ele>172.9</ele>
        <time>2016-05-15T09:33:37Z</time>
      </trkpt>
      <trkpt lat="44.38084" lon="0.69572">
        <ele>171.4</ele>
        <time>2016-05-15T09:33:42Z</time>
      </trkpt>
      <trkpt lat="44.38089" lon="0.69557">
        <ele>171.5</ele>
        <time>2016-05-15T09:33:44Z</time>
      </trkpt>
      <trkpt lat="44.3813" lon="0.69481">
        <ele>173.2</ele>
        <time>2016-05-15T09:33:54Z</time>
      </trkpt>
      <trkpt lat="44.38136" lon="0.69462">
        <ele>171.9</ele>
        <time>2016-05-15T09:33:56Z</time>
      </trkpt>
      <trkpt lat="44.38152" lon="0.69414">
        <ele>169.3</ele>
        <time>2016-05-15T09:34:01Z</time>
      </trkpt>
      <trkpt lat="44.38161" lon="0.69397">
        <ele>169.1</ele>
        <time>2016-05-15T09:34:03Z</time>
      </trkpt>
      <trkpt lat="44.38197" lon="0.69359">
        <ele>170.9</ele>
        <time>2016-05-15T09:34:09Z</time>
      </trkpt>
      <trkpt lat="44.38223" lon="0.69337">
        <ele>170.5</ele>
        <time>2016-05-15T09:34:13Z</time>
      </trkpt>
      <trkpt lat="44.38287" lon="0.69336">
        <ele>175.7</ele>
        <time>2016-05-15T09:34:22Z</time>
      </trkpt>
      <trkpt lat="44.383" lon="0.69344">
        <ele>177.4</ele>
        <time>2016-05-15T09:34:24Z</time>
      </trkpt>
      <trkpt lat="44.38307" lon="0.69345">
        <ele>177.6</ele>
        <time>2016-05-15T09:34:25Z</time>
      </trkpt>
      <trkpt lat="44.38371" lon="0.69349">
        <ele>175.8</ele>
        <time>2016-05-15T09:34:35Z</time>
      </trkpt>
      <trkpt lat="44.38436" lon="0.69347">
        <ele>172.3</ele>
        <time>2016-05-15T09:34:45Z</time>
      </trkpt>
      <trkpt lat="44.3846" lon="0.69344">
        <ele>170.9</ele>
        <time>2016-05-15T09:34:49Z</time>
      </trkpt>
      <trkpt lat="44.38466" lon="0.69342">
        <ele>170.8</ele>
        <time>2016-05-15T09:34:50Z</time>
      </trkpt>
      <trkpt lat="44.38512" lon="0.69286">
        <ele>164.9</ele>
        <time>2016-05-15T09:34:59Z</time>
      </trkpt>
      <trkpt lat="44.38541" lon="0.69239">
        <ele>161.3</ele>
        <time>2016-05-15T09:35:05Z</time>
      </trkpt>
      <trkpt lat="44.3855" lon="0.69221">
        <ele>159.8</ele>
        <time>2016-05-15T09:35:07Z</time>
      </trkpt>
      <trkpt lat="44.386" lon="0.69073">
        <ele>167.3</ele>
        <time>2016-05-15T09:35:23Z</time>
      </trkpt>
      <trkpt lat="44.38607" lon="0.69048">
        <ele>170.3</ele>
        <time>2016-05-15T09:35:27Z</time>
      </trkpt>
      <trkpt lat="44.38606" lon="0.69028">
        <ele>171.5</ele>
        <time>2016-05-15T09:35:31Z</time>
      </trkpt>
      <trkpt lat="44.3859" lon="0.68964">
        <ele>173.2</ele>
        <time>2016-05-15T09:35:50Z</time>
      </trkpt>
      <trkpt lat="44.3857" lon="0.68903">
        <ele>171.5</ele>
        <time>2016-05-15T09:36:10Z</time>
      </trkpt>
      <trkpt lat="44.38567" lon="0.68893">
        <ele>171.5</ele>
        <time>2016-05-15T09:36:15Z</time>
      </trkpt>
      <trkpt lat="44.38564" lon="0.68835">
        <ele>172.4</ele>
        <time>2016-05-15T09:37:23Z</time>
      </trkpt>
      <trkpt lat="44.38553" lon="0.6882">
        <ele>171.6</ele>
        <time>2016-05-15T09:37:42Z</time>
      </trkpt>
      <trkpt lat="44.38561" lon="0.68782">
        <ele>173.1</ele>
        <time>2016-05-15T09:38:27Z</time>
      </trkpt>
      <trkpt lat="44.38558" lon="0.6875">
        <ele>173.6</ele>
        <time>2016-05-15T09:38:51Z</time>
      </trkpt>
      <trkpt lat="44.38555" lon="0.6871">
        <ele>174.4</ele>
        <time>2016-05-15T09:39:30Z</time>
      </trkpt>
      <trkpt lat="44.38557" lon="0.68701">
        <ele>174.2</ele>
        <time>2016-05-15T09:39:51Z</time>
      </trkpt>
      <trkpt lat="44.38594" lon="0.68699">
        <ele>175.5</ele>
        <time>2016-05-15T09:40:09Z</time>
      </trkpt>
      <trkpt lat="44.38609" lon="0.68713">
        <ele>176.5</ele>
        <time>2016-05-15T09:41:07Z</time>
      </trkpt>
      <trkpt lat="44.3861" lon="0.6873">
        <ele>176.7</ele>
        <time>2016-05-15T09:41:11Z</time>
      </trkpt>
      <trkpt lat="44.3861" lon="0.6885">
        <ele>177.3</ele>
        <time>2016-05-15T09:42:06Z</time>
      </trkpt>
      <trkpt lat="44.38645" lon="0.68672">
        <ele>171.7</ele>
        <time>2016-05-15T09:42:35Z</time>
      </trkpt>
      <trkpt lat="44.38657" lon="0.68634">
        <ele>167.9</ele>
        <time>2016-05-15T09:42:39Z</time>
      </trkpt>
      <trkpt lat="44.38662" lon="0.68611">
        <ele>166.5</ele>
        <time>2016-05-15T09:42:41Z</time>
      </trkpt>
      <trkpt lat="44.3867" lon="0.68542">
        <ele>163.4</ele>
        <time>2016-05-15T09:42:46Z</time>
      </trkpt>
      <trkpt lat="44.38679" lon="0.68494">
        <ele>160</ele>
        <time>2016-05-15T09:42:49Z</time>
      </trkpt>
      <trkpt lat="44.38689" lon="0.68444">
        <ele>155.4</ele>
        <time>2016-05-15T09:42:52Z</time>
      </trkpt>
      <trkpt lat="44.38695" lon="0.68411">
        <ele>150.7</ele>
        <time>2016-05-15T09:42:54Z</time>
      </trkpt>
      <trkpt lat="44.38696" lon="0.68378">
        <ele>146.6</ele>
        <time>2016-05-15T09:42:56Z</time>
      </trkpt>
      <trkpt lat="44.3869" lon="0.68343">
        <ele>142</ele>
        <time>2016-05-15T09:42:58Z</time>
      </trkpt>
      <trkpt lat="44.38686" lon="0.68326">
        <ele>139.6</ele>
        <time>2016-05-15T09:42:59Z</time>
      </trkpt>
      <trkpt lat="44.38676" lon="0.68292">
        <ele>134.1</ele>
        <time>2016-05-15T09:43:01Z</time>
      </trkpt>
      <trkpt lat="44.38673" lon="0.6826">
        <ele>129.6</ele>
        <time>2016-05-15T09:43:03Z</time>
      </trkpt>
      <trkpt lat="44.38679" lon="0.6823">
        <ele>125.8</ele>
        <time>2016-05-15T09:43:05Z</time>
      </trkpt>
      <trkpt lat="44.38686" lon="0.68216">
        <ele>124.4</ele>
        <time>2016-05-15T09:43:06Z</time>
      </trkpt>
      <trkpt lat="44.38726" lon="0.68143">
        <ele>121.3</ele>
        <time>2016-05-15T09:43:12Z</time>
      </trkpt>
      <trkpt lat="44.3873" lon="0.68134">
        <ele>121.1</ele>
        <time>2016-05-15T09:43:13Z</time>
      </trkpt>
      <trkpt lat="44.38737" lon="0.68123">
        <ele>121</ele>
        <time>2016-05-15T09:43:15Z</time>
      </trkpt>
      <trkpt lat="44.38752" lon="0.68133">
        <ele>122.4</ele>
        <time>2016-05-15T09:43:27Z</time>
      </trkpt>
      <trkpt lat="44.38771" lon="0.68234">
        <ele>126.1</ele>
        <time>2016-05-15T09:43:42Z</time>
      </trkpt>
      <trkpt lat="44.38783" lon="0.68289">
        <ele>127</ele>
        <time>2016-05-15T09:43:47Z</time>
      </trkpt>
      <trkpt lat="44.3879" lon="0.68329">
        <ele>127.6</ele>
        <time>2016-05-15T09:43:50Z</time>
      </trkpt>
      <trkpt lat="44.38826" lon="0.68491">
        <ele>124</ele>
        <time>2016-05-15T09:44:04Z</time>
      </trkpt>
      <trkpt lat="44.38828" lon="0.68503">
        <ele>123.7</ele>
        <time>2016-05-15T09:44:05Z</time>
      </trkpt>
      <trkpt lat="44.3884" lon="0.68566">
        <ele>122.1</ele>
        <time>2016-05-15T09:44:11Z</time>
      </trkpt>
      <trkpt lat="44.38846" lon="0.68621">
        <ele>121.9</ele>
        <time>2016-05-15T09:44:16Z</time>
      </trkpt>
      <trkpt lat="44.38854" lon="0.68732">
        <ele>118</ele>
        <time>2016-05-15T09:44:25Z</time>
      </trkpt>
      <trkpt lat="44.38861" lon="0.68787">
        <ele>115</ele>
        <time>2016-05-15T09:44:29Z</time>
      </trkpt>
      <trkpt lat="44.38867" lon="0.68815">
        <ele>112.9</ele>
        <time>2016-05-15T09:44:31Z</time>
      </trkpt>
      <trkpt lat="44.38883" lon="0.68856">
        <ele>108.1</ele>
        <time>2016-05-15T09:44:34Z</time>
      </trkpt>
      <trkpt lat="44.38907" lon="0.68914">
        <ele>103.2</ele>
        <time>2016-05-15T09:44:38Z</time>
      </trkpt>
      <trkpt lat="44.38924" lon="0.68958">
        <ele>100</ele>
        <time>2016-05-15T09:44:41Z</time>
      </trkpt>
      <trkpt lat="44.3896" lon="0.69044">
        <ele>96.6</ele>
        <time>2016-05-15T09:44:47Z</time>
      </trkpt>
      <trkpt lat="44.38978" lon="0.69067">
        <ele>93.6</ele>
        <time>2016-05-15T09:44:49Z</time>
      </trkpt>
      <trkpt lat="44.38998" lon="0.69085">
        <ele>90.5</ele>
        <time>2016-05-15T09:44:51Z</time>
      </trkpt>
      <trkpt lat="44.39019" lon="0.69104">
        <ele>87.7</ele>
        <time>2016-05-15T09:44:53Z</time>
      </trkpt>
      <trkpt lat="44.3905" lon="0.6913">
        <ele>84.3</ele>
        <time>2016-05-15T09:44:56Z</time>
      </trkpt>
      <trkpt lat="44.39083" lon="0.6915">
        <ele>81.8</ele>
        <time>2016-05-15T09:44:59Z</time>
      </trkpt>
      <trkpt lat="44.39161" lon="0.69211">
        <ele>78.3</ele>
        <time>2016-05-15T09:45:08Z</time>
      </trkpt>
      <trkpt lat="44.39232" lon="0.69266">
        <ele>76.5</ele>
        <time>2016-05-15T09:45:19Z</time>
      </trkpt>
      <trkpt lat="44.39315" lon="0.69331">
        <ele>75.3</ele>
        <time>2016-05-15T09:45:34Z</time>
      </trkpt>
      <trkpt lat="44.39362" lon="0.69326">
        <ele>74</ele>
        <time>2016-05-15T09:45:42Z</time>
      </trkpt>
      <trkpt lat="44.39368" lon="0.69323">
        <ele>73.8</ele>
        <time>2016-05-15T09:45:43Z</time>
      </trkpt>
      <trkpt lat="44.39427" lon="0.69318">
        <ele>70.7</ele>
        <time>2016-05-15T09:45:59Z</time>
      </trkpt>
      <trkpt lat="44.39432" lon="0.69316">
        <ele>70.5</ele>
        <time>2016-05-15T09:46:00Z</time>
      </trkpt>
      <trkpt lat="44.39452" lon="0.69383">
        <ele>69.4</ele>
        <time>2016-05-15T09:46:11Z</time>
      </trkpt>
      <trkpt lat="44.3945" lon="0.69405">
        <ele>69.7</ele>
        <time>2016-05-15T09:46:14Z</time>
      </trkpt>
      <trkpt lat="44.39492" lon="0.69469">
        <ele>69.2</ele>
        <time>2016-05-15T09:46:34Z</time>
      </trkpt>
      <trkpt lat="44.39569" lon="0.69523">
        <ele>68.1</ele>
        <time>2016-05-15T09:48:44Z</time>
      </trkpt>
      <trkpt lat="44.39557" lon="0.69512">
        <ele>68.3</ele>
        <time>2016-05-15T09:48:49Z</time>
      </trkpt>
      <trkpt lat="44.39471" lon="0.69441">
        <ele>69.5</ele>
        <time>2016-05-15T09:49:14Z</time>
      </trkpt>
      <trkpt lat="44.39459" lon="0.69356">
        <ele>69</ele>
        <time>2016-05-15T09:49:28Z</time>
      </trkpt>
      <trkpt lat="44.39459" lon="0.6935">
        <ele>69</ele>
        <time>2016-05-15T09:49:29Z</time>
      </trkpt>
      <trkpt lat="44.39444" lon="0.69305">
        <ele>69.8</ele>
        <time>2016-05-15T09:49:38Z</time>
      </trkpt>
      <trkpt lat="44.3943" lon="0.69289">
        <ele>70.7</ele>
        <time>2016-05-15T09:49:48Z</time>
      </trkpt>
      <trkpt lat="44.39435" lon="0.69294">
        <ele>70.4</ele>
        <time>2016-05-15T09:51:06Z</time>
      </trkpt>
      <trkpt lat="44.39441" lon="0.69352">
        <ele>69.9</ele>
        <time>2016-05-15T09:51:24Z</time>
      </trkpt>
      <trkpt lat="44.39442" lon="0.6936">
        <ele>69.8</ele>
        <time>2016-05-15T09:51:25Z</time>
      </trkpt>
      <trkpt lat="44.39457" lon="0.6944">
        <ele>69.8</ele>
        <time>2016-05-15T09:51:39Z</time>
      </trkpt>
      <trkpt lat="44.39468" lon="0.6945">
        <ele>69.7</ele>
        <time>2016-05-15T09:51:42Z</time>
      </trkpt>
      <trkpt lat="44.39485" lon="0.69464">
        <ele>69.3</ele>
        <time>2016-05-15T09:51:46Z</time>
      </trkpt>
      <trkpt lat="44.3965" lon="0.69591">
        <ele>66.3</ele>
        <time>2016-05-15T09:52:15Z</time>
      </trkpt>
      <trkpt lat="44.397" lon="0.69629">
        <ele>66</ele>
        <time>2016-05-15T09:52:23Z</time>
      </trkpt>
      <trkpt lat="44.39771" lon="0.69684">
        <ele>64.3</ele>
        <time>2016-05-15T09:52:34Z</time>
      </trkpt>
      <trkpt lat="44.39878" lon="0.69765">
        <ele>62.7</ele>
        <time>2016-05-15T09:52:50Z</time>
      </trkpt>
      <trkpt lat="44.40098" lon="0.69936">
        <ele>60.7</ele>
        <time>2016-05-15T09:53:25Z</time>
      </trkpt>
      <trkpt lat="44.40335" lon="0.70122">
        <ele>60</ele>
        <time>2016-05-15T09:54:29Z</time>
      </trkpt>
      <trkpt lat="44.40486" lon="0.70231">
        <ele>60.1</ele>
        <time>2016-05-15T09:55:21Z</time>
      </trkpt>
      <trkpt lat="44.40569" lon="0.70296">
        <ele>59.5</ele>
        <time>2016-05-15T09:55:42Z</time>
      </trkpt>
      <trkpt lat="44.40601" lon="0.70335">
        <ele>56.5</ele>
        <time>2016-05-15T09:55:48Z</time>
      </trkpt>
      <trkpt lat="44.40622" lon="0.70365">
        <ele>53</ele>
        <time>2016-05-15T09:56:42Z</time>
      </trkpt>
      <trkpt lat="44.40668" lon="0.70411">
        <ele>49.9</ele>
        <time>2016-05-15T09:57:10Z</time>
      </trkpt>
      <trkpt lat="44.40704" lon="0.70445">
        <ele>48.4</ele>
        <time>2016-05-15T09:57:24Z</time>
      </trkpt>
      <trkpt lat="44.40739" lon="0.70483">
        <ele>53.1</ele>
        <time>2016-05-15T09:57:38Z</time>
      </trkpt>
      <trkpt lat="44.40763" lon="0.7051">
        <ele>56.8</ele>
        <time>2016-05-15T09:57:51Z</time>
      </trkpt>
      <trkpt lat="44.40772" lon="0.70523">
        <ele>58.1</ele>
        <time>2016-05-15T09:57:58Z</time>
      </trkpt>
      <trkpt lat="44.40766" lon="0.70539">
        <ele>58.6</ele>
        <time>2016-05-15T09:58:03Z</time>
      </trkpt>
      <trkpt lat="44.40729" lon="0.70622">
        <ele>59.2</ele>
        <time>2016-05-15T09:58:32Z</time>
      </trkpt>
      <trkpt lat="44.40735" lon="0.70628">
        <ele>59.3</ele>
        <time>2016-05-15T09:58:39Z</time>
      </trkpt>
      <trkpt lat="44.4073" lon="0.7062">
        <ele>59.1</ele>
        <time>2016-05-15T09:58:44Z</time>
      </trkpt>
      <trkpt lat="44.40684" lon="0.7057">
        <ele>55.8</ele>
        <time>2016-05-15T09:59:03Z</time>
      </trkpt>
      <trkpt lat="44.40649" lon="0.70542">
        <ele>52.4</ele>
        <time>2016-05-15T09:59:21Z</time>
      </trkpt>
      <trkpt lat="44.40651" lon="0.7054">
        <ele>52.5</ele>
        <time>2016-05-15T09:59:25Z</time>
      </trkpt>
      <trkpt lat="44.40654" lon="0.70546">
        <ele>53</ele>
        <time>2016-05-15T10:00:48Z</time>
      </trkpt>
      <trkpt lat="44.40653" lon="0.70557">
        <ele>53.5</ele>
        <time>2016-05-15T10:00:53Z</time>
      </trkpt>
      <trkpt lat="44.40651" lon="0.70571">
        <ele>54.1</ele>
        <time>2016-05-15T10:01:00Z</time>
      </trkpt>
      <trkpt lat="44.407" lon="0.70602">
        <ele>57.8</ele>
        <time>2016-05-15T10:01:14Z</time>
      </trkpt>
      <trkpt lat="44.40723" lon="0.70619">
        <ele>59</ele>
        <time>2016-05-15T10:01:20Z</time>
      </trkpt>
      <trkpt lat="44.40747" lon="0.70644">
        <ele>59.6</ele>
        <time>2016-05-15T10:01:27Z</time>
      </trkpt>
      <trkpt lat="44.40779" lon="0.70676">
        <ele>60.4</ele>
        <time>2016-05-15T10:01:38Z</time>
      </trkpt>
      <trkpt lat="44.40847" lon="0.70757">
        <ele>60.1</ele>
        <time>2016-05-15T10:02:29Z</time>
      </trkpt>
      <trkpt lat="44.40849" lon="0.70744">
        <ele>60.2</ele>
        <time>2016-05-15T10:29:36Z</time>
      </trkpt>
      <trkpt lat="44.40808" lon="0.70711">
        <ele>60.8</ele>
        <time>2016-05-15T10:30:16Z</time>
      </trkpt>
      <trkpt lat="44.40697" lon="0.70587">
        <ele>57.1</ele>
        <time>2016-05-15T10:31:10Z</time>
      </trkpt>
      <trkpt lat="44.40689" lon="0.70573">
        <ele>56.1</ele>
        <time>2016-05-15T10:31:17Z</time>
      </trkpt>
      <trkpt lat="44.40671" lon="0.70572">
        <ele>55.2</ele>
        <time>2016-05-15T10:31:30Z</time>
      </trkpt>
      <trkpt lat="44.40659" lon="0.70568">
        <ele>54.4</ele>
        <time>2016-05-15T10:31:38Z</time>
      </trkpt>
      <trkpt lat="44.4066" lon="0.70566">
        <ele>54.3</ele>
        <time>2016-05-15T10:31:42Z</time>
      </trkpt>
      <trkpt lat="44.40662" lon="0.70605">
        <ele>56.4</ele>
        <time>2016-05-15T10:32:08Z</time>
      </trkpt>
      <trkpt lat="44.40657" lon="0.70638">
        <ele>57.3</ele>
        <time>2016-05-15T10:33:36Z</time>
      </trkpt>
      <trkpt lat="44.40704" lon="0.70683">
        <ele>58.9</ele>
        <time>2016-05-15T10:33:58Z</time>
      </trkpt>
      <trkpt lat="44.40771" lon="0.70757">
        <ele>60.2</ele>
        <time>2016-05-15T10:42:33Z</time>
      </trkpt>
      <trkpt lat="44.40787" lon="0.70768">
        <ele>60.3</ele>
        <time>2016-05-15T10:42:41Z</time>
      </trkpt>
      <trkpt lat="44.40982" lon="0.70977">
        <ele>60.3</ele>
        <time>2016-05-15T10:43:53Z</time>
      </trkpt>
      <trkpt lat="44.40983" lon="0.70984">
        <ele>60.3</ele>
        <time>2016-05-15T10:44:44Z</time>
      </trkpt>
      <trkpt lat="44.40977" lon="0.71003">
        <ele>60.2</ele>
        <time>2016-05-15T10:44:53Z</time>
      </trkpt>
      <trkpt lat="44.40968" lon="0.71167">
        <ele>59.3</ele>
        <time>2016-05-15T10:45:25Z</time>
      </trkpt>
      <trkpt lat="44.41052" lon="0.71215">
        <ele>62</ele>
        <time>2016-05-15T10:45:52Z</time>
      </trkpt>
      <trkpt lat="44.41057" lon="0.71232">
        <ele>62.1</ele>
        <time>2016-05-15T10:45:55Z</time>
      </trkpt>
      <trkpt lat="44.41067" lon="0.71279">
        <ele>62.3</ele>
        <time>2016-05-15T10:46:03Z</time>
      </trkpt>
      <trkpt lat="44.4111" lon="0.71481">
        <ele>62.5</ele>
        <time>2016-05-15T10:46:35Z</time>
      </trkpt>
      <trkpt lat="44.41129" lon="0.71537">
        <ele>63.8</ele>
        <time>2016-05-15T10:46:44Z</time>
      </trkpt>
      <trkpt lat="44.41171" lon="0.71692">
        <ele>64.1</ele>
        <time>2016-05-15T10:47:08Z</time>
      </trkpt>
      <trkpt lat="44.41207" lon="0.71853">
        <ele>65.7</ele>
        <time>2016-05-15T10:47:32Z</time>
      </trkpt>
      <trkpt lat="44.41211" lon="0.71866">
        <ele>65.9</ele>
        <time>2016-05-15T10:47:34Z</time>
      </trkpt>
      <trkpt lat="44.41249" lon="0.7196">
        <ele>65</ele>
        <time>2016-05-15T10:47:48Z</time>
      </trkpt>
      <trkpt lat="44.41252" lon="0.71967">
        <ele>65.1</ele>
        <time>2016-05-15T10:47:49Z</time>
      </trkpt>
      <trkpt lat="44.4128" lon="0.72016">
        <ele>65.8</ele>
        <time>2016-05-15T10:47:57Z</time>
      </trkpt>
      <trkpt lat="44.41288" lon="0.72048">
        <ele>66</ele>
        <time>2016-05-15T10:48:02Z</time>
      </trkpt>
      <trkpt lat="44.41302" lon="0.72104">
        <ele>66.1</ele>
        <time>2016-05-15T10:48:11Z</time>
      </trkpt>
      <trkpt lat="44.41387" lon="0.72377">
        <ele>69.2</ele>
        <time>2016-05-15T10:48:57Z</time>
      </trkpt>
      <trkpt lat="44.41395" lon="0.7241">
        <ele>69.9</ele>
        <time>2016-05-15T10:49:02Z</time>
      </trkpt>
      <trkpt lat="44.41455" lon="0.72539">
        <ele>71</ele>
        <time>2016-05-15T10:49:24Z</time>
      </trkpt>
      <trkpt lat="44.41465" lon="0.72558">
        <ele>71.4</ele>
        <time>2016-05-15T10:49:27Z</time>
      </trkpt>
      <trkpt lat="44.41495" lon="0.72649">
        <ele>72.7</ele>
        <time>2016-05-15T10:49:40Z</time>
      </trkpt>
      <trkpt lat="44.41571" lon="0.72949">
        <ele>74.8</ele>
        <time>2016-05-15T10:53:55Z</time>
      </trkpt>
      <trkpt lat="44.41676" lon="0.73149">
        <ele>75.6</ele>
        <time>2016-05-15T10:54:43Z</time>
      </trkpt>
      <trkpt lat="44.41695" lon="0.73174">
        <ele>75.8</ele>
        <time>2016-05-15T10:54:49Z</time>
      </trkpt>
      <trkpt lat="44.41704" lon="0.73215">
        <ele>75.9</ele>
        <time>2016-05-15T10:54:56Z</time>
      </trkpt>
      <trkpt lat="44.41698" lon="0.73845">
        <ele>74.7</ele>
        <time>2016-05-15T10:56:25Z</time>
      </trkpt>
      <trkpt lat="44.41696" lon="0.73925">
        <ele>74</ele>
        <time>2016-05-15T10:56:35Z</time>
      </trkpt>
      <trkpt lat="44.41692" lon="0.74147">
        <ele>73.7</ele>
        <time>2016-05-15T10:57:02Z</time>
      </trkpt>
      <trkpt lat="44.41695" lon="0.74169">
        <ele>73.1</ele>
        <time>2016-05-15T10:57:05Z</time>
      </trkpt>
      <trkpt lat="44.41718" lon="0.74283">
        <ele>73.2</ele>
        <time>2016-05-15T10:57:21Z</time>
      </trkpt>
      <trkpt lat="44.41726" lon="0.74312">
        <ele>74.5</ele>
        <time>2016-05-15T10:57:26Z</time>
      </trkpt>
      <trkpt lat="44.41749" lon="0.74367">
        <ele>77.2</ele>
        <time>2016-05-15T10:57:39Z</time>
      </trkpt>
      <trkpt lat="44.41874" lon="0.74459">
        <ele>79</ele>
        <time>2016-05-15T10:59:27Z</time>
      </trkpt>
      <trkpt lat="44.41868" lon="0.74455">
        <ele>79</ele>
        <time>2016-05-15T10:59:54Z</time>
      </trkpt>
      <trkpt lat="44.41837" lon="0.7444">
        <ele>79</ele>
        <time>2016-05-15T11:00:02Z</time>
      </trkpt>
      <trkpt lat="44.41796" lon="0.74415">
        <ele>78.5</ele>
        <time>2016-05-15T11:00:11Z</time>
      </trkpt>
      <trkpt lat="44.4174" lon="0.74337">
        <ele>75.9</ele>
        <time>2016-05-15T11:00:24Z</time>
      </trkpt>
      <trkpt lat="44.4173" lon="0.74312">
        <ele>74.6</ele>
        <time>2016-05-15T11:00:27Z</time>
      </trkpt>
      <trkpt lat="44.41724" lon="0.74295">
        <ele>73.7</ele>
        <time>2016-05-15T11:00:29Z</time>
      </trkpt>
      <trkpt lat="44.41707" lon="0.74298">
        <ele>73.3</ele>
        <time>2016-05-15T11:00:35Z</time>
      </trkpt>
      <trkpt lat="44.41678" lon="0.74367">
        <ele>75.2</ele>
        <time>2016-05-15T11:00:51Z</time>
      </trkpt>
      <trkpt lat="44.41652" lon="0.74433">
        <ele>76.4</ele>
        <time>2016-05-15T11:01:05Z</time>
      </trkpt>
      <trkpt lat="44.41642" lon="0.74504">
        <ele>77.1</ele>
        <time>2016-05-15T11:01:17Z</time>
      </trkpt>
      <trkpt lat="44.41634" lon="0.74575">
        <ele>77</ele>
        <time>2016-05-15T11:01:28Z</time>
      </trkpt>
      <trkpt lat="44.41603" lon="0.7474">
        <ele>78.8</ele>
        <time>2016-05-15T11:01:53Z</time>
      </trkpt>
      <trkpt lat="44.41589" lon="0.74876">
        <ele>78.6</ele>
        <time>2016-05-15T11:02:13Z</time>
      </trkpt>
      <trkpt lat="44.41573" lon="0.74925">
        <ele>79.8</ele>
        <time>2016-05-15T11:02:21Z</time>
      </trkpt>
      <trkpt lat="44.41561" lon="0.74947">
        <ele>80.2</ele>
        <time>2016-05-15T11:02:25Z</time>
      </trkpt>
      <trkpt lat="44.41544" lon="0.74998">
        <ele>80.6</ele>
        <time>2016-05-15T11:02:33Z</time>
      </trkpt>
      <trkpt lat="44.41527" lon="0.75087">
        <ele>81.3</ele>
        <time>2016-05-15T11:02:47Z</time>
      </trkpt>
      <trkpt lat="44.41535" lon="0.75206">
        <ele>83.7</ele>
        <time>2016-05-15T11:03:07Z</time>
      </trkpt>
      <trkpt lat="44.41533" lon="0.75228">
        <ele>84</ele>
        <time>2016-05-15T11:03:11Z</time>
      </trkpt>
      <trkpt lat="44.41541" lon="0.75415">
        <ele>87.4</ele>
        <time>2016-05-15T11:03:48Z</time>
      </trkpt>
      <trkpt lat="44.41558" lon="0.75501">
        <ele>90</ele>
        <time>2016-05-15T11:04:06Z</time>
      </trkpt>
      <trkpt lat="44.41503" lon="0.75708">
        <ele>91.1</ele>
        <time>2016-05-15T11:04:47Z</time>
      </trkpt>
      <trkpt lat="44.41484" lon="0.7577">
        <ele>89.9</ele>
        <time>2016-05-15T11:05:00Z</time>
      </trkpt>
      <trkpt lat="44.41459" lon="0.75851">
        <ele>88.8</ele>
        <time>2016-05-15T11:05:15Z</time>
      </trkpt>
      <trkpt lat="44.41452" lon="0.75938">
        <ele>89.4</ele>
        <time>2016-05-15T11:05:30Z</time>
      </trkpt>
      <trkpt lat="44.41453" lon="0.7595">
        <ele>89.6</ele>
        <time>2016-05-15T11:05:32Z</time>
      </trkpt>
      <trkpt lat="44.41462" lon="0.76057">
        <ele>89.4</ele>
        <time>2016-05-15T11:06:09Z</time>
      </trkpt>
      <trkpt lat="44.41464" lon="0.76084">
        <ele>89.5</ele>
        <time>2016-05-15T11:06:17Z</time>
      </trkpt>
      <trkpt lat="44.41468" lon="0.76169">
        <ele>89.4</ele>
        <time>2016-05-15T11:06:34Z</time>
      </trkpt>
      <trkpt lat="44.41506" lon="0.76193">
        <ele>92.8</ele>
        <time>2016-05-15T11:06:49Z</time>
      </trkpt>
      <trkpt lat="44.4151" lon="0.76193">
        <ele>93.2</ele>
        <time>2016-05-15T11:06:51Z</time>
      </trkpt>
      <trkpt lat="44.41517" lon="0.76193">
        <ele>93.8</ele>
        <time>2016-05-15T11:06:55Z</time>
      </trkpt>
      <trkpt lat="44.41523" lon="0.76183">
        <ele>94.5</ele>
        <time>2016-05-15T11:06:59Z</time>
      </trkpt>
      <trkpt lat="44.41518" lon="0.76082">
        <ele>95.1</ele>
        <time>2016-05-15T11:07:28Z</time>
      </trkpt>
      <trkpt lat="44.41511" lon="0.76048">
        <ele>94.6</ele>
        <time>2016-05-15T11:07:39Z</time>
      </trkpt>
      <trkpt lat="44.41514" lon="0.76024">
        <ele>95</ele>
        <time>2016-05-15T12:46:42Z</time>
      </trkpt>
      <trkpt lat="44.41519" lon="0.7606">
        <ele>95.4</ele>
        <time>2016-05-15T12:46:57Z</time>
      </trkpt>
      <trkpt lat="44.41517" lon="0.76093">
        <ele>94.9</ele>
        <time>2016-05-15T12:47:11Z</time>
      </trkpt>
      <trkpt lat="44.41516" lon="0.76104">
        <ele>94.7</ele>
        <time>2016-05-15T12:47:59Z</time>
      </trkpt>
      <trkpt lat="44.41513" lon="0.76187">
        <ele>93.5</ele>
        <time>2016-05-15T12:49:19Z</time>
      </trkpt>
      <trkpt lat="44.41478" lon="0.7618">
        <ele>90.3</ele>
        <time>2016-05-15T12:49:29Z</time>
      </trkpt>
      <trkpt lat="44.41477" lon="0.76181">
        <ele>90.1</ele>
        <time>2016-05-15T12:49:30Z</time>
      </trkpt>
      <trkpt lat="44.41474" lon="0.76223">
        <ele>89.5</ele>
        <time>2016-05-15T12:49:40Z</time>
      </trkpt>
      <trkpt lat="44.41479" lon="0.76519">
        <ele>87.6</ele>
        <time>2016-05-15T12:50:17Z</time>
      </trkpt>
      <trkpt lat="44.41482" lon="0.76766">
        <ele>85.9</ele>
        <time>2016-05-15T12:50:47Z</time>
      </trkpt>
      <trkpt lat="44.41493" lon="0.77164">
        <ele>88.8</ele>
        <time>2016-05-15T12:51:47Z</time>
      </trkpt>
      <trkpt lat="44.41494" lon="0.77305">
        <ele>86.7</ele>
        <time>2016-05-15T12:52:05Z</time>
      </trkpt>
      <trkpt lat="44.41497" lon="0.77424">
        <ele>85.7</ele>
        <time>2016-05-15T12:52:20Z</time>
      </trkpt>
      <trkpt lat="44.41497" lon="0.77491">
        <ele>84.3</ele>
        <time>2016-05-15T12:52:28Z</time>
      </trkpt>
      <trkpt lat="44.41469" lon="0.7807">
        <ele>85.8</ele>
        <time>2016-05-15T12:53:43Z</time>
      </trkpt>
      <trkpt lat="44.41442" lon="0.78164">
        <ele>84.6</ele>
        <time>2016-05-15T12:53:55Z</time>
      </trkpt>
      <trkpt lat="44.41373" lon="0.78294">
        <ele>81</ele>
        <time>2016-05-15T12:54:13Z</time>
      </trkpt>
      <trkpt lat="44.4135" lon="0.78324">
        <ele>80.8</ele>
        <time>2016-05-15T12:54:18Z</time>
      </trkpt>
      <trkpt lat="44.4118" lon="0.78485">
        <ele>79.9</ele>
        <time>2016-05-15T12:54:48Z</time>
      </trkpt>
      <trkpt lat="44.41167" lon="0.78518">
        <ele>79.3</ele>
        <time>2016-05-15T12:54:54Z</time>
      </trkpt>
      <trkpt lat="44.41163" lon="0.78733">
        <ele>78.5</ele>
        <time>2016-05-15T12:55:23Z</time>
      </trkpt>
      <trkpt lat="44.41159" lon="0.78828">
        <ele>79.6</ele>
        <time>2016-05-15T12:55:37Z</time>
      </trkpt>
      <trkpt lat="44.41143" lon="0.7896">
        <ele>78.9</ele>
        <time>2016-05-15T12:55:56Z</time>
      </trkpt>
      <trkpt lat="44.41144" lon="0.79099">
        <ele>80.5</ele>
        <time>2016-05-15T12:56:15Z</time>
      </trkpt>
      <trkpt lat="44.41167" lon="0.79246">
        <ele>81</ele>
        <time>2016-05-15T12:56:36Z</time>
      </trkpt>
      <trkpt lat="44.41166" lon="0.79355">
        <ele>82.1</ele>
        <time>2016-05-15T12:57:01Z</time>
      </trkpt>
      <trkpt lat="44.41169" lon="0.79387">
        <ele>82.9</ele>
        <time>2016-05-15T12:57:09Z</time>
      </trkpt>
      <trkpt lat="44.41146" lon="0.79883">
        <ele>83.6</ele>
        <time>2016-05-15T12:58:36Z</time>
      </trkpt>
      <trkpt lat="44.41149" lon="0.80017">
        <ele>84.7</ele>
        <time>2016-05-15T12:58:55Z</time>
      </trkpt>
      <trkpt lat="44.41151" lon="0.80197">
        <ele>85</ele>
        <time>2016-05-15T12:59:23Z</time>
      </trkpt>
      <trkpt lat="44.41144" lon="0.80253">
        <ele>86.1</ele>
        <time>2016-05-15T12:59:32Z</time>
      </trkpt>
      <trkpt lat="44.41137" lon="0.80306">
        <ele>87.2</ele>
        <time>2016-05-15T12:59:40Z</time>
      </trkpt>
      <trkpt lat="44.41136" lon="0.80312">
        <ele>87.3</ele>
        <time>2016-05-15T12:59:41Z</time>
      </trkpt>
      <trkpt lat="44.41141" lon="0.80399">
        <ele>90.3</ele>
        <time>2016-05-15T12:59:54Z</time>
      </trkpt>
      <trkpt lat="44.41145" lon="0.8044">
        <ele>92.8</ele>
        <time>2016-05-15T13:00:01Z</time>
      </trkpt>
      <trkpt lat="44.41146" lon="0.80446">
        <ele>93.1</ele>
        <time>2016-05-15T13:00:02Z</time>
      </trkpt>
      <trkpt lat="44.41164" lon="0.80589">
        <ele>92.8</ele>
        <time>2016-05-15T13:00:24Z</time>
      </trkpt>
      <trkpt lat="44.41172" lon="0.80665">
        <ele>88.6</ele>
        <time>2016-05-15T13:00:35Z</time>
      </trkpt>
      <trkpt lat="44.41173" lon="0.80673">
        <ele>88.3</ele>
        <time>2016-05-15T13:00:36Z</time>
      </trkpt>
      <trkpt lat="44.41183" lon="0.80744">
        <ele>86.9</ele>
        <time>2016-05-15T13:00:46Z</time>
      </trkpt>
      <trkpt lat="44.41184" lon="0.80793">
        <ele>86.9</ele>
        <time>2016-05-15T13:00:53Z</time>
      </trkpt>
      <trkpt lat="44.4118" lon="0.80843">
        <ele>87.5</ele>
        <time>2016-05-15T13:01:00Z</time>
      </trkpt>
      <trkpt lat="44.4117" lon="0.80963">
        <ele>86</ele>
        <time>2016-05-15T13:01:14Z</time>
      </trkpt>
      <trkpt lat="44.41156" lon="0.81028">
        <ele>83.5</ele>
        <time>2016-05-15T13:01:20Z</time>
      </trkpt>
      <trkpt lat="44.41148" lon="0.8106">
        <ele>83</ele>
        <time>2016-05-15T13:01:23Z</time>
      </trkpt>
      <trkpt lat="44.41145" lon="0.8108">
        <ele>83.1</ele>
        <time>2016-05-15T13:01:26Z</time>
      </trkpt>
      <trkpt lat="44.41127" lon="0.81092">
        <ele>82.7</ele>
        <time>2016-05-15T13:01:33Z</time>
      </trkpt>
      <trkpt lat="44.41066" lon="0.81105">
        <ele>80.4</ele>
        <time>2016-05-15T13:01:46Z</time>
      </trkpt>
      <trkpt lat="44.41032" lon="0.81104">
        <ele>79.5</ele>
        <time>2016-05-15T13:01:52Z</time>
      </trkpt>
      <trkpt lat="44.40827" lon="0.81094">
        <ele>77.3</ele>
        <time>2016-05-15T13:02:26Z</time>
      </trkpt>
      <trkpt lat="44.40481" lon="0.81043">
        <ele>73.5</ele>
        <time>2016-05-15T13:03:20Z</time>
      </trkpt>
      <trkpt lat="44.40454" lon="0.81037">
        <ele>73</ele>
        <time>2016-05-15T13:03:24Z</time>
      </trkpt>
      <trkpt lat="44.4042" lon="0.81032">
        <ele>73</ele>
        <time>2016-05-15T13:03:29Z</time>
      </trkpt>
      <trkpt lat="44.40311" lon="0.81017">
        <ele>71.2</ele>
        <time>2016-05-15T13:03:45Z</time>
      </trkpt>
      <trkpt lat="44.40298" lon="0.81015">
        <ele>70.9</ele>
        <time>2016-05-15T13:03:47Z</time>
      </trkpt>
      <trkpt lat="44.4022" lon="0.80979">
        <ele>68.7</ele>
        <time>2016-05-15T13:03:59Z</time>
      </trkpt>
      <trkpt lat="44.40169" lon="0.80946">
        <ele>68.9</ele>
        <time>2016-05-15T13:04:07Z</time>
      </trkpt>
      <trkpt lat="44.40149" lon="0.80909">
        <ele>68.2</ele>
        <time>2016-05-15T13:04:14Z</time>
      </trkpt>
      <trkpt lat="44.40146" lon="0.80895">
        <ele>67.9</ele>
        <time>2016-05-15T13:04:16Z</time>
      </trkpt>
      <trkpt lat="44.40141" lon="0.80841">
        <ele>67.5</ele>
        <time>2016-05-15T13:04:23Z</time>
      </trkpt>
      <trkpt lat="44.40125" lon="0.80725">
        <ele>67</ele>
        <time>2016-05-15T13:04:39Z</time>
      </trkpt>
      <trkpt lat="44.40088" lon="0.80622">
        <ele>67.9</ele>
        <time>2016-05-15T13:04:55Z</time>
      </trkpt>
      <trkpt lat="44.40035" lon="0.80481">
        <ele>67.9</ele>
        <time>2016-05-15T13:05:21Z</time>
      </trkpt>
      <trkpt lat="44.4004" lon="0.80472">
        <ele>68</ele>
        <time>2016-05-15T13:05:31Z</time>
      </trkpt>
      <trkpt lat="44.40082" lon="0.80475">
        <ele>68.5</ele>
        <time>2016-05-15T13:05:59Z</time>
      </trkpt>
      <trkpt lat="44.40071" lon="0.80475">
        <ele>68.3</ele>
        <time>2016-05-15T13:06:05Z</time>
      </trkpt>
      <trkpt lat="44.40018" lon="0.80473">
        <ele>67.5</ele>
        <time>2016-05-15T13:06:23Z</time>
      </trkpt>
      <trkpt lat="44.39865" lon="0.80467">
        <ele>66.1</ele>
        <time>2016-05-15T13:06:53Z</time>
      </trkpt>
      <trkpt lat="44.39844" lon="0.8047">
        <ele>66.3</ele>
        <time>2016-05-15T13:06:57Z</time>
      </trkpt>
      <trkpt lat="44.39834" lon="0.8047">
        <ele>66.4</ele>
        <time>2016-05-15T13:06:59Z</time>
      </trkpt>
      <trkpt lat="44.39732" lon="0.80475">
        <ele>65.2</ele>
        <time>2016-05-15T13:07:31Z</time>
      </trkpt>
      <trkpt lat="44.39726" lon="0.80528">
        <ele>63.9</ele>
        <time>2016-05-15T13:07:43Z</time>
      </trkpt>
      <trkpt lat="44.39715" lon="0.80703">
        <ele>62.5</ele>
        <time>2016-05-15T13:08:13Z</time>
      </trkpt>
      <trkpt lat="44.39693" lon="0.80706">
        <ele>61.4</ele>
        <time>2016-05-15T13:08:18Z</time>
      </trkpt>
      <trkpt lat="44.39589" lon="0.80708">
        <ele>57.7</ele>
        <time>2016-05-15T13:08:33Z</time>
      </trkpt>
      <trkpt lat="44.39581" lon="0.80708">
        <ele>57.4</ele>
        <time>2016-05-15T13:08:34Z</time>
      </trkpt>
      <trkpt lat="44.39519" lon="0.8071">
        <ele>56</ele>
        <time>2016-05-15T13:08:42Z</time>
      </trkpt>
      <trkpt lat="44.39421" lon="0.80709">
        <ele>58.2</ele>
        <time>2016-05-15T13:09:08Z</time>
      </trkpt>
      <trkpt lat="44.39403" lon="0.80709">
        <ele>59.3</ele>
        <time>2016-05-15T13:09:14Z</time>
      </trkpt>
      <trkpt lat="44.39391" lon="0.80705">
        <ele>60</ele>
        <time>2016-05-15T13:09:19Z</time>
      </trkpt>
      <trkpt lat="44.39373" lon="0.8078">
        <ele>61.9</ele>
        <time>2016-05-15T13:09:41Z</time>
      </trkpt>
      <trkpt lat="44.39361" lon="0.80828">
        <ele>63.2</ele>
        <time>2016-05-15T13:09:55Z</time>
      </trkpt>
      <trkpt lat="44.3934" lon="0.80848">
        <ele>64.6</ele>
        <time>2016-05-15T13:11:51Z</time>
      </trkpt>
      <trkpt lat="44.39278" lon="0.80874">
        <ele>69.6</ele>
        <time>2016-05-15T13:12:15Z</time>
      </trkpt>
      <trkpt lat="44.39249" lon="0.80895">
        <ele>72.8</ele>
        <time>2016-05-15T13:12:26Z</time>
      </trkpt>
      <trkpt lat="44.39209" lon="0.8091">
        <ele>76.6</ele>
        <time>2016-05-15T13:12:39Z</time>
      </trkpt>
      <trkpt lat="44.39198" lon="0.80914">
        <ele>77.3</ele>
        <time>2016-05-15T13:12:42Z</time>
      </trkpt>
      <trkpt lat="44.3915" lon="0.80937">
        <ele>80.3</ele>
        <time>2016-05-15T13:12:59Z</time>
      </trkpt>
      <trkpt lat="44.39139" lon="0.80943">
        <ele>81.1</ele>
        <time>2016-05-15T13:13:04Z</time>
      </trkpt>
      <trkpt lat="44.39113" lon="0.80954">
        <ele>83.4</ele>
        <time>2016-05-15T13:13:15Z</time>
      </trkpt>
      <trkpt lat="44.39099" lon="0.80962">
        <ele>85.4</ele>
        <time>2016-05-15T13:13:22Z</time>
      </trkpt>
      <trkpt lat="44.39083" lon="0.80972">
        <ele>87.7</ele>
        <time>2016-05-15T13:13:30Z</time>
      </trkpt>
      <trkpt lat="44.39059" lon="0.8098">
        <ele>90.9</ele>
        <time>2016-05-15T13:13:42Z</time>
      </trkpt>
      <trkpt lat="44.39009" lon="0.80974">
        <ele>94.3</ele>
        <time>2016-05-15T13:14:05Z</time>
      </trkpt>
      <trkpt lat="44.38931" lon="0.80995">
        <ele>93.1</ele>
        <time>2016-05-15T13:14:44Z</time>
      </trkpt>
      <trkpt lat="44.3893" lon="0.80996">
        <ele>93</ele>
        <time>2016-05-15T13:14:45Z</time>
      </trkpt>
      <trkpt lat="44.38932" lon="0.8104">
        <ele>94</ele>
        <time>2016-05-15T13:16:19Z</time>
      </trkpt>
      <trkpt lat="44.38933" lon="0.81053">
        <ele>95</ele>
        <time>2016-05-15T13:16:23Z</time>
      </trkpt>
      <trkpt lat="44.38944" lon="0.81082">
        <ele>98.6</ele>
        <time>2016-05-15T13:16:29Z</time>
      </trkpt>
      <trkpt lat="44.38961" lon="0.8111">
        <ele>102.1</ele>
        <time>2016-05-15T13:16:36Z</time>
      </trkpt>
      <trkpt lat="44.3897" lon="0.81115">
        <ele>102.4</ele>
        <time>2016-05-15T13:16:39Z</time>
      </trkpt>
      <trkpt lat="44.39049" lon="0.81134">
        <ele>104.8</ele>
        <time>2016-05-15T13:17:14Z</time>
      </trkpt>
      <trkpt lat="44.39071" lon="0.81156">
        <ele>108.3</ele>
        <time>2016-05-15T13:17:25Z</time>
      </trkpt>
      <trkpt lat="44.39072" lon="0.81158">
        <ele>108.7</ele>
        <time>2016-05-15T13:17:26Z</time>
      </trkpt>
      <trkpt lat="44.39086" lon="0.81187">
        <ele>113.4</ele>
        <time>2016-05-15T13:17:37Z</time>
      </trkpt>
      <trkpt lat="44.39082" lon="0.81206">
        <ele>117.1</ele>
        <time>2016-05-15T13:17:44Z</time>
      </trkpt>
      <trkpt lat="44.39063" lon="0.8122">
        <ele>121.1</ele>
        <time>2016-05-15T13:17:56Z</time>
      </trkpt>
      <trkpt lat="44.39062" lon="0.8122">
        <ele>121.2</ele>
        <time>2016-05-15T13:17:57Z</time>
      </trkpt>
      <trkpt lat="44.39051" lon="0.81209">
        <ele>120.3</ele>
        <time>2016-05-15T13:18:05Z</time>
      </trkpt>
      <trkpt lat="44.39024" lon="0.81189">
        <ele>116.1</ele>
        <time>2016-05-15T13:18:25Z</time>
      </trkpt>
      <trkpt lat="44.39023" lon="0.81189">
        <ele>116</ele>
        <time>2016-05-15T13:18:26Z</time>
      </trkpt>
      <trkpt lat="44.38964" lon="0.81222">
        <ele>119.2</ele>
        <time>2016-05-15T13:19:00Z</time>
      </trkpt>
      <trkpt lat="44.3896" lon="0.81227">
        <ele>120.1</ele>
        <time>2016-05-15T13:19:03Z</time>
      </trkpt>
      <trkpt lat="44.38927" lon="0.81259">
        <ele>123.6</ele>
        <time>2016-05-15T13:19:25Z</time>
      </trkpt>
      <trkpt lat="44.38924" lon="0.81262">
        <ele>123.9</ele>
        <time>2016-05-15T13:19:27Z</time>
      </trkpt>
      <trkpt lat="44.38896" lon="0.81291">
        <ele>126.4</ele>
        <time>2016-05-15T13:19:44Z</time>
      </trkpt>
      <trkpt lat="44.38864" lon="0.81361">
        <ele>129.6</ele>
        <time>2016-05-15T13:20:07Z</time>
      </trkpt>
      <trkpt lat="44.38861" lon="0.81381">
        <ele>131.4</ele>
        <time>2016-05-15T13:20:13Z</time>
      </trkpt>
      <trkpt lat="44.38859" lon="0.8142">
        <ele>135.9</ele>
        <time>2016-05-15T13:20:25Z</time>
      </trkpt>
      <trkpt lat="44.38858" lon="0.81456">
        <ele>140.1</ele>
        <time>2016-05-15T13:20:37Z</time>
      </trkpt>
      <trkpt lat="44.38856" lon="0.81494">
        <ele>144.1</ele>
        <time>2016-05-15T13:20:50Z</time>
      </trkpt>
      <trkpt lat="44.38856" lon="0.81497">
        <ele>144.4</ele>
        <time>2016-05-15T13:20:51Z</time>
      </trkpt>
      <trkpt lat="44.38851" lon="0.81536">
        <ele>147.7</ele>
        <time>2016-05-15T13:21:04Z</time>
      </trkpt>
      <trkpt lat="44.38849" lon="0.81545">
        <ele>148</ele>
        <time>2016-05-15T13:21:07Z</time>
      </trkpt>
      <trkpt lat="44.38826" lon="0.81651">
        <ele>149.7</ele>
        <time>2016-05-15T13:21:39Z</time>
      </trkpt>
      <trkpt lat="44.38824" lon="0.81661">
        <ele>149.8</ele>
        <time>2016-05-15T13:23:43Z</time>
      </trkpt>
      <trkpt lat="44.38827" lon="0.81732">
        <ele>152.5</ele>
        <time>2016-05-15T13:24:14Z</time>
      </trkpt>
      <trkpt lat="44.38828" lon="0.81789">
        <ele>153.3</ele>
        <time>2016-05-15T13:24:34Z</time>
      </trkpt>
      <trkpt lat="44.38834" lon="0.81878">
        <ele>154.2</ele>
        <time>2016-05-15T13:25:03Z</time>
      </trkpt>
      <trkpt lat="44.38845" lon="0.81877">
        <ele>156.8</ele>
        <time>2016-05-15T13:25:10Z</time>
      </trkpt>
      <trkpt lat="44.38859" lon="0.81867">
        <ele>160.2</ele>
        <time>2016-05-15T13:25:21Z</time>
      </trkpt>
      <trkpt lat="44.38858" lon="0.81867">
        <ele>160</ele>
        <time>2016-05-15T13:25:23Z</time>
      </trkpt>
      <trkpt lat="44.38859" lon="0.81871">
        <ele>160.1</ele>
        <time>2016-05-15T13:54:54Z</time>
      </trkpt>
      <trkpt lat="44.38867" lon="0.81869">
        <ele>162.1</ele>
        <time>2016-05-15T13:55:48Z</time>
      </trkpt>
      <trkpt lat="44.38882" lon="0.81871">
        <ele>165.9</ele>
        <time>2016-05-15T13:55:57Z</time>
      </trkpt>
      <trkpt lat="44.38895" lon="0.81871">
        <ele>169.2</ele>
        <time>2016-05-15T13:56:05Z</time>
      </trkpt>
      <trkpt lat="44.38909" lon="0.81866">
        <ele>172.9</ele>
        <time>2016-05-15T14:30:06Z</time>
      </trkpt>
      <trkpt lat="44.38899" lon="0.81867">
        <ele>170.1</ele>
        <time>2016-05-15T14:30:53Z</time>
      </trkpt>
      <trkpt lat="44.38882" lon="0.8187">
        <ele>165.9</ele>
        <time>2016-05-15T14:31:00Z</time>
      </trkpt>
      <trkpt lat="44.38864" lon="0.81857">
        <ele>161.5</ele>
        <time>2016-05-15T14:31:07Z</time>
      </trkpt>
      <trkpt lat="44.38864" lon="0.81854">
        <ele>161.3</ele>
        <time>2016-05-15T14:31:08Z</time>
      </trkpt>
      <trkpt lat="44.38854" lon="0.8176">
        <ele>158.7</ele>
        <time>2016-05-15T14:31:28Z</time>
      </trkpt>
      <trkpt lat="44.38858" lon="0.81744">
        <ele>159.2</ele>
        <time>2016-05-15T14:31:32Z</time>
      </trkpt>
      <trkpt lat="44.38894" lon="0.81568">
        <ele>159.2</ele>
        <time>2016-05-15T14:32:26Z</time>
      </trkpt>
      <trkpt lat="44.38915" lon="0.81503">
        <ele>155.9</ele>
        <time>2016-05-15T14:32:41Z</time>
      </trkpt>
      <trkpt lat="44.38949" lon="0.81496">
        <ele>160.5</ele>
        <time>2016-05-15T14:32:52Z</time>
      </trkpt>
      <trkpt lat="44.3897" lon="0.81527">
        <ele>165.3</ele>
        <time>2016-05-15T14:33:02Z</time>
      </trkpt>
      <trkpt lat="44.3898" lon="0.81572">
        <ele>171.7</ele>
        <time>2016-05-15T14:33:12Z</time>
      </trkpt>
      <trkpt lat="44.38986" lon="0.81594">
        <ele>175.1</ele>
        <time>2016-05-15T14:33:17Z</time>
      </trkpt>
      <trkpt lat="44.38995" lon="0.81636">
        <ele>181.1</ele>
        <time>2016-05-15T14:33:26Z</time>
      </trkpt>
      <trkpt lat="44.39005" lon="0.81676">
        <ele>185.4</ele>
        <time>2016-05-15T14:33:34Z</time>
      </trkpt>
      <trkpt lat="44.39014" lon="0.81715">
        <ele>189.2</ele>
        <time>2016-05-15T14:33:41Z</time>
      </trkpt>
      <trkpt lat="44.39022" lon="0.81751">
        <ele>190.1</ele>
        <time>2016-05-15T14:33:48Z</time>
      </trkpt>
      <trkpt lat="44.39027" lon="0.81767">
        <ele>190.7</ele>
        <time>2016-05-15T14:33:51Z</time>
      </trkpt>
      <trkpt lat="44.39031" lon="0.81825">
        <ele>191.8</ele>
        <time>2016-05-15T14:34:01Z</time>
      </trkpt>
      <trkpt lat="44.39026" lon="0.81852">
        <ele>191.5</ele>
        <time>2016-05-15T14:34:07Z</time>
      </trkpt>
      <trkpt lat="44.39014" lon="0.81909">
        <ele>187.9</ele>
        <time>2016-05-15T14:34:19Z</time>
      </trkpt>
      <trkpt lat="44.39008" lon="0.81943">
        <ele>184.9</ele>
        <time>2016-05-15T14:34:26Z</time>
      </trkpt>
      <trkpt lat="44.39015" lon="0.82002">
        <ele>180.8</ele>
        <time>2016-05-15T14:34:40Z</time>
      </trkpt>
      <trkpt lat="44.39017" lon="0.8204">
        <ele>178.1</ele>
        <time>2016-05-15T14:34:50Z</time>
      </trkpt>
      <trkpt lat="44.39017" lon="0.82057">
        <ele>177.9</ele>
        <time>2016-05-15T14:34:57Z</time>
      </trkpt>
      <trkpt lat="44.3902" lon="0.82067">
        <ele>178.8</ele>
        <time>2016-05-15T14:35:02Z</time>
      </trkpt>
      <trkpt lat="44.39028" lon="0.82085">
        <ele>180.6</ele>
        <time>2016-05-15T14:35:10Z</time>
      </trkpt>
      <trkpt lat="44.39038" lon="0.82102">
        <ele>183.3</ele>
        <time>2016-05-15T14:36:52Z</time>
      </trkpt>
      <trkpt lat="44.39043" lon="0.82109">
        <ele>184.3</ele>
        <time>2016-05-15T14:37:18Z</time>
      </trkpt>
      <trkpt lat="44.39063" lon="0.82131">
        <ele>182.4</ele>
        <time>2016-05-15T14:37:23Z</time>
      </trkpt>
      <trkpt lat="44.39124" lon="0.82218">
        <ele>185.6</ele>
        <time>2016-05-15T14:37:32Z</time>
      </trkpt>
      <trkpt lat="44.39131" lon="0.8223">
        <ele>185.4</ele>
        <time>2016-05-15T14:37:33Z</time>
      </trkpt>
      <trkpt lat="44.39169" lon="0.82297">
        <ele>181.8</ele>
        <time>2016-05-15T14:37:38Z</time>
      </trkpt>
      <trkpt lat="44.39185" lon="0.82324">
        <ele>178.1</ele>
        <time>2016-05-15T14:37:40Z</time>
      </trkpt>
      <trkpt lat="44.39205" lon="0.82348">
        <ele>172.5</ele>
        <time>2016-05-15T14:37:42Z</time>
      </trkpt>
      <trkpt lat="44.39229" lon="0.8237">
        <ele>167.5</ele>
        <time>2016-05-15T14:37:44Z</time>
      </trkpt>
      <trkpt lat="44.39252" lon="0.82394">
        <ele>163.7</ele>
        <time>2016-05-15T14:37:46Z</time>
      </trkpt>
      <trkpt lat="44.39273" lon="0.82416">
        <ele>159.4</ele>
        <time>2016-05-15T14:37:48Z</time>
      </trkpt>
      <trkpt lat="44.39283" lon="0.82429">
        <ele>157.2</ele>
        <time>2016-05-15T14:37:49Z</time>
      </trkpt>
      <trkpt lat="44.39307" lon="0.82473">
        <ele>153.9</ele>
        <time>2016-05-15T14:37:52Z</time>
      </trkpt>
      <trkpt lat="44.39341" lon="0.82523">
        <ele>150.3</ele>
        <time>2016-05-15T14:37:56Z</time>
      </trkpt>
      <trkpt lat="44.39359" lon="0.82582">
        <ele>150.7</ele>
        <time>2016-05-15T14:38:00Z</time>
      </trkpt>
      <trkpt lat="44.39364" lon="0.82632">
        <ele>152.4</ele>
        <time>2016-05-15T14:38:03Z</time>
      </trkpt>
      <trkpt lat="44.39372" lon="0.82665">
        <ele>149</ele>
        <time>2016-05-15T14:38:05Z</time>
      </trkpt>
      <trkpt lat="44.39382" lon="0.82699">
        <ele>144.7</ele>
        <time>2016-05-15T14:38:07Z</time>
      </trkpt>
      <trkpt lat="44.39396" lon="0.82732">
        <ele>140.9</ele>
        <time>2016-05-15T14:38:09Z</time>
      </trkpt>
      <trkpt lat="44.39408" lon="0.82766">
        <ele>137.8</ele>
        <time>2016-05-15T14:38:11Z</time>
      </trkpt>
      <trkpt lat="44.3942" lon="0.82799">
        <ele>134.7</ele>
        <time>2016-05-15T14:38:13Z</time>
      </trkpt>
      <trkpt lat="44.39434" lon="0.82831">
        <ele>130.8</ele>
        <time>2016-05-15T14:38:15Z</time>
      </trkpt>
      <trkpt lat="44.39452" lon="0.8286">
        <ele>125.3</ele>
        <time>2016-05-15T14:38:17Z</time>
      </trkpt>
      <trkpt lat="44.39462" lon="0.82874">
        <ele>122.3</ele>
        <time>2016-05-15T14:38:18Z</time>
      </trkpt>
      <trkpt lat="44.39486" lon="0.82898">
        <ele>118.8</ele>
        <time>2016-05-15T14:38:20Z</time>
      </trkpt>
      <trkpt lat="44.39499" lon="0.82909">
        <ele>116.8</ele>
        <time>2016-05-15T14:38:21Z</time>
      </trkpt>
      <trkpt lat="44.39526" lon="0.82928">
        <ele>112.9</ele>
        <time>2016-05-15T14:38:23Z</time>
      </trkpt>
      <trkpt lat="44.39551" lon="0.8295">
        <ele>109.8</ele>
        <time>2016-05-15T14:38:25Z</time>
      </trkpt>
      <trkpt lat="44.39588" lon="0.82979">
        <ele>105.8</ele>
        <time>2016-05-15T14:38:28Z</time>
      </trkpt>
      <trkpt lat="44.39613" lon="0.83">
        <ele>102.7</ele>
        <time>2016-05-15T14:38:30Z</time>
      </trkpt>
      <trkpt lat="44.3964" lon="0.83022">
        <ele>98.3</ele>
        <time>2016-05-15T14:38:32Z</time>
      </trkpt>
      <trkpt lat="44.39669" lon="0.83046">
        <ele>92.7</ele>
        <time>2016-05-15T14:38:34Z</time>
      </trkpt>
      <trkpt lat="44.39684" lon="0.83057">
        <ele>89.2</ele>
        <time>2016-05-15T14:38:35Z</time>
      </trkpt>
      <trkpt lat="44.39701" lon="0.8307">
        <ele>85.4</ele>
        <time>2016-05-15T14:38:36Z</time>
      </trkpt>
      <trkpt lat="44.39719" lon="0.83083">
        <ele>82.1</ele>
        <time>2016-05-15T14:38:37Z</time>
      </trkpt>
      <trkpt lat="44.39737" lon="0.83096">
        <ele>79.1</ele>
        <time>2016-05-15T14:38:38Z</time>
      </trkpt>
      <trkpt lat="44.39771" lon="0.83119">
        <ele>73.6</ele>
        <time>2016-05-15T14:38:40Z</time>
      </trkpt>
      <trkpt lat="44.39812" lon="0.83154">
        <ele>70.4</ele>
        <time>2016-05-15T14:38:43Z</time>
      </trkpt>
      <trkpt lat="44.39851" lon="0.83199">
        <ele>70.7</ele>
        <time>2016-05-15T14:38:47Z</time>
      </trkpt>
      <trkpt lat="44.39869" lon="0.83225">
        <ele>70.8</ele>
        <time>2016-05-15T14:40:14Z</time>
      </trkpt>
      <trkpt lat="44.39899" lon="0.83274">
        <ele>72.3</ele>
        <time>2016-05-15T14:40:29Z</time>
      </trkpt>
      <trkpt lat="44.40006" lon="0.83405">
        <ele>71.9</ele>
        <time>2016-05-15T14:41:00Z</time>
      </trkpt>
      <trkpt lat="44.40018" lon="0.83438">
        <ele>72.5</ele>
        <time>2016-05-15T14:41:05Z</time>
      </trkpt>
      <trkpt lat="44.40085" lon="0.83651">
        <ele>73.3</ele>
        <time>2016-05-15T14:41:35Z</time>
      </trkpt>
      <trkpt lat="44.40148" lon="0.83879">
        <ele>73.1</ele>
        <time>2016-05-15T14:42:10Z</time>
      </trkpt>
      <trkpt lat="44.40153" lon="0.83914">
        <ele>72.5</ele>
        <time>2016-05-15T14:42:15Z</time>
      </trkpt>
      <trkpt lat="44.40209" lon="0.84165">
        <ele>75.5</ele>
        <time>2016-05-15T14:42:53Z</time>
      </trkpt>
      <trkpt lat="44.40225" lon="0.8421">
        <ele>76</ele>
        <time>2016-05-15T14:43:00Z</time>
      </trkpt>
      <trkpt lat="44.40253" lon="0.84269">
        <ele>75.9</ele>
        <time>2016-05-15T14:43:09Z</time>
      </trkpt>
      <trkpt lat="44.40286" lon="0.84338">
        <ele>75.2</ele>
        <time>2016-05-15T14:43:19Z</time>
      </trkpt>
      <trkpt lat="44.40307" lon="0.84401">
        <ele>74.9</ele>
        <time>2016-05-15T14:43:27Z</time>
      </trkpt>
      <trkpt lat="44.40399" lon="0.84716">
        <ele>74.1</ele>
        <time>2016-05-15T14:44:12Z</time>
      </trkpt>
      <trkpt lat="44.40449" lon="0.84947">
        <ele>77.7</ele>
        <time>2016-05-15T14:44:48Z</time>
      </trkpt>
      <trkpt lat="44.40452" lon="0.8496">
        <ele>78</ele>
        <time>2016-05-15T14:44:50Z</time>
      </trkpt>
      <trkpt lat="44.40504" lon="0.85191">
        <ele>80.4</ele>
        <time>2016-05-15T14:45:25Z</time>
      </trkpt>
      <trkpt lat="44.40596" lon="0.85353">
        <ele>83.1</ele>
        <time>2016-05-15T14:45:57Z</time>
      </trkpt>
      <trkpt lat="44.40609" lon="0.85369">
        <ele>83.3</ele>
        <time>2016-05-15T14:46:01Z</time>
      </trkpt>
      <trkpt lat="44.40699" lon="0.85486">
        <ele>87.4</ele>
        <time>2016-05-15T14:46:31Z</time>
      </trkpt>
      <trkpt lat="44.40753" lon="0.85555">
        <ele>90.5</ele>
        <time>2016-05-15T14:46:51Z</time>
      </trkpt>
      <trkpt lat="44.4076" lon="0.85566">
        <ele>90.7</ele>
        <time>2016-05-15T14:46:54Z</time>
      </trkpt>
      <trkpt lat="44.40806" lon="0.85667">
        <ele>93.7</ele>
        <time>2016-05-15T14:47:18Z</time>
      </trkpt>
      <trkpt lat="44.40814" lon="0.8572">
        <ele>96.1</ele>
        <time>2016-05-15T14:47:28Z</time>
      </trkpt>
      <trkpt lat="44.40818" lon="0.85774">
        <ele>97.3</ele>
        <time>2016-05-15T14:47:38Z</time>
      </trkpt>
      <trkpt lat="44.40927" lon="0.85917">
        <ele>100.8</ele>
        <time>2016-05-15T14:48:23Z</time>
      </trkpt>
      <trkpt lat="44.40934" lon="0.85921">
        <ele>101.1</ele>
        <time>2016-05-15T14:48:25Z</time>
      </trkpt>
      <trkpt lat="44.41001" lon="0.85972">
        <ele>103.6</ele>
        <time>2016-05-15T14:48:47Z</time>
      </trkpt>
      <trkpt lat="44.41006" lon="0.85982">
        <ele>103.9</ele>
        <time>2016-05-15T14:48:49Z</time>
      </trkpt>
      <trkpt lat="44.41019" lon="0.86021">
        <ele>105.1</ele>
        <time>2016-05-15T14:48:56Z</time>
      </trkpt>
      <trkpt lat="44.4113" lon="0.86353">
        <ele>101.1</ele>
        <time>2016-05-15T14:49:40Z</time>
      </trkpt>
      <trkpt lat="44.41172" lon="0.86479">
        <ele>103.9</ele>
        <time>2016-05-15T14:49:59Z</time>
      </trkpt>
      <trkpt lat="44.41181" lon="0.86508">
        <ele>104.4</ele>
        <time>2016-05-15T14:50:04Z</time>
      </trkpt>
      <trkpt lat="44.41194" lon="0.86604">
        <ele>106.3</ele>
        <time>2016-05-15T14:50:21Z</time>
      </trkpt>
      <trkpt lat="44.41195" lon="0.86647">
        <ele>106.6</ele>
        <time>2016-05-15T14:50:29Z</time>
      </trkpt>
      <trkpt lat="44.41191" lon="0.8669">
        <ele>106.2</ele>
        <time>2016-05-15T14:50:38Z</time>
      </trkpt>
      <trkpt lat="44.41148" lon="0.86814">
        <ele>105.5</ele>
        <time>2016-05-15T14:50:55Z</time>
      </trkpt>
      <trkpt lat="44.41132" lon="0.86838">
        <ele>104.9</ele>
        <time>2016-05-15T14:50:58Z</time>
      </trkpt>
      <trkpt lat="44.41061" lon="0.86926">
        <ele>103.3</ele>
        <time>2016-05-15T14:51:09Z</time>
      </trkpt>
      <trkpt lat="44.41023" lon="0.86987">
        <ele>100</ele>
        <time>2016-05-15T14:51:15Z</time>
      </trkpt>
      <trkpt lat="44.41012" lon="0.87027">
        <ele>98.3</ele>
        <time>2016-05-15T14:51:18Z</time>
      </trkpt>
      <trkpt lat="44.41009" lon="0.87041">
        <ele>97.6</ele>
        <time>2016-05-15T14:51:19Z</time>
      </trkpt>
      <trkpt lat="44.41005" lon="0.871">
        <ele>94.7</ele>
        <time>2016-05-15T14:51:23Z</time>
      </trkpt>
      <trkpt lat="44.41021" lon="0.87217">
        <ele>90.9</ele>
        <time>2016-05-15T14:51:32Z</time>
      </trkpt>
      <trkpt lat="44.41031" lon="0.87265">
        <ele>91.6</ele>
        <time>2016-05-15T14:51:37Z</time>
      </trkpt>
      <trkpt lat="44.41033" lon="0.87274">
        <ele>91.7</ele>
        <time>2016-05-15T14:51:38Z</time>
      </trkpt>
      <trkpt lat="44.41056" lon="0.87386">
        <ele>95.1</ele>
        <time>2016-05-15T14:51:53Z</time>
      </trkpt>
      <trkpt lat="44.41072" lon="0.87471">
        <ele>98.5</ele>
        <time>2016-05-15T14:52:06Z</time>
      </trkpt>
      <trkpt lat="44.41073" lon="0.87479">
        <ele>98.8</ele>
        <time>2016-05-15T14:52:07Z</time>
      </trkpt>
      <trkpt lat="44.4109" lon="0.87566">
        <ele>101.8</ele>
        <time>2016-05-15T14:52:17Z</time>
      </trkpt>
      <trkpt lat="44.41104" lon="0.8763">
        <ele>103.7</ele>
        <time>2016-05-15T14:52:26Z</time>
      </trkpt>
      <trkpt lat="44.4111" lon="0.87663">
        <ele>105</ele>
        <time>2016-05-15T14:52:33Z</time>
      </trkpt>
      <trkpt lat="44.41124" lon="0.87732">
        <ele>107.3</ele>
        <time>2016-05-15T14:52:56Z</time>
      </trkpt>
      <trkpt lat="44.41132" lon="0.8783">
        <ele>107.6</ele>
        <time>2016-05-15T14:53:18Z</time>
      </trkpt>
      <trkpt lat="44.41128" lon="0.8789">
        <ele>106.9</ele>
        <time>2016-05-15T14:53:27Z</time>
      </trkpt>
      <trkpt lat="44.41121" lon="0.87978">
        <ele>102.6</ele>
        <time>2016-05-15T14:53:37Z</time>
      </trkpt>
      <trkpt lat="44.41123" lon="0.88129">
        <ele>99.2</ele>
        <time>2016-05-15T14:53:51Z</time>
      </trkpt>
      <trkpt lat="44.41132" lon="0.88201">
        <ele>99.4</ele>
        <time>2016-05-15T14:53:57Z</time>
      </trkpt>
      <trkpt lat="44.41161" lon="0.88301">
        <ele>94.9</ele>
        <time>2016-05-15T14:54:05Z</time>
      </trkpt>
      <trkpt lat="44.41198" lon="0.88385">
        <ele>92.2</ele>
        <time>2016-05-15T14:54:12Z</time>
      </trkpt>
      <trkpt lat="44.41305" lon="0.88617">
        <ele>96.6</ele>
        <time>2016-05-15T14:54:42Z</time>
      </trkpt>
      <trkpt lat="44.41307" lon="0.88621">
        <ele>96.8</ele>
        <time>2016-05-15T14:54:43Z</time>
      </trkpt>
      <trkpt lat="44.41394" lon="0.88809">
        <ele>99.1</ele>
        <time>2016-05-15T14:55:37Z</time>
      </trkpt>
      <trkpt lat="44.4144" lon="0.8891">
        <ele>102.2</ele>
        <time>2016-05-15T14:56:06Z</time>
      </trkpt>
      <trkpt lat="44.41475" lon="0.88988">
        <ele>105.8</ele>
        <time>2016-05-15T14:56:28Z</time>
      </trkpt>
      <trkpt lat="44.41506" lon="0.89049">
        <ele>108.8</ele>
        <time>2016-05-15T14:56:45Z</time>
      </trkpt>
      <trkpt lat="44.41508" lon="0.89052">
        <ele>108.9</ele>
        <time>2016-05-15T14:56:46Z</time>
      </trkpt>
      <trkpt lat="44.4156" lon="0.89144">
        <ele>110.9</ele>
        <time>2016-05-15T14:57:12Z</time>
      </trkpt>
      <trkpt lat="44.41615" lon="0.8924">
        <ele>114.3</ele>
        <time>2016-05-15T14:57:40Z</time>
      </trkpt>
      <trkpt lat="44.41617" lon="0.89243">
        <ele>114.4</ele>
        <time>2016-05-15T14:57:41Z</time>
      </trkpt>
      <trkpt lat="44.41658" lon="0.89324">
        <ele>117.3</ele>
        <time>2016-05-15T14:58:08Z</time>
      </trkpt>
      <trkpt lat="44.41634" lon="0.89371">
        <ele>117.3</ele>
        <time>2016-05-15T14:59:30Z</time>
      </trkpt>
      <trkpt lat="44.41592" lon="0.89456">
        <ele>118.7</ele>
        <time>2016-05-15T14:59:51Z</time>
      </trkpt>
      <trkpt lat="44.41561" lon="0.89557">
        <ele>119.9</ele>
        <time>2016-05-15T15:00:09Z</time>
      </trkpt>
      <trkpt lat="44.41445" lon="0.89836">
        <ele>120.5</ele>
        <time>2016-05-15T15:01:12Z</time>
      </trkpt>
      <trkpt lat="44.41421" lon="0.8988">
        <ele>119.4</ele>
        <time>2016-05-15T15:01:23Z</time>
      </trkpt>
      <trkpt lat="44.41427" lon="0.89912">
        <ele>120.6</ele>
        <time>2016-05-15T15:01:31Z</time>
      </trkpt>
      <trkpt lat="44.4143" lon="0.8992">
        <ele>121</ele>
        <time>2016-05-15T15:01:34Z</time>
      </trkpt>
      <trkpt lat="44.41431" lon="0.89939">
        <ele>121.6</ele>
        <time>2016-05-15T15:01:40Z</time>
      </trkpt>
      <trkpt lat="44.41448" lon="0.90094">
        <ele>124.9</ele>
        <time>2016-05-15T15:02:20Z</time>
      </trkpt>
      <trkpt lat="44.41451" lon="0.90101">
        <ele>125.2</ele>
        <time>2016-05-15T15:02:22Z</time>
      </trkpt>
      <trkpt lat="44.41477" lon="0.9016">
        <ele>128.6</ele>
        <time>2016-05-15T15:02:39Z</time>
      </trkpt>
      <trkpt lat="44.415" lon="0.9033">
        <ele>131.9</ele>
        <time>2016-05-15T15:03:20Z</time>
      </trkpt>
      <trkpt lat="44.41486" lon="0.90481">
        <ele>135</ele>
        <time>2016-05-15T15:03:54Z</time>
      </trkpt>
      <trkpt lat="44.41485" lon="0.9049">
        <ele>135.3</ele>
        <time>2016-05-15T15:03:56Z</time>
      </trkpt>
      <trkpt lat="44.41478" lon="0.90577">
        <ele>138</ele>
        <time>2016-05-15T15:04:16Z</time>
      </trkpt>
      <trkpt lat="44.41463" lon="0.90745">
        <ele>141.6</ele>
        <time>2016-05-15T15:04:53Z</time>
      </trkpt>
      <trkpt lat="44.41451" lon="0.90847">
        <ele>144.8</ele>
        <time>2016-05-15T15:05:13Z</time>
      </trkpt>
      <trkpt lat="44.41435" lon="0.90887">
        <ele>145.7</ele>
        <time>2016-05-15T15:05:21Z</time>
      </trkpt>
      <trkpt lat="44.41406" lon="0.90921">
        <ele>146.5</ele>
        <time>2016-05-15T15:05:31Z</time>
      </trkpt>
      <trkpt lat="44.41374" lon="0.90964">
        <ele>148.8</ele>
        <time>2016-05-15T15:06:31Z</time>
      </trkpt>
      <trkpt lat="44.41335" lon="0.91044">
        <ele>150.6</ele>
        <time>2016-05-15T15:06:55Z</time>
      </trkpt>
      <trkpt lat="44.41308" lon="0.9108">
        <ele>150.9</ele>
        <time>2016-05-15T15:07:00Z</time>
      </trkpt>
      <trkpt lat="44.41277" lon="0.91118">
        <ele>154</ele>
        <time>2016-05-15T15:07:05Z</time>
      </trkpt>
      <trkpt lat="44.41265" lon="0.9115">
        <ele>155</ele>
        <time>2016-05-15T15:07:08Z</time>
      </trkpt>
      <trkpt lat="44.4126" lon="0.91173">
        <ele>154.4</ele>
        <time>2016-05-15T15:07:10Z</time>
      </trkpt>
      <trkpt lat="44.41253" lon="0.91209">
        <ele>153.2</ele>
        <time>2016-05-15T15:07:13Z</time>
      </trkpt>
      <trkpt lat="44.41241" lon="0.91241">
        <ele>152.5</ele>
        <time>2016-05-15T15:07:16Z</time>
      </trkpt>
      <trkpt lat="44.41235" lon="0.91251">
        <ele>152.5</ele>
        <time>2016-05-15T15:07:17Z</time>
      </trkpt>
      <trkpt lat="44.41218" lon="0.91279">
        <ele>152.7</ele>
        <time>2016-05-15T15:07:20Z</time>
      </trkpt>
      <trkpt lat="44.41183" lon="0.91365">
        <ele>149.6</ele>
        <time>2016-05-15T15:07:28Z</time>
      </trkpt>
      <trkpt lat="44.41177" lon="0.91389">
        <ele>148.3</ele>
        <time>2016-05-15T15:07:30Z</time>
      </trkpt>
      <trkpt lat="44.41173" lon="0.91414">
        <ele>147.1</ele>
        <time>2016-05-15T15:07:32Z</time>
      </trkpt>
      <trkpt lat="44.41172" lon="0.91452">
        <ele>144.5</ele>
        <time>2016-05-15T15:07:35Z</time>
      </trkpt>
      <trkpt lat="44.41133" lon="0.91513">
        <ele>143.1</ele>
        <time>2016-05-15T15:07:42Z</time>
      </trkpt>
      <trkpt lat="44.41093" lon="0.91539">
        <ele>143.5</ele>
        <time>2016-05-15T15:07:47Z</time>
      </trkpt>
      <trkpt lat="44.41064" lon="0.91601">
        <ele>137.5</ele>
        <time>2016-05-15T15:07:53Z</time>
      </trkpt>
      <trkpt lat="44.41062" lon="0.91625">
        <ele>134.4</ele>
        <time>2016-05-15T15:07:55Z</time>
      </trkpt>
      <trkpt lat="44.41025" lon="0.91671">
        <ele>133.8</ele>
        <time>2016-05-15T15:08:01Z</time>
      </trkpt>
      <trkpt lat="44.41008" lon="0.91679">
        <ele>135.3</ele>
        <time>2016-05-15T15:08:03Z</time>
      </trkpt>
      <trkpt lat="44.40952" lon="0.91803">
        <ele>132</ele>
        <time>2016-05-15T15:08:15Z</time>
      </trkpt>
      <trkpt lat="44.40938" lon="0.91865">
        <ele>128.6</ele>
        <time>2016-05-15T15:08:20Z</time>
      </trkpt>
      <trkpt lat="44.40933" lon="0.91876">
        <ele>128.1</ele>
        <time>2016-05-15T15:08:21Z</time>
      </trkpt>
      <trkpt lat="44.40916" lon="0.91924">
        <ele>126.6</ele>
        <time>2016-05-15T15:08:25Z</time>
      </trkpt>
      <trkpt lat="44.40912" lon="0.92026">
        <ele>122</ele>
        <time>2016-05-15T15:08:33Z</time>
      </trkpt>
      <trkpt lat="44.40926" lon="0.92082">
        <ele>120.8</ele>
        <time>2016-05-15T15:08:38Z</time>
      </trkpt>
      <trkpt lat="44.40946" lon="0.92136">
        <ele>121.6</ele>
        <time>2016-05-15T15:08:44Z</time>
      </trkpt>
      <trkpt lat="44.40953" lon="0.92162">
        <ele>122.4</ele>
        <time>2016-05-15T15:08:48Z</time>
      </trkpt>
      <trkpt lat="44.40956" lon="0.92191">
        <ele>123.4</ele>
        <time>2016-05-15T15:08:56Z</time>
      </trkpt>
      <trkpt lat="44.40956" lon="0.92257">
        <ele>126.4</ele>
        <time>2016-05-15T15:10:05Z</time>
      </trkpt>
      <trkpt lat="44.40956" lon="0.92261">
        <ele>126.6</ele>
        <time>2016-05-15T15:10:06Z</time>
      </trkpt>
      <trkpt lat="44.40948" lon="0.92309">
        <ele>128.2</ele>
        <time>2016-05-15T15:10:21Z</time>
      </trkpt>
      <trkpt lat="44.40932" lon="0.92372">
        <ele>128.6</ele>
        <time>2016-05-15T15:10:33Z</time>
      </trkpt>
      <trkpt lat="44.40922" lon="0.92446">
        <ele>126.7</ele>
        <time>2016-05-15T15:10:42Z</time>
      </trkpt>
      <trkpt lat="44.40943" lon="0.92589">
        <ele>123.2</ele>
        <time>2016-05-15T15:10:57Z</time>
      </trkpt>
      <trkpt lat="44.40966" lon="0.92655">
        <ele>121.9</ele>
        <time>2016-05-15T15:11:04Z</time>
      </trkpt>
      <trkpt lat="44.4098" lon="0.927">
        <ele>121.9</ele>
        <time>2016-05-15T15:11:09Z</time>
      </trkpt>
      <trkpt lat="44.40997" lon="0.92754">
        <ele>122.8</ele>
        <time>2016-05-15T15:11:16Z</time>
      </trkpt>
      <trkpt lat="44.40985" lon="0.92843">
        <ele>127.3</ele>
        <time>2016-05-15T15:11:33Z</time>
      </trkpt>
      <trkpt lat="44.40983" lon="0.92846">
        <ele>127.7</ele>
        <time>2016-05-15T15:11:34Z</time>
      </trkpt>
      <trkpt lat="44.40951" lon="0.92887">
        <ele>131.8</ele>
        <time>2016-05-15T15:11:46Z</time>
      </trkpt>
      <trkpt lat="44.40918" lon="0.92936">
        <ele>136.1</ele>
        <time>2016-05-15T15:12:04Z</time>
      </trkpt>
      <trkpt lat="44.40898" lon="0.93012">
        <ele>139.2</ele>
        <time>2016-05-15T15:12:26Z</time>
      </trkpt>
      <trkpt lat="44.40896" lon="0.93074">
        <ele>139.6</ele>
        <time>2016-05-15T15:17:16Z</time>
      </trkpt>
      <trkpt lat="44.40911" lon="0.93138">
        <ele>139.1</ele>
        <time>2016-05-15T15:17:30Z</time>
      </trkpt>
      <trkpt lat="44.40927" lon="0.93212">
        <ele>139.3</ele>
        <time>2016-05-15T15:17:44Z</time>
      </trkpt>
      <trkpt lat="44.4091" lon="0.93273">
        <ele>142.9</ele>
        <time>2016-05-15T15:17:56Z</time>
      </trkpt>
      <trkpt lat="44.40894" lon="0.93313">
        <ele>145.5</ele>
        <time>2016-05-15T15:18:05Z</time>
      </trkpt>
      <trkpt lat="44.40891" lon="0.93339">
        <ele>146.1</ele>
        <time>2016-05-15T15:18:10Z</time>
      </trkpt>
      <trkpt lat="44.40889" lon="0.9336">
        <ele>146.5</ele>
        <time>2016-05-15T15:18:14Z</time>
      </trkpt>
      <trkpt lat="44.40887" lon="0.93402">
        <ele>146.5</ele>
        <time>2016-05-15T15:18:21Z</time>
      </trkpt>
      <trkpt lat="44.40887" lon="0.93436">
        <ele>146.1</ele>
        <time>2016-05-15T15:18:27Z</time>
      </trkpt>
      <trkpt lat="44.40875" lon="0.93606">
        <ele>144.7</ele>
        <time>2016-05-15T15:19:09Z</time>
      </trkpt>
      <trkpt lat="44.40846" lon="0.93709">
        <ele>147.7</ele>
        <time>2016-05-15T15:19:23Z</time>
      </trkpt>
      <trkpt lat="44.40841" lon="0.93726">
        <ele>148</ele>
        <time>2016-05-15T15:19:26Z</time>
      </trkpt>
      <trkpt lat="44.40815" lon="0.93813">
        <ele>149.9</ele>
        <time>2016-05-15T15:19:41Z</time>
      </trkpt>
      <trkpt lat="44.40772" lon="0.9396">
        <ele>153.3</ele>
        <time>2016-05-15T15:20:04Z</time>
      </trkpt>
      <trkpt lat="44.40739" lon="0.94078">
        <ele>156.5</ele>
        <time>2016-05-15T15:20:25Z</time>
      </trkpt>
      <trkpt lat="44.40724" lon="0.94135">
        <ele>157.7</ele>
        <time>2016-05-15T15:20:36Z</time>
      </trkpt>
      <trkpt lat="44.407" lon="0.94248">
        <ele>159.7</ele>
        <time>2016-05-15T15:21:02Z</time>
      </trkpt>
      <trkpt lat="44.40708" lon="0.9435">
        <ele>153.6</ele>
        <time>2016-05-15T15:21:17Z</time>
      </trkpt>
      <trkpt lat="44.40713" lon="0.9442">
        <ele>151.2</ele>
        <time>2016-05-15T15:21:26Z</time>
      </trkpt>
      <trkpt lat="44.40712" lon="0.94428">
        <ele>151.1</ele>
        <time>2016-05-15T15:21:27Z</time>
      </trkpt>
      <trkpt lat="44.40705" lon="0.94478">
        <ele>151.3</ele>
        <time>2016-05-15T15:21:33Z</time>
      </trkpt>
      <trkpt lat="44.40686" lon="0.94595">
        <ele>152.3</ele>
        <time>2016-05-15T15:21:50Z</time>
      </trkpt>
      <trkpt lat="44.40686" lon="0.94644">
        <ele>152.3</ele>
        <time>2016-05-15T15:21:58Z</time>
      </trkpt>
      <trkpt lat="44.40707" lon="0.94871">
        <ele>149.1</ele>
        <time>2016-05-15T15:22:27Z</time>
      </trkpt>
      <trkpt lat="44.4073" lon="0.95179">
        <ele>146.1</ele>
        <time>2016-05-15T15:22:56Z</time>
      </trkpt>
      <trkpt lat="44.40756" lon="0.95461">
        <ele>149.3</ele>
        <time>2016-05-15T15:23:47Z</time>
      </trkpt>
      <trkpt lat="44.40775" lon="0.95504">
        <ele>150.5</ele>
        <time>2016-05-15T15:24:02Z</time>
      </trkpt>
      <trkpt lat="44.40785" lon="0.95599">
        <ele>149.4</ele>
        <time>2016-05-15T15:24:50Z</time>
      </trkpt>
      <trkpt lat="44.40774" lon="0.95651">
        <ele>147.4</ele>
        <time>2016-05-15T15:24:58Z</time>
      </trkpt>
      <trkpt lat="44.40766" lon="0.95682">
        <ele>146.7</ele>
        <time>2016-05-15T15:25:02Z</time>
      </trkpt>
      <trkpt lat="44.40741" lon="0.95738">
        <ele>144.5</ele>
        <time>2016-05-15T15:25:09Z</time>
      </trkpt>
      <trkpt lat="44.40706" lon="0.95807">
        <ele>142.4</ele>
        <time>2016-05-15T15:25:17Z</time>
      </trkpt>
      <trkpt lat="44.4067" lon="0.95951">
        <ele>147.1</ele>
        <time>2016-05-15T15:25:34Z</time>
      </trkpt>
      <trkpt lat="44.40667" lon="0.95957">
        <ele>147.4</ele>
        <time>2016-05-15T15:25:35Z</time>
      </trkpt>
      <trkpt lat="44.40655" lon="0.95986">
        <ele>147.3</ele>
        <time>2016-05-15T15:25:40Z</time>
      </trkpt>
      <trkpt lat="44.40633" lon="0.96194">
        <ele>143.9</ele>
        <time>2016-05-15T15:26:07Z</time>
      </trkpt>
      <trkpt lat="44.40619" lon="0.96377">
        <ele>145.6</ele>
        <time>2016-05-15T15:26:42Z</time>
      </trkpt>
      <trkpt lat="44.4059" lon="0.96491">
        <ele>143.2</ele>
        <time>2016-05-15T15:36:13Z</time>
      </trkpt>
      <trkpt lat="44.4056" lon="0.96491">
        <ele>141.7</ele>
        <time>2016-05-15T15:36:23Z</time>
      </trkpt>
      <trkpt lat="44.40513" lon="0.96483">
        <ele>138.5</ele>
        <time>2016-05-15T15:36:31Z</time>
      </trkpt>
      <trkpt lat="44.40459" lon="0.96481">
        <ele>134.6</ele>
        <time>2016-05-15T15:36:38Z</time>
      </trkpt>
      <trkpt lat="44.40407" lon="0.96495">
        <ele>131.4</ele>
        <time>2016-05-15T15:36:44Z</time>
      </trkpt>
      <trkpt lat="44.40346" lon="0.96514">
        <ele>127.4</ele>
        <time>2016-05-15T15:36:50Z</time>
      </trkpt>
      <trkpt lat="44.40301" lon="0.96526">
        <ele>123.7</ele>
        <time>2016-05-15T15:36:54Z</time>
      </trkpt>
      <trkpt lat="44.40268" lon="0.96535">
        <ele>120.4</ele>
        <time>2016-05-15T15:36:57Z</time>
      </trkpt>
      <trkpt lat="44.40233" lon="0.96533">
        <ele>116.8</ele>
        <time>2016-05-15T15:37:00Z</time>
      </trkpt>
      <trkpt lat="44.40186" lon="0.96524">
        <ele>113.7</ele>
        <time>2016-05-15T15:37:04Z</time>
      </trkpt>
      <trkpt lat="44.40174" lon="0.96521">
        <ele>113.4</ele>
        <time>2016-05-15T15:37:05Z</time>
      </trkpt>
      <trkpt lat="44.40107" lon="0.96507">
        <ele>111.5</ele>
        <time>2016-05-15T15:37:11Z</time>
      </trkpt>
      <trkpt lat="44.39912" lon="0.96465">
        <ele>109</ele>
        <time>2016-05-15T15:37:36Z</time>
      </trkpt>
      <trkpt lat="44.39879" lon="0.96457">
        <ele>109</ele>
        <time>2016-05-15T15:37:43Z</time>
      </trkpt>
      <trkpt lat="44.39871" lon="0.96495">
        <ele>109</ele>
        <time>2016-05-15T15:37:54Z</time>
      </trkpt>
      <trkpt lat="44.39889" lon="0.96801">
        <ele>112.4</ele>
        <time>2016-05-15T15:38:41Z</time>
      </trkpt>
      <trkpt lat="44.39897" lon="0.96911">
        <ele>115.4</ele>
        <time>2016-05-15T15:38:59Z</time>
      </trkpt>
      <trkpt lat="44.39902" lon="0.96979">
        <ele>117.1</ele>
        <time>2016-05-15T15:39:11Z</time>
      </trkpt>
      <trkpt lat="44.39906" lon="0.97038">
        <ele>118.6</ele>
        <time>2016-05-15T15:39:22Z</time>
      </trkpt>
      <trkpt lat="44.39927" lon="0.97377">
        <ele>121.9</ele>
        <time>2016-05-15T15:40:13Z</time>
      </trkpt>
      <trkpt lat="44.39927" lon="0.97383">
        <ele>122</ele>
        <time>2016-05-15T15:40:14Z</time>
      </trkpt>
      <trkpt lat="44.39947" lon="0.97695">
        <ele>125.3</ele>
        <time>2016-05-15T15:41:11Z</time>
      </trkpt>
      <trkpt lat="44.39955" lon="0.97847">
        <ele>129.4</ele>
        <time>2016-05-15T15:41:43Z</time>
      </trkpt>
      <trkpt lat="44.3996" lon="0.9792">
        <ele>132.3</ele>
        <time>2016-05-15T15:42:00Z</time>
      </trkpt>
      <trkpt lat="44.39963" lon="0.97953">
        <ele>133.4</ele>
        <time>2016-05-15T15:42:05Z</time>
      </trkpt>
      <trkpt lat="44.39968" lon="0.98026">
        <ele>136.5</ele>
        <time>2016-05-15T15:42:18Z</time>
      </trkpt>
      <trkpt lat="44.39975" lon="0.98141">
        <ele>140.1</ele>
        <time>2016-05-15T15:42:44Z</time>
      </trkpt>
      <trkpt lat="44.39989" lon="0.98375">
        <ele>138.2</ele>
        <time>2016-05-15T15:43:14Z</time>
      </trkpt>
      <trkpt lat="44.39995" lon="0.9847">
        <ele>140</ele>
        <time>2016-05-15T15:43:27Z</time>
      </trkpt>
      <trkpt lat="44.40003" lon="0.98578">
        <ele>141.3</ele>
        <time>2016-05-15T15:43:42Z</time>
      </trkpt>
      <trkpt lat="44.40008" lon="0.9866">
        <ele>144.9</ele>
        <time>2016-05-15T15:43:56Z</time>
      </trkpt>
      <trkpt lat="44.40011" lon="0.98713">
        <ele>148.1</ele>
        <time>2016-05-15T15:44:07Z</time>
      </trkpt>
      <trkpt lat="44.40011" lon="0.98718">
        <ele>148.3</ele>
        <time>2016-05-15T15:44:08Z</time>
      </trkpt>
      <trkpt lat="44.40014" lon="0.9875">
        <ele>149.7</ele>
        <time>2016-05-15T15:44:15Z</time>
      </trkpt>
      <trkpt lat="44.40019" lon="0.98848">
        <ele>152.4</ele>
        <time>2016-05-15T15:44:35Z</time>
      </trkpt>
      <trkpt lat="44.40026" lon="0.98948">
        <ele>150.5</ele>
        <time>2016-05-15T15:44:55Z</time>
      </trkpt>
      <trkpt lat="44.40058" lon="0.99143">
        <ele>153.5</ele>
        <time>2016-05-15T15:45:43Z</time>
      </trkpt>
      <trkpt lat="44.4006" lon="0.99146">
        <ele>153.8</ele>
        <time>2016-05-15T15:45:44Z</time>
      </trkpt>
      <trkpt lat="44.40096" lon="0.99183">
        <ele>159.4</ele>
        <time>2016-05-15T15:46:01Z</time>
      </trkpt>
      <trkpt lat="44.40116" lon="0.99197">
        <ele>162.5</ele>
        <time>2016-05-15T15:46:09Z</time>
      </trkpt>
      <trkpt lat="44.40145" lon="0.99219">
        <ele>164.1</ele>
        <time>2016-05-15T15:46:20Z</time>
      </trkpt>
      <trkpt lat="44.40209" lon="0.99276">
        <ele>166.5</ele>
        <time>2016-05-15T15:46:49Z</time>
      </trkpt>
      <trkpt lat="44.40221" lon="0.99307">
        <ele>168.6</ele>
        <time>2016-05-15T15:46:58Z</time>
      </trkpt>
      <trkpt lat="44.40225" lon="0.99331">
        <ele>170.5</ele>
        <time>2016-05-15T15:47:05Z</time>
      </trkpt>
      <trkpt lat="44.40224" lon="0.99352">
        <ele>172.5</ele>
        <time>2016-05-15T15:47:13Z</time>
      </trkpt>
      <trkpt lat="44.40217" lon="0.99386">
        <ele>176.2</ele>
        <time>2016-05-15T15:48:16Z</time>
      </trkpt>
      <trkpt lat="44.40206" lon="0.99418">
        <ele>180.1</ele>
        <time>2016-05-15T15:48:25Z</time>
      </trkpt>
      <trkpt lat="44.40195" lon="0.99439">
        <ele>184.2</ele>
        <time>2016-05-15T15:48:32Z</time>
      </trkpt>
      <trkpt lat="44.40188" lon="0.99454">
        <ele>187.5</ele>
        <time>2016-05-15T15:48:37Z</time>
      </trkpt>
      <trkpt lat="44.40175" lon="0.9948">
        <ele>190.7</ele>
        <time>2016-05-15T15:48:46Z</time>
      </trkpt>
      <trkpt lat="44.40159" lon="0.99507">
        <ele>193.9</ele>
        <time>2016-05-15T15:48:57Z</time>
      </trkpt>
      <trkpt lat="44.40155" lon="0.99508">
        <ele>195.2</ele>
        <time>2016-05-15T15:52:11Z</time>
      </trkpt>
      <trkpt lat="44.40166" lon="0.99435">
        <ele>191.5</ele>
        <time>2016-05-15T15:52:29Z</time>
      </trkpt>
      <trkpt lat="44.4017" lon="0.99415">
        <ele>188.5</ele>
        <time>2016-05-15T15:52:34Z</time>
      </trkpt>
      <trkpt lat="44.4017" lon="0.99376">
        <ele>184.4</ele>
        <time>2016-05-15T15:52:45Z</time>
      </trkpt>
      <trkpt lat="44.40162" lon="0.99349">
        <ele>181</ele>
        <time>2016-05-15T15:52:51Z</time>
      </trkpt>
      <trkpt lat="44.40118" lon="0.99306">
        <ele>174.8</ele>
        <time>2016-05-15T15:53:11Z</time>
      </trkpt>
      <trkpt lat="44.40103" lon="0.99298">
        <ele>171.2</ele>
        <time>2016-05-15T15:53:16Z</time>
      </trkpt>
      <trkpt lat="44.40077" lon="0.99297">
        <ele>168.1</ele>
        <time>2016-05-15T15:53:24Z</time>
      </trkpt>
      <trkpt lat="44.40071" lon="0.99298">
        <ele>167.8</ele>
        <time>2016-05-15T15:53:26Z</time>
      </trkpt>
      <trkpt lat="44.40012" lon="0.99341">
        <ele>169.9</ele>
        <time>2016-05-15T15:53:48Z</time>
      </trkpt>
      <trkpt lat="44.39987" lon="0.99373">
        <ele>171.2</ele>
        <time>2016-05-15T15:53:58Z</time>
      </trkpt>
      <trkpt lat="44.3996" lon="0.99422">
        <ele>175.1</ele>
        <time>2016-05-15T15:54:12Z</time>
      </trkpt>
      <trkpt lat="44.39874" lon="0.99639">
        <ele>178.3</ele>
        <time>2016-05-15T15:55:10Z</time>
      </trkpt>
      <trkpt lat="44.39875" lon="0.99647">
        <ele>178.6</ele>
        <time>2016-05-15T15:55:12Z</time>
      </trkpt>
      <trkpt lat="44.39884" lon="0.99672">
        <ele>181.8</ele>
        <time>2016-05-15T15:55:19Z</time>
      </trkpt>
      <trkpt lat="44.39894" lon="0.99686">
        <ele>185.6</ele>
        <time>2016-05-15T15:55:24Z</time>
      </trkpt>
      <trkpt lat="44.39908" lon="0.99701">
        <ele>190.3</ele>
        <time>2016-05-15T15:55:30Z</time>
      </trkpt>
      <trkpt lat="44.39936" lon="0.99731">
        <ele>195.7</ele>
        <time>2016-05-15T15:55:42Z</time>
      </trkpt>
      <trkpt lat="44.39955" lon="0.99741">
        <ele>199.9</ele>
        <time>2016-05-15T15:55:50Z</time>
      </trkpt>
      <trkpt lat="44.39988" lon="0.99725">
        <ele>206.5</ele>
        <time>2016-05-15T15:56:06Z</time>
      </trkpt>
      <trkpt lat="44.39992" lon="0.9972">
        <ele>207.7</ele>
        <time>2016-05-15T15:56:08Z</time>
      </trkpt>
      <trkpt lat="44.40005" lon="0.99704">
        <ele>210.9</ele>
        <time>2016-05-15T15:56:16Z</time>
      </trkpt>
      <trkpt lat="44.4004" lon="0.99648">
        <ele>214.8</ele>
        <time>2016-05-15T15:56:41Z</time>
      </trkpt>
      <trkpt lat="44.40041" lon="0.99646">
        <ele>215</ele>
        <time>2016-05-15T15:56:42Z</time>
      </trkpt>
      <trkpt lat="44.40032" lon="0.99627">
        <ele>215.3</ele>
        <time>2016-05-15T15:58:15Z</time>
      </trkpt>
      <trkpt lat="44.40011" lon="0.99612">
        <ele>213.3</ele>
        <time>2016-05-15T15:58:26Z</time>
      </trkpt>
      <trkpt lat="44.40006" lon="0.99609">
        <ele>212.7</ele>
        <time>2016-05-15T15:58:29Z</time>
      </trkpt>
      <trkpt lat="44.4" lon="0.99598">
        <ele>211.2</ele>
        <time>2016-05-15T15:58:36Z</time>
      </trkpt>
      <trkpt lat="44.40003" lon="0.99579">
        <ele>210.1</ele>
        <time>2016-05-15T15:58:43Z</time>
      </trkpt>
      <trkpt lat="44.39985" lon="0.99569">
        <ele>206.5</ele>
        <time>2016-05-15T15:58:53Z</time>
      </trkpt>
      <trkpt lat="44.39984" lon="0.9957">
        <ele>206.3</ele>
        <time>2016-05-15T15:58:54Z</time>
      </trkpt>
      <trkpt lat="44.39973" lon="0.99583">
        <ele>206.4</ele>
        <time>2016-05-15T15:59:08Z</time>
      </trkpt>
      <trkpt lat="44.3997" lon="0.99588">
        <ele>206.7</ele>
        <time>2016-05-15T15:59:12Z</time>
      </trkpt>
      <trkpt lat="44.39951" lon="0.99617">
        <ele>206.9</ele>
        <time>2016-05-15T15:59:26Z</time>
      </trkpt>
      <trkpt lat="44.39984" lon="0.99587">
        <ele>208.3</ele>
        <time>2016-05-15T16:00:26Z</time>
      </trkpt>
      <trkpt lat="44.39981" lon="0.99586">
        <ele>207.8</ele>
        <time>2016-05-15T16:00:31Z</time>
      </trkpt>
      <trkpt lat="44.39999" lon="0.99598">
        <ele>211.1</ele>
        <time>2016-05-15T16:00:41Z</time>
      </trkpt>
      <trkpt lat="44.40013" lon="0.99616">
        <ele>213.7</ele>
        <time>2016-05-15T16:00:50Z</time>
      </trkpt>
      <trkpt lat="44.40016" lon="0.9962">
        <ele>214.2</ele>
        <time>2016-05-15T16:00:52Z</time>
      </trkpt>
      <trkpt lat="44.40023" lon="0.99627">
        <ele>214.8</ele>
        <time>2016-05-15T16:00:55Z</time>
      </trkpt>
      <trkpt lat="44.4004" lon="0.99622">
        <ele>215.9</ele>
        <time>2016-05-15T16:10:54Z</time>
      </trkpt>
      <trkpt lat="44.4004" lon="0.99619">
        <ele>215.8</ele>
        <time>2016-05-15T16:10:57Z</time>
      </trkpt>
      <trkpt lat="44.40045" lon="0.99585">
        <ele>214.8</ele>
        <time>2016-05-15T16:11:06Z</time>
      </trkpt>
      <trkpt lat="44.40062" lon="0.99547">
        <ele>212</ele>
        <time>2016-05-15T16:11:11Z</time>
      </trkpt>
      <trkpt lat="44.40079" lon="0.99518">
        <ele>208.6</ele>
        <time>2016-05-15T16:11:14Z</time>
      </trkpt>
      <trkpt lat="44.40085" lon="0.99508">
        <ele>207.6</ele>
        <time>2016-05-15T16:11:15Z</time>
      </trkpt>
      <trkpt lat="44.40109" lon="0.9948">
        <ele>205.8</ele>
        <time>2016-05-15T16:11:18Z</time>
      </trkpt>
      <trkpt lat="44.40123" lon="0.99461">
        <ele>205.9</ele>
        <time>2016-05-15T16:11:20Z</time>
      </trkpt>
      <trkpt lat="44.40142" lon="0.99431">
        <ele>197.4</ele>
        <time>2016-05-15T16:11:23Z</time>
      </trkpt>
      <trkpt lat="44.40151" lon="0.99409">
        <ele>192.3</ele>
        <time>2016-05-15T16:11:25Z</time>
      </trkpt>
      <trkpt lat="44.40155" lon="0.99388">
        <ele>188.9</ele>
        <time>2016-05-15T16:11:27Z</time>
      </trkpt>
      <trkpt lat="44.40155" lon="0.99366">
        <ele>185.5</ele>
        <time>2016-05-15T16:11:30Z</time>
      </trkpt>
      <trkpt lat="44.40154" lon="0.99348">
        <ele>181.9</ele>
        <time>2016-05-15T16:11:36Z</time>
      </trkpt>
      <trkpt lat="44.40158" lon="0.99346">
        <ele>181.2</ele>
        <time>2016-05-15T16:11:38Z</time>
      </trkpt>
      <trkpt lat="44.40171" lon="0.99376">
        <ele>184.3</ele>
        <time>2016-05-15T16:11:46Z</time>
      </trkpt>
      <trkpt lat="44.40171" lon="0.99425">
        <ele>189.5</ele>
        <time>2016-05-15T16:11:53Z</time>
      </trkpt>
      <trkpt lat="44.40159" lon="0.99493">
        <ele>194.5</ele>
        <time>2016-05-15T16:12:01Z</time>
      </trkpt>
      <trkpt lat="44.40159" lon="0.99514">
        <ele>193.7</ele>
        <time>2016-05-15T16:12:04Z</time>
      </trkpt>
      <trkpt lat="44.40156" lon="0.99518">
        <ele>194.3</ele>
        <time>2016-05-15T16:12:05Z</time>
      </trkpt>
      <trkpt lat="44.40139" lon="0.99551">
        <ele>197.5</ele>
        <time>2016-05-15T16:12:14Z</time>
      </trkpt>
      <trkpt lat="44.40128" lon="0.99603">
        <ele>194.2</ele>
        <time>2016-05-15T16:12:23Z</time>
      </trkpt>
      <trkpt lat="44.40127" lon="0.99632">
        <ele>190.8</ele>
        <time>2016-05-15T16:12:27Z</time>
      </trkpt>
      <trkpt lat="44.40129" lon="0.99653">
        <ele>188.5</ele>
        <time>2016-05-15T16:12:30Z</time>
      </trkpt>
      <trkpt lat="44.4013" lon="0.99671">
        <ele>186.4</ele>
        <time>2016-05-15T16:12:33Z</time>
      </trkpt>
      <trkpt lat="44.40124" lon="0.99703">
        <ele>185</ele>
        <time>2016-05-15T16:12:38Z</time>
      </trkpt>
      <trkpt lat="44.40121" lon="0.99708">
        <ele>185.5</ele>
        <time>2016-05-15T16:12:39Z</time>
      </trkpt>
      <trkpt lat="44.40112" lon="0.99746">
        <ele>183.2</ele>
        <time>2016-05-15T16:12:45Z</time>
      </trkpt>
      <trkpt lat="44.40102" lon="0.99759">
        <ele>184.5</ele>
        <time>2016-05-15T16:12:49Z</time>
      </trkpt>
      <trkpt lat="44.40065" lon="0.99813">
        <ele>186</ele>
        <time>2016-05-15T16:13:02Z</time>
      </trkpt>
      <trkpt lat="44.40042" lon="0.9985">
        <ele>182.3</ele>
        <time>2016-05-15T16:13:08Z</time>
      </trkpt>
      <trkpt lat="44.40037" lon="0.99858">
        <ele>180.1</ele>
        <time>2016-05-15T16:13:09Z</time>
      </trkpt>
      <trkpt lat="44.4003" lon="0.99874">
        <ele>175.5</ele>
        <time>2016-05-15T16:13:11Z</time>
      </trkpt>
      <trkpt lat="44.40023" lon="0.99899">
        <ele>171.6</ele>
        <time>2016-05-15T16:13:14Z</time>
      </trkpt>
      <trkpt lat="44.40019" lon="0.99925">
        <ele>167.9</ele>
        <time>2016-05-15T16:13:17Z</time>
      </trkpt>
      <trkpt lat="44.40017" lon="0.99944">
        <ele>165.1</ele>
        <time>2016-05-15T16:13:19Z</time>
      </trkpt>
      <trkpt lat="44.40008" lon="0.99976">
        <ele>161.3</ele>
        <time>2016-05-15T16:13:22Z</time>
      </trkpt>
      <trkpt lat="44.40004" lon="0.99985">
        <ele>160.2</ele>
        <time>2016-05-15T16:13:23Z</time>
      </trkpt>
      <trkpt lat="44.4" lon="0.99995">
        <ele>159.1</ele>
        <time>2016-05-15T16:13:24Z</time>
      </trkpt>
      <trkpt lat="44.39975" lon="1.00025">
        <ele>155.3</ele>
        <time>2016-05-15T16:13:28Z</time>
      </trkpt>
      <trkpt lat="44.39963" lon="1.00037">
        <ele>153.6</ele>
        <time>2016-05-15T16:13:30Z</time>
      </trkpt>
      <trkpt lat="44.3994" lon="1.00049">
        <ele>149.5</ele>
        <time>2016-05-15T16:13:33Z</time>
      </trkpt>
      <trkpt lat="44.39912" lon="1.00035">
        <ele>145.6</ele>
        <time>2016-05-15T16:13:36Z</time>
      </trkpt>
      <trkpt lat="44.39889" lon="1.00008">
        <ele>142.7</ele>
        <time>2016-05-15T16:13:39Z</time>
      </trkpt>
      <trkpt lat="44.39853" lon="0.99963">
        <ele>139.3</ele>
        <time>2016-05-15T16:13:44Z</time>
      </trkpt>
      <trkpt lat="44.39839" lon="0.99949">
        <ele>138.5</ele>
        <time>2016-05-15T16:13:46Z</time>
      </trkpt>
      <trkpt lat="44.39782" lon="0.99901">
        <ele>134.8</ele>
        <time>2016-05-15T16:13:53Z</time>
      </trkpt>
      <trkpt lat="44.39732" lon="0.99863">
        <ele>131.4</ele>
        <time>2016-05-15T16:13:59Z</time>
      </trkpt>
      <trkpt lat="44.397" lon="0.99839">
        <ele>128.3</ele>
        <time>2016-05-15T16:14:05Z</time>
      </trkpt>
      <trkpt lat="44.39687" lon="0.99828">
        <ele>127.7</ele>
        <time>2016-05-15T16:14:09Z</time>
      </trkpt>
      <trkpt lat="44.3968" lon="0.99828">
        <ele>127.4</ele>
        <time>2016-05-15T16:14:11Z</time>
      </trkpt>
      <trkpt lat="44.39553" lon="0.99971">
        <ele>125.6</ele>
        <time>2016-05-15T16:14:37Z</time>
      </trkpt>
      <trkpt lat="44.39505" lon="0.99994">
        <ele>125.7</ele>
        <time>2016-05-15T16:14:45Z</time>
      </trkpt>
      <trkpt lat="44.39467" lon="1.00013">
        <ele>125.4</ele>
        <time>2016-05-15T16:14:52Z</time>
      </trkpt>
      <trkpt lat="44.39407" lon="1.00081">
        <ele>125.8</ele>
        <time>2016-05-15T16:15:06Z</time>
      </trkpt>
      <trkpt lat="44.39385" lon="1.00116">
        <ele>126</ele>
        <time>2016-05-15T16:15:12Z</time>
      </trkpt>
      <trkpt lat="44.39378" lon="1.00126">
        <ele>126</ele>
        <time>2016-05-15T16:15:14Z</time>
      </trkpt>
      <trkpt lat="44.39306" lon="1.00236">
        <ele>127.4</ele>
        <time>2016-05-15T16:15:34Z</time>
      </trkpt>
      <trkpt lat="44.39295" lon="1.0026">
        <ele>128.2</ele>
        <time>2016-05-15T16:15:38Z</time>
      </trkpt>
      <trkpt lat="44.3929" lon="1.00323">
        <ele>129</ele>
        <time>2016-05-15T16:15:47Z</time>
      </trkpt>
      <trkpt lat="44.39289" lon="1.00426">
        <ele>130.8</ele>
        <time>2016-05-15T16:16:06Z</time>
      </trkpt>
      <trkpt lat="44.3923" lon="1.00511">
        <ele>133.8</ele>
        <time>2016-05-15T16:16:33Z</time>
      </trkpt>
      <trkpt lat="44.39115" lon="1.0065">
        <ele>136</ele>
        <time>2016-05-15T16:17:32Z</time>
      </trkpt>
      <trkpt lat="44.39108" lon="1.00657">
        <ele>135.9</ele>
        <time>2016-05-15T16:19:42Z</time>
      </trkpt>
      <trkpt lat="44.39048" lon="1.00729">
        <ele>133.4</ele>
        <time>2016-05-15T16:20:00Z</time>
      </trkpt>
      <trkpt lat="44.38977" lon="1.00819">
        <ele>132.9</ele>
        <time>2016-05-15T16:20:12Z</time>
      </trkpt>
      <trkpt lat="44.38922" lon="1.00922">
        <ele>134.6</ele>
        <time>2016-05-15T16:20:25Z</time>
      </trkpt>
      <trkpt lat="44.38911" lon="1.00942">
        <ele>134.7</ele>
        <time>2016-05-15T16:20:28Z</time>
      </trkpt>
      <trkpt lat="44.38879" lon="1.01014">
        <ele>135.2</ele>
        <time>2016-05-15T16:20:40Z</time>
      </trkpt>
      <trkpt lat="44.38865" lon="1.01042">
        <ele>135.6</ele>
        <time>2016-05-15T16:20:45Z</time>
      </trkpt>
      <trkpt lat="44.38817" lon="1.01117">
        <ele>136.6</ele>
        <time>2016-05-15T16:21:04Z</time>
      </trkpt>
      <trkpt lat="44.38798" lon="1.01139">
        <ele>135.8</ele>
        <time>2016-05-15T16:21:09Z</time>
      </trkpt>
      <trkpt lat="44.38519" lon="1.01452">
        <ele>137</ele>
        <time>2016-05-15T16:22:02Z</time>
      </trkpt>
      <trkpt lat="44.38501" lon="1.01489">
        <ele>137</ele>
        <time>2016-05-15T16:22:07Z</time>
      </trkpt>
      <trkpt lat="44.38452" lon="1.01598">
        <ele>137.3</ele>
        <time>2016-05-15T16:22:22Z</time>
      </trkpt>
      <trkpt lat="44.38385" lon="1.01668">
        <ele>136.8</ele>
        <time>2016-05-15T16:22:36Z</time>
      </trkpt>
      <trkpt lat="44.38307" lon="1.01744">
        <ele>137.4</ele>
        <time>2016-05-15T16:22:50Z</time>
      </trkpt>
      <trkpt lat="44.38285" lon="1.01791">
        <ele>138.2</ele>
        <time>2016-05-15T16:22:56Z</time>
      </trkpt>
      <trkpt lat="44.38188" lon="1.02045">
        <ele>139.3</ele>
        <time>2016-05-15T16:23:32Z</time>
      </trkpt>
      <trkpt lat="44.38186" lon="1.02051">
        <ele>139.3</ele>
        <time>2016-05-15T16:23:33Z</time>
      </trkpt>
      <trkpt lat="44.3816" lon="1.02119">
        <ele>139.4</ele>
        <time>2016-05-15T16:23:45Z</time>
      </trkpt>
      <trkpt lat="44.38135" lon="1.02184">
        <ele>140.4</ele>
        <time>2016-05-15T16:23:57Z</time>
      </trkpt>
      <trkpt lat="44.38133" lon="1.0219">
        <ele>140.5</ele>
        <time>2016-05-15T16:23:58Z</time>
      </trkpt>
      <trkpt lat="44.38121" lon="1.02229">
        <ele>141.3</ele>
        <time>2016-05-15T16:24:05Z</time>
      </trkpt>
      <trkpt lat="44.38113" lon="1.02251">
        <ele>141.7</ele>
        <time>2016-05-15T16:24:09Z</time>
      </trkpt>
      <trkpt lat="44.38106" lon="1.02277">
        <ele>142.1</ele>
        <time>2016-05-15T16:24:14Z</time>
      </trkpt>
      <trkpt lat="44.38104" lon="1.02282">
        <ele>142.2</ele>
        <time>2016-05-15T16:24:15Z</time>
      </trkpt>
      <trkpt lat="44.38091" lon="1.02311">
        <ele>142.3</ele>
        <time>2016-05-15T16:24:21Z</time>
      </trkpt>
      <trkpt lat="44.38071" lon="1.02357">
        <ele>142.1</ele>
        <time>2016-05-15T16:24:30Z</time>
      </trkpt>
      <trkpt lat="44.38066" lon="1.02367">
        <ele>142.1</ele>
        <time>2016-05-15T16:24:32Z</time>
      </trkpt>
      <trkpt lat="44.38045" lon="1.02415">
        <ele>141.5</ele>
        <time>2016-05-15T16:24:41Z</time>
      </trkpt>
      <trkpt lat="44.38031" lon="1.02449">
        <ele>141.3</ele>
        <time>2016-05-15T16:24:47Z</time>
      </trkpt>
      <trkpt lat="44.3801" lon="1.02498">
        <ele>142.2</ele>
        <time>2016-05-15T16:24:57Z</time>
      </trkpt>
      <trkpt lat="44.37995" lon="1.02543">
        <ele>143</ele>
        <time>2016-05-15T16:25:05Z</time>
      </trkpt>
      <trkpt lat="44.37984" lon="1.02577">
        <ele>143</ele>
        <time>2016-05-15T16:25:11Z</time>
      </trkpt>
      <trkpt lat="44.37976" lon="1.02607">
        <ele>143</ele>
        <time>2016-05-15T16:25:16Z</time>
      </trkpt>
      <trkpt lat="44.37897" lon="1.02886">
        <ele>145.6</ele>
        <time>2016-05-15T16:26:00Z</time>
      </trkpt>
      <trkpt lat="44.37896" lon="1.02892">
        <ele>145.6</ele>
        <time>2016-05-15T16:26:01Z</time>
      </trkpt>
      <trkpt lat="44.37872" lon="1.03048">
        <ele>147.1</ele>
        <time>2016-05-15T16:26:25Z</time>
      </trkpt>
      <trkpt lat="44.37827" lon="1.03353">
        <ele>148.8</ele>
        <time>2016-05-15T16:27:12Z</time>
      </trkpt>
      <trkpt lat="44.37811" lon="1.03466">
        <ele>149.9</ele>
        <time>2016-05-15T16:27:31Z</time>
      </trkpt>
      <trkpt lat="44.37735" lon="1.03999">
        <ele>152.5</ele>
        <time>2016-05-15T16:29:19Z</time>
      </trkpt>
      <trkpt lat="44.37728" lon="1.04048">
        <ele>152.1</ele>
        <time>2016-05-15T16:32:40Z</time>
      </trkpt>
      <trkpt lat="44.37728" lon="1.04049">
        <ele>152.1</ele>
        <time>2016-05-15T16:32:41Z</time>
      </trkpt>
      <trkpt lat="44.37718" lon="1.04119">
        <ele>153.3</ele>
        <time>2016-05-15T16:32:57Z</time>
      </trkpt>
      <trkpt lat="44.37706" lon="1.04239">
        <ele>153.7</ele>
        <time>2016-05-15T16:33:17Z</time>
      </trkpt>
      <trkpt lat="44.37716" lon="1.04407">
        <ele>157.3</ele>
        <time>2016-05-15T16:33:47Z</time>
      </trkpt>
      <trkpt lat="44.37716" lon="1.04412">
        <ele>157.3</ele>
        <time>2016-05-15T16:33:48Z</time>
      </trkpt>
      <trkpt lat="44.37722" lon="1.04499">
        <ele>158.6</ele>
        <time>2016-05-15T16:34:05Z</time>
      </trkpt>
      <trkpt lat="44.37734" lon="1.04674">
        <ele>160.9</ele>
        <time>2016-05-15T16:34:35Z</time>
      </trkpt>
      <trkpt lat="44.37746" lon="1.04947">
        <ele>163.8</ele>
        <time>2016-05-15T16:35:30Z</time>
      </trkpt>
      <trkpt lat="44.37745" lon="1.05138">
        <ele>164.1</ele>
        <time>2016-05-15T16:36:05Z</time>
      </trkpt>
      <trkpt lat="44.37755" lon="1.05242">
        <ele>165.3</ele>
        <time>2016-05-15T16:36:20Z</time>
      </trkpt>
      <trkpt lat="44.37817" lon="1.05628">
        <ele>166.8</ele>
        <time>2016-05-15T16:37:20Z</time>
      </trkpt>
      <trkpt lat="44.37814" lon="1.06036">
        <ele>169.7</ele>
        <time>2016-05-15T16:38:30Z</time>
      </trkpt>
      <trkpt lat="44.37806" lon="1.06127">
        <ele>169.6</ele>
        <time>2016-05-15T16:38:45Z</time>
      </trkpt>
      <trkpt lat="44.37806" lon="1.06174">
        <ele>169.6</ele>
        <time>2016-05-15T16:38:53Z</time>
      </trkpt>
      <trkpt lat="44.37838" lon="1.0636">
        <ele>171.5</ele>
        <time>2016-05-15T16:39:25Z</time>
      </trkpt>
      <trkpt lat="44.37857" lon="1.06399">
        <ele>172</ele>
        <time>2016-05-15T16:39:33Z</time>
      </trkpt>
      <trkpt lat="44.37877" lon="1.0647">
        <ele>171</ele>
        <time>2016-05-15T16:39:44Z</time>
      </trkpt>
      <trkpt lat="44.37898" lon="1.06553">
        <ele>171.1</ele>
        <time>2016-05-15T16:39:57Z</time>
      </trkpt>
      <trkpt lat="44.37916" lon="1.06598">
        <ele>171.6</ele>
        <time>2016-05-15T16:40:05Z</time>
      </trkpt>
      <trkpt lat="44.37956" lon="1.06779">
        <ele>174.6</ele>
        <time>2016-05-15T16:40:43Z</time>
      </trkpt>
      <trkpt lat="44.37967" lon="1.06906">
        <ele>175.3</ele>
        <time>2016-05-15T16:42:05Z</time>
      </trkpt>
      <trkpt lat="44.37967" lon="1.06919">
        <ele>175.3</ele>
        <time>2016-05-15T16:42:07Z</time>
      </trkpt>
      <trkpt lat="44.37969" lon="1.06938">
        <ele>175.5</ele>
        <time>2016-05-15T16:42:10Z</time>
      </trkpt>
      <trkpt lat="44.37973" lon="1.06978">
        <ele>176.4</ele>
        <time>2016-05-15T16:42:16Z</time>
      </trkpt>
      <trkpt lat="44.37988" lon="1.07085">
        <ele>178.7</ele>
        <time>2016-05-15T16:42:32Z</time>
      </trkpt>
      <trkpt lat="44.3799" lon="1.07115">
        <ele>178.3</ele>
        <time>2016-05-15T16:42:36Z</time>
      </trkpt>
      <trkpt lat="44.3799" lon="1.07122">
        <ele>178.1</ele>
        <time>2016-05-15T16:42:37Z</time>
      </trkpt>
      <trkpt lat="44.37985" lon="1.07185">
        <ele>177.6</ele>
        <time>2016-05-15T16:42:45Z</time>
      </trkpt>
      <trkpt lat="44.37985" lon="1.0739">
        <ele>178.9</ele>
        <time>2016-05-15T16:43:11Z</time>
      </trkpt>
      <trkpt lat="44.37976" lon="1.07488">
        <ele>179.9</ele>
        <time>2016-05-15T16:43:23Z</time>
      </trkpt>
      <trkpt lat="44.38003" lon="1.07608">
        <ele>179.5</ele>
        <time>2016-05-15T16:43:38Z</time>
      </trkpt>
      <trkpt lat="44.38069" lon="1.07799">
        <ele>181</ele>
        <time>2016-05-15T16:44:08Z</time>
      </trkpt>
      <trkpt lat="44.38073" lon="1.07824">
        <ele>181.4</ele>
        <time>2016-05-15T16:44:12Z</time>
      </trkpt>
      <trkpt lat="44.38075" lon="1.0785">
        <ele>181.5</ele>
        <time>2016-05-15T16:44:16Z</time>
      </trkpt>
      <trkpt lat="44.38081" lon="1.07976">
        <ele>182.8</ele>
        <time>2016-05-15T16:44:35Z</time>
      </trkpt>
      <trkpt lat="44.38092" lon="1.0802">
        <ele>183</ele>
        <time>2016-05-15T16:44:42Z</time>
      </trkpt>
      <trkpt lat="44.38124" lon="1.08114">
        <ele>184</ele>
        <time>2016-05-15T16:44:57Z</time>
      </trkpt>
      <trkpt lat="44.38128" lon="1.08139">
        <ele>184.1</ele>
        <time>2016-05-15T16:45:01Z</time>
      </trkpt>
      <trkpt lat="44.38145" lon="1.08247">
        <ele>185.4</ele>
        <time>2016-05-15T16:45:28Z</time>
      </trkpt>
      <trkpt lat="44.38071" lon="1.08258">
        <ele>184.2</ele>
        <time>2016-05-15T16:45:46Z</time>
      </trkpt>
      <trkpt lat="44.38033" lon="1.08254">
        <ele>185.6</ele>
        <time>2016-05-15T16:45:59Z</time>
      </trkpt>
      <trkpt lat="44.38022" lon="1.08244">
        <ele>186.4</ele>
        <time>2016-05-15T16:46:10Z</time>
      </trkpt>
      <trkpt lat="44.38007" lon="1.08233">
        <ele>187.6</ele>
        <time>2016-05-15T16:52:55Z</time>
      </trkpt>
      <trkpt lat="44.37975" lon="1.08195">
        <ele>189.4</ele>
        <time>2016-05-15T16:53:05Z</time>
      </trkpt>
      <trkpt lat="44.37894" lon="1.08098">
        <ele>194.8</ele>
        <time>2016-05-15T16:53:36Z</time>
      </trkpt>
      <trkpt lat="44.37882" lon="1.08061">
        <ele>198</ele>
        <time>2016-05-15T16:53:45Z</time>
      </trkpt>
      <trkpt lat="44.37879" lon="1.08017">
        <ele>202</ele>
        <time>2016-05-15T16:53:55Z</time>
      </trkpt>
      <trkpt lat="44.37877" lon="1.07988">
        <ele>205.2</ele>
        <time>2016-05-15T16:54:01Z</time>
      </trkpt>
      <trkpt lat="44.37877" lon="1.07944">
        <ele>207.9</ele>
        <time>2016-05-15T16:54:11Z</time>
      </trkpt>
      <trkpt lat="44.37855" lon="1.07853">
        <ele>211.1</ele>
        <time>2016-05-15T16:54:35Z</time>
      </trkpt>
      <trkpt lat="44.37854" lon="1.0785">
        <ele>211.2</ele>
        <time>2016-05-15T16:54:36Z</time>
      </trkpt>
      <trkpt lat="44.37838" lon="1.07822">
        <ele>214.4</ele>
        <time>2016-05-15T16:54:46Z</time>
      </trkpt>
      <trkpt lat="44.37818" lon="1.07785">
        <ele>217.3</ele>
        <time>2016-05-15T16:54:58Z</time>
      </trkpt>
      <trkpt lat="44.37766" lon="1.07683">
        <ele>213</ele>
        <time>2016-05-15T16:55:32Z</time>
      </trkpt>
      <trkpt lat="44.37732" lon="1.07646">
        <ele>210.3</ele>
        <time>2016-05-15T16:55:48Z</time>
      </trkpt>
      <trkpt lat="44.37699" lon="1.07631">
        <ele>210.9</ele>
        <time>2016-05-15T16:56:04Z</time>
      </trkpt>
      <trkpt lat="44.37656" lon="1.07627">
        <ele>214.9</ele>
        <time>2016-05-15T16:57:12Z</time>
      </trkpt>
      <trkpt lat="44.37654" lon="1.07627">
        <ele>215.1</ele>
        <time>2016-05-15T16:57:13Z</time>
      </trkpt>
      <trkpt lat="44.3762" lon="1.07622">
        <ele>218.9</ele>
        <time>2016-05-15T16:57:26Z</time>
      </trkpt>
      <trkpt lat="44.37618" lon="1.07622">
        <ele>219.2</ele>
        <time>2016-05-15T16:57:27Z</time>
      </trkpt>
      <trkpt lat="44.37583" lon="1.07618">
        <ele>225</ele>
        <time>2016-05-15T16:57:40Z</time>
      </trkpt>
      <trkpt lat="44.37564" lon="1.07615">
        <ele>228.4</ele>
        <time>2016-05-15T16:57:48Z</time>
      </trkpt>
      <trkpt lat="44.37545" lon="1.07612">
        <ele>231.8</ele>
        <time>2016-05-15T16:57:56Z</time>
      </trkpt>
      <trkpt lat="44.37543" lon="1.07612">
        <ele>232.1</ele>
        <time>2016-05-15T16:57:57Z</time>
      </trkpt>
      <trkpt lat="44.37529" lon="1.07611">
        <ele>236</ele>
        <time>2016-05-15T16:58:04Z</time>
      </trkpt>
      <trkpt lat="44.37518" lon="1.07611">
        <ele>239.1</ele>
        <time>2016-05-15T16:58:10Z</time>
      </trkpt>
      <trkpt lat="44.37508" lon="1.07608">
        <ele>242.2</ele>
        <time>2016-05-15T16:58:17Z</time>
      </trkpt>
      <trkpt lat="44.37497" lon="1.07606">
        <ele>245.5</ele>
        <time>2016-05-15T16:58:24Z</time>
      </trkpt>
      <trkpt lat="44.37487" lon="1.07601">
        <ele>248.6</ele>
        <time>2016-05-15T16:58:30Z</time>
      </trkpt>
      <trkpt lat="44.37481" lon="1.07575">
        <ele>252.2</ele>
        <time>2016-05-15T16:58:40Z</time>
      </trkpt>
      <trkpt lat="44.37485" lon="1.07558">
        <ele>252.4</ele>
        <time>2016-05-15T16:58:46Z</time>
      </trkpt>
      <trkpt lat="44.37511" lon="1.07513">
        <ele>250.5</ele>
        <time>2016-05-15T16:59:10Z</time>
      </trkpt>
      <trkpt lat="44.37579" lon="1.07444">
        <ele>247.5</ele>
        <time>2016-05-15T16:59:54Z</time>
      </trkpt>
      <trkpt lat="44.37588" lon="1.07437">
        <ele>246.8</ele>
        <time>2016-05-15T17:00:00Z</time>
      </trkpt>
      <trkpt lat="44.37601" lon="1.07424">
        <ele>246</ele>
        <time>2016-05-15T17:00:33Z</time>
      </trkpt>
      <trkpt lat="44.37603" lon="1.07422">
        <ele>245.8</ele>
        <time>2016-05-15T17:00:34Z</time>
      </trkpt>
      <trkpt lat="44.37619" lon="1.07409">
        <ele>244.7</ele>
        <time>2016-05-15T17:00:42Z</time>
      </trkpt>
      <trkpt lat="44.37655" lon="1.07378">
        <ele>241.9</ele>
        <time>2016-05-15T17:01:01Z</time>
      </trkpt>
      <trkpt lat="44.3766" lon="1.07372">
        <ele>241.6</ele>
        <time>2016-05-15T17:01:04Z</time>
      </trkpt>
      <trkpt lat="44.37669" lon="1.07343">
        <ele>240.5</ele>
        <time>2016-05-15T17:01:15Z</time>
      </trkpt>
      <trkpt lat="44.37661" lon="1.07283">
        <ele>242.2</ele>
        <time>2016-05-15T17:01:34Z</time>
      </trkpt>
      <trkpt lat="44.37598" lon="1.07189">
        <ele>243.7</ele>
        <time>2016-05-15T17:02:18Z</time>
      </trkpt>
      <trkpt lat="44.37566" lon="1.07185">
        <ele>243.1</ele>
        <time>2016-05-15T17:02:39Z</time>
      </trkpt>
      <trkpt lat="44.37489" lon="1.07196">
        <ele>247.3</ele>
        <time>2016-05-15T17:03:17Z</time>
      </trkpt>
      <trkpt lat="44.37474" lon="1.0721">
        <ele>250.6</ele>
        <time>2016-05-15T17:03:28Z</time>
      </trkpt>
      <trkpt lat="44.37472" lon="1.07208">
        <ele>250.5</ele>
        <time>2016-05-15T17:04:19Z</time>
      </trkpt>
      <trkpt lat="44.37434" lon="1.07234">
        <ele>254.3</ele>
        <time>2016-05-15T17:04:37Z</time>
      </trkpt>
      <trkpt lat="44.37419" lon="1.07243">
        <ele>255.6</ele>
        <time>2016-05-15T17:04:44Z</time>
      </trkpt>
      <trkpt lat="44.37396" lon="1.07255">
        <ele>257.4</ele>
        <time>2016-05-15T17:04:54Z</time>
      </trkpt>
      <trkpt lat="44.37362" lon="1.07273">
        <ele>259.6</ele>
        <time>2016-05-15T17:05:10Z</time>
      </trkpt>
      <trkpt lat="44.37217" lon="1.07312">
        <ele>260.2</ele>
        <time>2016-05-15T17:06:09Z</time>
      </trkpt>
      <trkpt lat="44.37169" lon="1.0732">
        <ele>261.2</ele>
        <time>2016-05-15T17:06:21Z</time>
      </trkpt>
      <trkpt lat="44.37157" lon="1.07323">
        <ele>261.4</ele>
        <time>2016-05-15T17:06:24Z</time>
      </trkpt>
      <trkpt lat="44.37128" lon="1.07333">
        <ele>262</ele>
        <time>2016-05-15T17:06:31Z</time>
      </trkpt>
      <trkpt lat="44.37037" lon="1.07363">
        <ele>264.8</ele>
        <time>2016-05-15T17:06:53Z</time>
      </trkpt>
      <trkpt lat="44.36968" lon="1.07382">
        <ele>264.1</ele>
        <time>2016-05-15T17:08:15Z</time>
      </trkpt>
      <trkpt lat="44.36898" lon="1.07384">
        <ele>260.9</ele>
        <time>2016-05-15T17:08:28Z</time>
      </trkpt>
      <trkpt lat="44.3686" lon="1.07386">
        <ele>259.6</ele>
        <time>2016-05-15T17:08:33Z</time>
      </trkpt>
      <trkpt lat="44.36818" lon="1.07391">
        <ele>259.4</ele>
        <time>2016-05-15T17:08:38Z</time>
      </trkpt>
      <trkpt lat="44.36776" lon="1.07421">
        <ele>257.8</ele>
        <time>2016-05-15T17:08:43Z</time>
      </trkpt>
      <trkpt lat="44.36725" lon="1.07472">
        <ele>253.8</ele>
        <time>2016-05-15T17:08:49Z</time>
      </trkpt>
      <trkpt lat="44.36715" lon="1.0748">
        <ele>253</ele>
        <time>2016-05-15T17:08:50Z</time>
      </trkpt>
      <trkpt lat="44.36685" lon="1.07498">
        <ele>249.9</ele>
        <time>2016-05-15T17:08:53Z</time>
      </trkpt>
      <trkpt lat="44.36644" lon="1.07488">
        <ele>247.1</ele>
        <time>2016-05-15T17:08:57Z</time>
      </trkpt>
      <trkpt lat="44.36579" lon="1.07448">
        <ele>244</ele>
        <time>2016-05-15T17:09:04Z</time>
      </trkpt>
      <trkpt lat="44.36553" lon="1.07432">
        <ele>242.9</ele>
        <time>2016-05-15T17:09:07Z</time>
      </trkpt>
      <trkpt lat="44.36524" lon="1.07398">
        <ele>241.6</ele>
        <time>2016-05-15T17:09:13Z</time>
      </trkpt>
      <trkpt lat="44.36514" lon="1.07432">
        <ele>240.6</ele>
        <time>2016-05-15T17:09:21Z</time>
      </trkpt>
      <trkpt lat="44.36519" lon="1.07731">
        <ele>239.4</ele>
        <time>2016-05-15T17:09:55Z</time>
      </trkpt>
      <trkpt lat="44.36484" lon="1.07808">
        <ele>238.2</ele>
        <time>2016-05-15T17:10:05Z</time>
      </trkpt>
      <trkpt lat="44.36379" lon="1.07945">
        <ele>239.8</ele>
        <time>2016-05-15T17:10:26Z</time>
      </trkpt>
      <trkpt lat="44.36345" lon="1.08076">
        <ele>242.3</ele>
        <time>2016-05-15T17:10:46Z</time>
      </trkpt>
      <trkpt lat="44.36327" lon="1.08112">
        <ele>243.1</ele>
        <time>2016-05-15T17:10:53Z</time>
      </trkpt>
      <trkpt lat="44.36301" lon="1.08165">
        <ele>243.8</ele>
        <time>2016-05-15T17:11:03Z</time>
      </trkpt>
      <trkpt lat="44.36224" lon="1.08358">
        <ele>247</ele>
        <time>2016-05-15T17:11:41Z</time>
      </trkpt>
      <trkpt lat="44.36177" lon="1.08428">
        <ele>250</ele>
        <time>2016-05-15T17:11:59Z</time>
      </trkpt>
      <trkpt lat="44.36158" lon="1.08446">
        <ele>251.7</ele>
        <time>2016-05-15T17:12:05Z</time>
      </trkpt>
      <trkpt lat="44.36143" lon="1.08457">
        <ele>252.9</ele>
        <time>2016-05-15T17:12:09Z</time>
      </trkpt>
      <trkpt lat="44.36126" lon="1.0847">
        <ele>253.8</ele>
        <time>2016-05-15T17:12:14Z</time>
      </trkpt>
      <trkpt lat="44.36119" lon="1.08473">
        <ele>254.1</ele>
        <time>2016-05-15T17:12:16Z</time>
      </trkpt>
      <trkpt lat="44.36074" lon="1.08519">
        <ele>257.5</ele>
        <time>2016-05-15T17:12:30Z</time>
      </trkpt>
      <trkpt lat="44.36071" lon="1.08524">
        <ele>257.8</ele>
        <time>2016-05-15T17:12:31Z</time>
      </trkpt>
      <trkpt lat="44.36043" lon="1.08573">
        <ele>259.7</ele>
        <time>2016-05-15T17:12:42Z</time>
      </trkpt>
      <trkpt lat="44.36008" lon="1.08637">
        <ele>260.1</ele>
        <time>2016-05-15T17:12:58Z</time>
      </trkpt>
      <trkpt lat="44.35904" lon="1.08832">
        <ele>261.5</ele>
        <time>2016-05-15T17:13:56Z</time>
      </trkpt>
      <trkpt lat="44.35886" lon="1.08876">
        <ele>262.2</ele>
        <time>2016-05-15T17:14:10Z</time>
      </trkpt>
      <trkpt lat="44.35862" lon="1.08944">
        <ele>265.2</ele>
        <time>2016-05-15T17:14:29Z</time>
      </trkpt>
      <trkpt lat="44.35857" lon="1.08958">
        <ele>265.8</ele>
        <time>2016-05-15T17:14:34Z</time>
      </trkpt>
      <trkpt lat="44.35805" lon="1.09026">
        <ele>265.4</ele>
        <time>2016-05-15T17:15:00Z</time>
      </trkpt>
      <trkpt lat="44.3577" lon="1.0906">
        <ele>265.6</ele>
        <time>2016-05-15T17:15:20Z</time>
      </trkpt>
      <trkpt lat="44.35733" lon="1.09102">
        <ele>266.6</ele>
        <time>2016-05-15T17:15:54Z</time>
      </trkpt>
      <trkpt lat="44.35717" lon="1.09127">
        <ele>267</ele>
        <time>2016-05-15T17:16:00Z</time>
      </trkpt>
      <trkpt lat="44.35698" lon="1.09206">
        <ele>266.7</ele>
        <time>2016-05-15T17:16:12Z</time>
      </trkpt>
      <trkpt lat="44.35695" lon="1.09223">
        <ele>266.3</ele>
        <time>2016-05-15T17:16:14Z</time>
      </trkpt>
      <trkpt lat="44.35682" lon="1.09269">
        <ele>265.1</ele>
        <time>2016-05-15T17:16:19Z</time>
      </trkpt>
      <trkpt lat="44.3565" lon="1.09306">
        <ele>264.6</ele>
        <time>2016-05-15T17:16:24Z</time>
      </trkpt>
      <trkpt lat="44.35588" lon="1.09361">
        <ele>263.2</ele>
        <time>2016-05-15T17:16:32Z</time>
      </trkpt>
      <trkpt lat="44.35575" lon="1.09377">
        <ele>263.1</ele>
        <time>2016-05-15T17:16:34Z</time>
      </trkpt>
      <trkpt lat="44.35563" lon="1.09464">
        <ele>259.9</ele>
        <time>2016-05-15T17:16:42Z</time>
      </trkpt>
      <trkpt lat="44.3554" lon="1.09545">
        <ele>256.8</ele>
        <time>2016-05-15T17:16:50Z</time>
      </trkpt>
      <trkpt lat="44.35526" lon="1.0956">
        <ele>256.1</ele>
        <time>2016-05-15T17:16:52Z</time>
      </trkpt>
      <trkpt lat="44.35507" lon="1.09582">
        <ele>255.2</ele>
        <time>2016-05-15T17:16:55Z</time>
      </trkpt>
      <trkpt lat="44.3547" lon="1.09631">
        <ele>254</ele>
        <time>2016-05-15T17:17:01Z</time>
      </trkpt>
      <trkpt lat="44.35457" lon="1.09716">
        <ele>250.7</ele>
        <time>2016-05-15T17:17:08Z</time>
      </trkpt>
      <trkpt lat="44.35465" lon="1.09823">
        <ele>246.9</ele>
        <time>2016-05-15T17:17:16Z</time>
      </trkpt>
      <trkpt lat="44.35466" lon="1.09835">
        <ele>246.9</ele>
        <time>2016-05-15T17:17:17Z</time>
      </trkpt>
      <trkpt lat="44.35468" lon="1.09857">
        <ele>246.8</ele>
        <time>2016-05-15T17:17:19Z</time>
      </trkpt>
      <trkpt lat="44.35507" lon="1.09915">
        <ele>245.1</ele>
        <time>2016-05-15T17:17:27Z</time>
      </trkpt>
      <trkpt lat="44.35515" lon="1.0992">
        <ele>244.7</ele>
        <time>2016-05-15T17:17:28Z</time>
      </trkpt>
      <trkpt lat="44.35541" lon="1.10034">
        <ele>240.3</ele>
        <time>2016-05-15T17:17:39Z</time>
      </trkpt>
      <trkpt lat="44.35538" lon="1.1006">
        <ele>240</ele>
        <time>2016-05-15T17:17:41Z</time>
      </trkpt>
      <trkpt lat="44.35525" lon="1.10162">
        <ele>238.4</ele>
        <time>2016-05-15T17:17:49Z</time>
      </trkpt>
      <trkpt lat="44.35498" lon="1.10256">
        <ele>237.6</ele>
        <time>2016-05-15T17:17:57Z</time>
      </trkpt>
      <trkpt lat="44.35499" lon="1.10292">
        <ele>237.1</ele>
        <time>2016-05-15T17:18:00Z</time>
      </trkpt>
      <trkpt lat="44.35503" lon="1.10359">
        <ele>237.3</ele>
        <time>2016-05-15T17:18:05Z</time>
      </trkpt>
      <trkpt lat="44.35505" lon="1.10474">
        <ele>234</ele>
        <time>2016-05-15T17:18:13Z</time>
      </trkpt>
      <trkpt lat="44.35502" lon="1.10488">
        <ele>232.9</ele>
        <time>2016-05-15T17:18:14Z</time>
      </trkpt>
      <trkpt lat="44.35499" lon="1.10501">
        <ele>231.9</ele>
        <time>2016-05-15T17:18:15Z</time>
      </trkpt>
      <trkpt lat="44.35404" lon="1.10541">
        <ele>235.3</ele>
        <time>2016-05-15T17:18:28Z</time>
      </trkpt>
      <trkpt lat="44.35374" lon="1.10571">
        <ele>237</ele>
        <time>2016-05-15T17:18:35Z</time>
      </trkpt>
      <trkpt lat="44.35378" lon="1.106">
        <ele>236.6</ele>
        <time>2016-05-15T17:18:39Z</time>
      </trkpt>
      <trkpt lat="44.35383" lon="1.1062">
        <ele>235.7</ele>
        <time>2016-05-15T17:18:41Z</time>
      </trkpt>
      <trkpt lat="44.35387" lon="1.10677">
        <ele>235</ele>
        <time>2016-05-15T17:18:45Z</time>
      </trkpt>
      <trkpt lat="44.35357" lon="1.10752">
        <ele>234.3</ele>
        <time>2016-05-15T17:18:52Z</time>
      </trkpt>
      <trkpt lat="44.35339" lon="1.10782">
        <ele>234.2</ele>
        <time>2016-05-15T17:18:55Z</time>
      </trkpt>
      <trkpt lat="44.35301" lon="1.10878">
        <ele>234.7</ele>
        <time>2016-05-15T17:19:05Z</time>
      </trkpt>
      <trkpt lat="44.35292" lon="1.10902">
        <ele>235.6</ele>
        <time>2016-05-15T17:19:11Z</time>
      </trkpt>
      <trkpt lat="44.35288" lon="1.10936">
        <ele>233.4</ele>
        <time>2016-05-15T17:19:55Z</time>
      </trkpt>
      <trkpt lat="44.3526" lon="1.11011">
        <ele>229.3</ele>
        <time>2016-05-15T17:20:07Z</time>
      </trkpt>
      <trkpt lat="44.35244" lon="1.11062">
        <ele>226.8</ele>
        <time>2016-05-15T17:20:13Z</time>
      </trkpt>
      <trkpt lat="44.35199" lon="1.11174">
        <ele>221.7</ele>
        <time>2016-05-15T17:20:25Z</time>
      </trkpt>
      <trkpt lat="44.35176" lon="1.11248">
        <ele>217</ele>
        <time>2016-05-15T17:20:32Z</time>
      </trkpt>
      <trkpt lat="44.35157" lon="1.11316">
        <ele>214.6</ele>
        <time>2016-05-15T17:20:38Z</time>
      </trkpt>
      <trkpt lat="44.35141" lon="1.11364">
        <ele>212.9</ele>
        <time>2016-05-15T17:20:42Z</time>
      </trkpt>
      <trkpt lat="44.351" lon="1.11427">
        <ele>209.8</ele>
        <time>2016-05-15T17:20:48Z</time>
      </trkpt>
      <trkpt lat="44.35058" lon="1.1147">
        <ele>206.6</ele>
        <time>2016-05-15T17:20:53Z</time>
      </trkpt>
      <trkpt lat="44.35014" lon="1.1151">
        <ele>200</ele>
        <time>2016-05-15T17:20:58Z</time>
      </trkpt>
      <trkpt lat="44.3499" lon="1.11535">
        <ele>195.5</ele>
        <time>2016-05-15T17:21:01Z</time>
      </trkpt>
      <trkpt lat="44.3497" lon="1.11566">
        <ele>191.4</ele>
        <time>2016-05-15T17:21:04Z</time>
      </trkpt>
      <trkpt lat="44.34959" lon="1.11604">
        <ele>186</ele>
        <time>2016-05-15T17:21:07Z</time>
      </trkpt>
      <trkpt lat="44.34952" lon="1.11631">
        <ele>182.1</ele>
        <time>2016-05-15T17:21:09Z</time>
      </trkpt>
      <trkpt lat="44.34942" lon="1.1167">
        <ele>179.1</ele>
        <time>2016-05-15T17:21:12Z</time>
      </trkpt>
      <trkpt lat="44.34928" lon="1.11721">
        <ele>176.1</ele>
        <time>2016-05-15T17:21:16Z</time>
      </trkpt>
      <trkpt lat="44.34907" lon="1.11803">
        <ele>174.8</ele>
        <time>2016-05-15T17:21:23Z</time>
      </trkpt>
      <trkpt lat="44.34887" lon="1.1186">
        <ele>175.8</ele>
        <time>2016-05-15T17:21:47Z</time>
      </trkpt>
      <trkpt lat="44.34887" lon="1.11863">
        <ele>175.9</ele>
        <time>2016-05-15T17:21:48Z</time>
      </trkpt>
      <trkpt lat="44.34887" lon="1.11883">
        <ele>176.4</ele>
        <time>2016-05-15T17:21:55Z</time>
      </trkpt>
      <trkpt lat="44.34871" lon="1.11893">
        <ele>176.2</ele>
        <time>2016-05-15T17:22:03Z</time>
      </trkpt>
      <trkpt lat="44.34857" lon="1.11888">
        <ele>176.2</ele>
        <time>2016-05-15T17:22:06Z</time>
      </trkpt>
      <trkpt lat="44.34717" lon="1.11944">
        <ele>178</ele>
        <time>2016-05-15T17:22:42Z</time>
      </trkpt>
      <trkpt lat="44.34633" lon="1.11939">
        <ele>181</ele>
        <time>2016-05-15T17:23:18Z</time>
      </trkpt>
      <trkpt lat="44.34615" lon="1.11944">
        <ele>182.3</ele>
        <time>2016-05-15T17:23:25Z</time>
      </trkpt>
      <trkpt lat="44.34565" lon="1.11959">
        <ele>186</ele>
        <time>2016-05-15T17:23:46Z</time>
      </trkpt>
      <trkpt lat="44.34555" lon="1.11961">
        <ele>186.8</ele>
        <time>2016-05-15T17:23:52Z</time>
      </trkpt>
      <trkpt lat="44.34518" lon="1.11963">
        <ele>189.9</ele>
        <time>2016-05-15T17:24:10Z</time>
      </trkpt>
      <trkpt lat="44.345" lon="1.11968">
        <ele>192.3</ele>
        <time>2016-05-15T17:24:19Z</time>
      </trkpt>
      <trkpt lat="44.34475" lon="1.11978">
        <ele>195.4</ele>
        <time>2016-05-15T17:24:35Z</time>
      </trkpt>
      <trkpt lat="44.34452" lon="1.11995">
        <ele>198.9</ele>
        <time>2016-05-15T17:24:48Z</time>
      </trkpt>
      <trkpt lat="44.34437" lon="1.12009">
        <ele>202.8</ele>
        <time>2016-05-15T17:24:57Z</time>
      </trkpt>
      <trkpt lat="44.34428" lon="1.12018">
        <ele>204.6</ele>
        <time>2016-05-15T17:25:03Z</time>
      </trkpt>
      <trkpt lat="44.3441" lon="1.1204">
        <ele>208.5</ele>
        <time>2016-05-15T17:25:15Z</time>
      </trkpt>
      <trkpt lat="44.34409" lon="1.12042">
        <ele>208.8</ele>
        <time>2016-05-15T17:25:16Z</time>
      </trkpt>
      <trkpt lat="44.34393" lon="1.12059">
        <ele>212.6</ele>
        <time>2016-05-15T17:25:26Z</time>
      </trkpt>
      <trkpt lat="44.34367" lon="1.12085">
        <ele>217</ele>
        <time>2016-05-15T17:25:42Z</time>
      </trkpt>
      <trkpt lat="44.34356" lon="1.121">
        <ele>219.5</ele>
        <time>2016-05-15T17:25:50Z</time>
      </trkpt>
      <trkpt lat="44.34338" lon="1.12123">
        <ele>223.3</ele>
        <time>2016-05-15T17:26:03Z</time>
      </trkpt>
      <trkpt lat="44.34336" lon="1.12125">
        <ele>223.5</ele>
        <time>2016-05-15T17:26:04Z</time>
      </trkpt>
      <trkpt lat="44.34325" lon="1.12142">
        <ele>226.1</ele>
        <time>2016-05-15T17:26:13Z</time>
      </trkpt>
      <trkpt lat="44.34314" lon="1.12155">
        <ele>228.1</ele>
        <time>2016-05-15T17:26:21Z</time>
      </trkpt>
      <trkpt lat="44.34304" lon="1.12166">
        <ele>229.6</ele>
        <time>2016-05-15T17:26:28Z</time>
      </trkpt>
      <trkpt lat="44.34197" lon="1.1226">
        <ele>231.9</ele>
        <time>2016-05-15T17:27:40Z</time>
      </trkpt>
      <trkpt lat="44.34106" lon="1.12309">
        <ele>234.9</ele>
        <time>2016-05-15T17:28:30Z</time>
      </trkpt>
      <trkpt lat="44.3404" lon="1.12331">
        <ele>238.5</ele>
        <time>2016-05-15T17:29:04Z</time>
      </trkpt>
      <trkpt lat="44.34038" lon="1.12332">
        <ele>238.6</ele>
        <time>2016-05-15T17:29:05Z</time>
      </trkpt>
      <trkpt lat="44.33946" lon="1.12376">
        <ele>242.2</ele>
        <time>2016-05-15T17:29:45Z</time>
      </trkpt>
      <trkpt lat="44.33922" lon="1.12387">
        <ele>242.5</ele>
        <time>2016-05-15T17:29:54Z</time>
      </trkpt>
      <trkpt lat="44.33894" lon="1.12398">
        <ele>242.8</ele>
        <time>2016-05-15T17:32:02Z</time>
      </trkpt>
      <trkpt lat="44.33844" lon="1.1241">
        <ele>241.6</ele>
        <time>2016-05-15T17:32:18Z</time>
      </trkpt>
      <trkpt lat="44.33803" lon="1.12416">
        <ele>239.6</ele>
        <time>2016-05-15T17:32:27Z</time>
      </trkpt>
      <trkpt lat="44.33754" lon="1.12441">
        <ele>235.3</ele>
        <time>2016-05-15T17:32:36Z</time>
      </trkpt>
      <trkpt lat="44.33715" lon="1.12469">
        <ele>231.4</ele>
        <time>2016-05-15T17:32:41Z</time>
      </trkpt>
      <trkpt lat="44.33679" lon="1.12498">
        <ele>227.9</ele>
        <time>2016-05-15T17:32:45Z</time>
      </trkpt>
      <trkpt lat="44.33656" lon="1.12526">
        <ele>226.4</ele>
        <time>2016-05-15T17:32:48Z</time>
      </trkpt>
      <trkpt lat="44.33633" lon="1.12607">
        <ele>226.9</ele>
        <time>2016-05-15T17:32:56Z</time>
      </trkpt>
      <trkpt lat="44.33626" lon="1.12621">
        <ele>227</ele>
        <time>2016-05-15T17:32:59Z</time>
      </trkpt>
      <trkpt lat="44.33602" lon="1.12595">
        <ele>227.4</ele>
        <time>2016-05-15T17:33:05Z</time>
      </trkpt>
      <trkpt lat="44.33598" lon="1.12588">
        <ele>227.5</ele>
        <time>2016-05-15T17:33:06Z</time>
      </trkpt>
      <trkpt lat="44.33531" lon="1.12573">
        <ele>231.1</ele>
        <time>2016-05-15T17:33:28Z</time>
      </trkpt>
      <trkpt lat="44.33529" lon="1.12574">
        <ele>231.2</ele>
        <time>2016-05-15T17:33:29Z</time>
      </trkpt>
      <trkpt lat="44.33457" lon="1.12597">
        <ele>234.4</ele>
        <time>2016-05-15T17:33:50Z</time>
      </trkpt>
      <trkpt lat="44.33424" lon="1.12615">
        <ele>235.2</ele>
        <time>2016-05-15T17:34:06Z</time>
      </trkpt>
      <trkpt lat="44.33387" lon="1.12606">
        <ele>236.2</ele>
        <time>2016-05-15T17:34:24Z</time>
      </trkpt>
      <trkpt lat="44.33322" lon="1.12585">
        <ele>233.5</ele>
        <time>2016-05-15T17:36:47Z</time>
      </trkpt>
      <trkpt lat="44.33304" lon="1.12558">
        <ele>231.5</ele>
        <time>2016-05-15T17:36:55Z</time>
      </trkpt>
      <trkpt lat="44.33281" lon="1.12525">
        <ele>229.9</ele>
        <time>2016-05-15T17:36:59Z</time>
      </trkpt>
      <trkpt lat="44.3326" lon="1.12495">
        <ele>230.3</ele>
        <time>2016-05-15T17:37:02Z</time>
      </trkpt>
      <trkpt lat="44.33235" lon="1.12437">
        <ele>232.1</ele>
        <time>2016-05-15T17:37:07Z</time>
      </trkpt>
      <trkpt lat="44.33225" lon="1.1241">
        <ele>233.5</ele>
        <time>2016-05-15T17:37:10Z</time>
      </trkpt>
      <trkpt lat="44.33221" lon="1.12407">
        <ele>233.9</ele>
        <time>2016-05-15T17:37:24Z</time>
      </trkpt>
      <trkpt lat="44.3323" lon="1.12429">
        <ele>232.7</ele>
        <time>2016-05-15T17:37:29Z</time>
      </trkpt>
      <trkpt lat="44.33232" lon="1.12434">
        <ele>232.4</ele>
        <time>2016-05-15T17:37:30Z</time>
      </trkpt>
      <trkpt lat="44.33247" lon="1.12462">
        <ele>231.1</ele>
        <time>2016-05-15T17:38:15Z</time>
      </trkpt>
      <trkpt lat="44.33245" lon="1.12459">
        <ele>231.2</ele>
        <time>2016-05-15T17:38:17Z</time>
      </trkpt>
      <trkpt lat="44.33215" lon="1.12386">
        <ele>235</ele>
        <time>2016-05-15T17:38:37Z</time>
      </trkpt>
      <trkpt lat="44.33203" lon="1.12358">
        <ele>236.4</ele>
        <time>2016-05-15T17:38:43Z</time>
      </trkpt>
      <trkpt lat="44.33185" lon="1.12294">
        <ele>238.2</ele>
        <time>2016-05-15T17:38:58Z</time>
      </trkpt>
      <trkpt lat="44.33152" lon="1.1214">
        <ele>233.5</ele>
        <time>2016-05-15T17:39:34Z</time>
      </trkpt>
      <trkpt lat="44.33127" lon="1.1209">
        <ele>230.4</ele>
        <time>2016-05-15T17:39:53Z</time>
      </trkpt>
      <trkpt lat="44.33068" lon="1.12007">
        <ele>228.3</ele>
        <time>2016-05-15T17:40:35Z</time>
      </trkpt>
      <trkpt lat="44.33074" lon="1.12002">
        <ele>227.8</ele>
        <time>2016-05-15T17:42:06Z</time>
      </trkpt>
      <trkpt lat="44.33077" lon="1.12003">
        <ele>227.7</ele>
        <time>2016-05-15T17:42:08Z</time>
      </trkpt>
      <trkpt lat="44.33131" lon="1.11969">
        <ele>209.4</ele>
        <time>2016-05-16T09:14:07Z</time>
      </trkpt>
      <trkpt lat="44.33127" lon="1.11971">
        <ele>208.2</ele>
        <time>2016-05-16T09:14:34Z</time>
      </trkpt>
      <trkpt lat="44.33123" lon="1.11971">
        <ele>208</ele>
        <time>2016-05-16T09:14:37Z</time>
      </trkpt>
      <trkpt lat="44.33101" lon="1.11976">
        <ele>206.2</ele>
        <time>2016-05-16T09:14:44Z</time>
      </trkpt>
      <trkpt lat="44.33097" lon="1.11977">
        <ele>206</ele>
        <time>2016-05-16T09:14:45Z</time>
      </trkpt>
      <trkpt lat="44.33101" lon="1.11956">
        <ele>202.6</ele>
        <time>2016-05-16T09:15:07Z</time>
      </trkpt>
      <trkpt lat="44.33108" lon="1.11907">
        <ele>199</ele>
        <time>2016-05-16T09:15:13Z</time>
      </trkpt>
      <trkpt lat="44.33095" lon="1.11871">
        <ele>194.8</ele>
        <time>2016-05-16T09:15:17Z</time>
      </trkpt>
      <trkpt lat="44.33085" lon="1.11856">
        <ele>192.8</ele>
        <time>2016-05-16T09:15:19Z</time>
      </trkpt>
      <trkpt lat="44.33078" lon="1.11849">
        <ele>192</ele>
        <time>2016-05-16T09:15:20Z</time>
      </trkpt>
      <trkpt lat="44.33063" lon="1.1182">
        <ele>189.6</ele>
        <time>2016-05-16T09:15:23Z</time>
      </trkpt>
      <trkpt lat="44.33054" lon="1.11798">
        <ele>187.4</ele>
        <time>2016-05-16T09:15:25Z</time>
      </trkpt>
      <trkpt lat="44.33036" lon="1.1176">
        <ele>183.8</ele>
        <time>2016-05-16T09:15:28Z</time>
      </trkpt>
      <trkpt lat="44.33023" lon="1.11732">
        <ele>180.2</ele>
        <time>2016-05-16T09:15:30Z</time>
      </trkpt>
      <trkpt lat="44.33" lon="1.11697">
        <ele>175.8</ele>
        <time>2016-05-16T09:15:33Z</time>
      </trkpt>
      <trkpt lat="44.32981" lon="1.11674">
        <ele>172.6</ele>
        <time>2016-05-16T09:15:35Z</time>
      </trkpt>
      <trkpt lat="44.32946" lon="1.11641">
        <ele>169.2</ele>
        <time>2016-05-16T09:15:38Z</time>
      </trkpt>
      <trkpt lat="44.32894" lon="1.11618">
        <ele>167.4</ele>
        <time>2016-05-16T09:15:43Z</time>
      </trkpt>
      <trkpt lat="44.32885" lon="1.11616">
        <ele>167.8</ele>
        <time>2016-05-16T09:15:44Z</time>
      </trkpt>
      <trkpt lat="44.3286" lon="1.11607">
        <ele>167.6</ele>
        <time>2016-05-16T09:15:47Z</time>
      </trkpt>
      <trkpt lat="44.32811" lon="1.11572">
        <ele>166</ele>
        <time>2016-05-16T09:15:54Z</time>
      </trkpt>
      <trkpt lat="44.32752" lon="1.11551">
        <ele>164.4</ele>
        <time>2016-05-16T09:16:02Z</time>
      </trkpt>
      <trkpt lat="44.32692" lon="1.11544">
        <ele>163</ele>
        <time>2016-05-16T09:16:10Z</time>
      </trkpt>
      <trkpt lat="44.32607" lon="1.11535">
        <ele>160.4</ele>
        <time>2016-05-16T09:16:22Z</time>
      </trkpt>
      <trkpt lat="44.32566" lon="1.11515">
        <ele>157.4</ele>
        <time>2016-05-16T09:16:28Z</time>
      </trkpt>
      <trkpt lat="44.32572" lon="1.11442">
        <ele>155.4</ele>
        <time>2016-05-16T09:16:37Z</time>
      </trkpt>
      <trkpt lat="44.32559" lon="1.11196">
        <ele>155.8</ele>
        <time>2016-05-16T09:17:28Z</time>
      </trkpt>
      <trkpt lat="44.32556" lon="1.11183">
        <ele>155.6</ele>
        <time>2016-05-16T09:17:30Z</time>
      </trkpt>
      <trkpt lat="44.32547" lon="1.11134">
        <ele>153.8</ele>
        <time>2016-05-16T09:17:52Z</time>
      </trkpt>
      <trkpt lat="44.32539" lon="1.1108">
        <ele>153.2</ele>
        <time>2016-05-16T09:18:01Z</time>
      </trkpt>
      <trkpt lat="44.32537" lon="1.1106">
        <ele>156.2</ele>
        <time>2016-05-16T09:18:04Z</time>
      </trkpt>
      <trkpt lat="44.32536" lon="1.11053">
        <ele>155</ele>
        <time>2016-05-16T09:18:05Z</time>
      </trkpt>
      <trkpt lat="44.32524" lon="1.10965">
        <ele>154.4</ele>
        <time>2016-05-16T09:18:19Z</time>
      </trkpt>
      <trkpt lat="44.32475" lon="1.10858">
        <ele>153.6</ele>
        <time>2016-05-16T09:18:34Z</time>
      </trkpt>
      <trkpt lat="44.32442" lon="1.10747">
        <ele>153</ele>
        <time>2016-05-16T09:18:45Z</time>
      </trkpt>
      <trkpt lat="44.32444" lon="1.10682">
        <ele>152.2</ele>
        <time>2016-05-16T09:18:51Z</time>
      </trkpt>
      <trkpt lat="44.32472" lon="1.1051">
        <ele>152</ele>
        <time>2016-05-16T09:19:11Z</time>
      </trkpt>
      <trkpt lat="44.32465" lon="1.1045">
        <ele>150.6</ele>
        <time>2016-05-16T09:19:18Z</time>
      </trkpt>
      <trkpt lat="44.32453" lon="1.10391">
        <ele>147.8</ele>
        <time>2016-05-16T09:19:25Z</time>
      </trkpt>
      <trkpt lat="44.32452" lon="1.10378">
        <ele>147</ele>
        <time>2016-05-16T09:19:30Z</time>
      </trkpt>
      <trkpt lat="44.32355" lon="1.1037">
        <ele>144.8</ele>
        <time>2016-05-16T09:20:10Z</time>
      </trkpt>
      <trkpt lat="44.32344" lon="1.10358">
        <ele>145.4</ele>
        <time>2016-05-16T09:20:47Z</time>
      </trkpt>
      <trkpt lat="44.32343" lon="1.10337">
        <ele>145</ele>
        <time>2016-05-16T09:20:52Z</time>
      </trkpt>
      <trkpt lat="44.32344" lon="1.10284">
        <ele>143.8</ele>
        <time>2016-05-16T09:21:01Z</time>
      </trkpt>
      <trkpt lat="44.32354" lon="1.10062">
        <ele>142</ele>
        <time>2016-05-16T09:21:34Z</time>
      </trkpt>
      <trkpt lat="44.32381" lon="1.09978">
        <ele>142.6</ele>
        <time>2016-05-16T09:21:48Z</time>
      </trkpt>
      <trkpt lat="44.324" lon="1.09946">
        <ele>143</ele>
        <time>2016-05-16T09:21:55Z</time>
      </trkpt>
      <trkpt lat="44.32424" lon="1.09864">
        <ele>141.8</ele>
        <time>2016-05-16T09:22:10Z</time>
      </trkpt>
      <trkpt lat="44.3243" lon="1.0984">
        <ele>141.8</ele>
        <time>2016-05-16T09:22:17Z</time>
      </trkpt>
      <trkpt lat="44.32431" lon="1.09832">
        <ele>141.2</ele>
        <time>2016-05-16T09:22:42Z</time>
      </trkpt>
      <trkpt lat="44.32432" lon="1.09814">
        <ele>141</ele>
        <time>2016-05-16T09:22:46Z</time>
      </trkpt>
      <trkpt lat="44.32443" lon="1.09691">
        <ele>142.8</ele>
        <time>2016-05-16T09:23:10Z</time>
      </trkpt>
      <trkpt lat="44.32446" lon="1.09658">
        <ele>144.4</ele>
        <time>2016-05-16T09:23:18Z</time>
      </trkpt>
      <trkpt lat="44.32433" lon="1.09636">
        <ele>146</ele>
        <time>2016-05-16T09:23:26Z</time>
      </trkpt>
      <trkpt lat="44.32392" lon="1.09603">
        <ele>149</ele>
        <time>2016-05-16T09:23:42Z</time>
      </trkpt>
      <trkpt lat="44.3239" lon="1.09601">
        <ele>149.4</ele>
        <time>2016-05-16T09:23:43Z</time>
      </trkpt>
      <trkpt lat="44.32387" lon="1.0959">
        <ele>150.8</ele>
        <time>2016-05-16T09:23:53Z</time>
      </trkpt>
      <trkpt lat="44.32415" lon="1.09593">
        <ele>152.6</ele>
        <time>2016-05-16T09:24:07Z</time>
      </trkpt>
      <trkpt lat="44.32431" lon="1.09594">
        <ele>153.8</ele>
        <time>2016-05-16T09:24:14Z</time>
      </trkpt>
      <trkpt lat="44.32449" lon="1.09598">
        <ele>155</ele>
        <time>2016-05-16T09:24:22Z</time>
      </trkpt>
      <trkpt lat="44.32489" lon="1.09599">
        <ele>157.6</ele>
        <time>2016-05-16T09:24:37Z</time>
      </trkpt>
      <trkpt lat="44.32534" lon="1.096">
        <ele>160.8</ele>
        <time>2016-05-16T09:24:54Z</time>
      </trkpt>
      <trkpt lat="44.32558" lon="1.09612">
        <ele>160.8</ele>
        <time>2016-05-16T09:25:01Z</time>
      </trkpt>
      <trkpt lat="44.32572" lon="1.09623">
        <ele>160.8</ele>
        <time>2016-05-16T09:25:05Z</time>
      </trkpt>
      <trkpt lat="44.32636" lon="1.09645">
        <ele>162.2</ele>
        <time>2016-05-16T09:25:23Z</time>
      </trkpt>
      <trkpt lat="44.32707" lon="1.09554">
        <ele>165.2</ele>
        <time>2016-05-16T09:25:48Z</time>
      </trkpt>
      <trkpt lat="44.3277" lon="1.09298">
        <ele>167</ele>
        <time>2016-05-16T09:26:38Z</time>
      </trkpt>
      <trkpt lat="44.32775" lon="1.09271">
        <ele>166</ele>
        <time>2016-05-16T09:26:43Z</time>
      </trkpt>
      <trkpt lat="44.32784" lon="1.09213">
        <ele>165.2</ele>
        <time>2016-05-16T09:26:58Z</time>
      </trkpt>
      <trkpt lat="44.3279" lon="1.09209">
        <ele>165.2</ele>
        <time>2016-05-16T09:27:06Z</time>
      </trkpt>
      <trkpt lat="44.32788" lon="1.09217">
        <ele>165.4</ele>
        <time>2016-05-16T09:27:12Z</time>
      </trkpt>
      <trkpt lat="44.32777" lon="1.09231">
        <ele>165.2</ele>
        <time>2016-05-16T09:27:28Z</time>
      </trkpt>
      <trkpt lat="44.32793" lon="1.09203">
        <ele>165.2</ele>
        <time>2016-05-16T09:28:25Z</time>
      </trkpt>
      <trkpt lat="44.32798" lon="1.09191">
        <ele>164.2</ele>
        <time>2016-05-16T09:28:29Z</time>
      </trkpt>
      <trkpt lat="44.32819" lon="1.09192">
        <ele>161.8</ele>
        <time>2016-05-16T09:28:34Z</time>
      </trkpt>
      <trkpt lat="44.32825" lon="1.09193">
        <ele>161.2</ele>
        <time>2016-05-16T09:28:35Z</time>
      </trkpt>
      <trkpt lat="44.32882" lon="1.09165">
        <ele>157.4</ele>
        <time>2016-05-16T09:28:44Z</time>
      </trkpt>
      <trkpt lat="44.32907" lon="1.0916">
        <ele>156.2</ele>
        <time>2016-05-16T09:28:47Z</time>
      </trkpt>
      <trkpt lat="44.32963" lon="1.09152">
        <ele>156.8</ele>
        <time>2016-05-16T09:28:55Z</time>
      </trkpt>
      <trkpt lat="44.32979" lon="1.09117">
        <ele>160</ele>
        <time>2016-05-16T09:29:03Z</time>
      </trkpt>
      <trkpt lat="44.32983" lon="1.09104">
        <ele>160.6</ele>
        <time>2016-05-16T09:29:05Z</time>
      </trkpt>
      <trkpt lat="44.32992" lon="1.09066">
        <ele>163.6</ele>
        <time>2016-05-16T09:29:11Z</time>
      </trkpt>
      <trkpt lat="44.32999" lon="1.09046">
        <ele>164.6</ele>
        <time>2016-05-16T09:29:15Z</time>
      </trkpt>
      <trkpt lat="44.33022" lon="1.09004">
        <ele>168.2</ele>
        <time>2016-05-16T09:29:23Z</time>
      </trkpt>
      <trkpt lat="44.33024" lon="1.08998">
        <ele>168.6</ele>
        <time>2016-05-16T09:29:24Z</time>
      </trkpt>
      <trkpt lat="44.33054" lon="1.0894">
        <ele>172.6</ele>
        <time>2016-05-16T09:29:35Z</time>
      </trkpt>
      <trkpt lat="44.33055" lon="1.08937">
        <ele>172.8</ele>
        <time>2016-05-16T09:29:36Z</time>
      </trkpt>
      <trkpt lat="44.33144" lon="1.08762">
        <ele>173.8</ele>
        <time>2016-05-16T09:30:39Z</time>
      </trkpt>
      <trkpt lat="44.33272" lon="1.08532">
        <ele>176</ele>
        <time>2016-05-16T09:31:34Z</time>
      </trkpt>
      <trkpt lat="44.33318" lon="1.08471">
        <ele>175.2</ele>
        <time>2016-05-16T09:31:48Z</time>
      </trkpt>
      <trkpt lat="44.33355" lon="1.08437">
        <ele>176.4</ele>
        <time>2016-05-16T09:32:01Z</time>
      </trkpt>
      <trkpt lat="44.33368" lon="1.08424">
        <ele>177</ele>
        <time>2016-05-16T09:32:07Z</time>
      </trkpt>
      <trkpt lat="44.33455" lon="1.08364">
        <ele>180.6</ele>
        <time>2016-05-16T09:32:37Z</time>
      </trkpt>
      <trkpt lat="44.33482" lon="1.08355">
        <ele>182</ele>
        <time>2016-05-16T09:32:46Z</time>
      </trkpt>
      <trkpt lat="44.33586" lon="1.08288">
        <ele>185.6</ele>
        <time>2016-05-16T09:33:22Z</time>
      </trkpt>
      <trkpt lat="44.33649" lon="1.08249">
        <ele>189.2</ele>
        <time>2016-05-16T09:33:47Z</time>
      </trkpt>
      <trkpt lat="44.33666" lon="1.08238">
        <ele>190.4</ele>
        <time>2016-05-16T09:33:55Z</time>
      </trkpt>
      <trkpt lat="44.33705" lon="1.08171">
        <ele>193.8</ele>
        <time>2016-05-16T09:34:17Z</time>
      </trkpt>
      <trkpt lat="44.33712" lon="1.08155">
        <ele>195</ele>
        <time>2016-05-16T09:34:22Z</time>
      </trkpt>
      <trkpt lat="44.33728" lon="1.08126">
        <ele>197.6</ele>
        <time>2016-05-16T09:34:31Z</time>
      </trkpt>
      <trkpt lat="44.3375" lon="1.08094">
        <ele>200.8</ele>
        <time>2016-05-16T09:34:41Z</time>
      </trkpt>
      <trkpt lat="44.33775" lon="1.08064">
        <ele>203.8</ele>
        <time>2016-05-16T09:34:52Z</time>
      </trkpt>
      <trkpt lat="44.33799" lon="1.0803">
        <ele>206.2</ele>
        <time>2016-05-16T09:35:04Z</time>
      </trkpt>
      <trkpt lat="44.33824" lon="1.07989">
        <ele>208.4</ele>
        <time>2016-05-16T09:35:17Z</time>
      </trkpt>
      <trkpt lat="44.33829" lon="1.0796">
        <ele>209.6</ele>
        <time>2016-05-16T09:35:22Z</time>
      </trkpt>
      <trkpt lat="44.33842" lon="1.07933">
        <ele>211.6</ele>
        <time>2016-05-16T09:35:29Z</time>
      </trkpt>
      <trkpt lat="44.33852" lon="1.07926">
        <ele>213</ele>
        <time>2016-05-16T09:35:33Z</time>
      </trkpt>
      <trkpt lat="44.33875" lon="1.07907">
        <ele>215.4</ele>
        <time>2016-05-16T09:35:43Z</time>
      </trkpt>
      <trkpt lat="44.33883" lon="1.07893">
        <ele>216.6</ele>
        <time>2016-05-16T09:35:48Z</time>
      </trkpt>
      <trkpt lat="44.33903" lon="1.07839">
        <ele>219</ele>
        <time>2016-05-16T09:36:04Z</time>
      </trkpt>
      <trkpt lat="44.33931" lon="1.07773">
        <ele>220</ele>
        <time>2016-05-16T09:36:28Z</time>
      </trkpt>
      <trkpt lat="44.33938" lon="1.07763">
        <ele>220.4</ele>
        <time>2016-05-16T09:38:12Z</time>
      </trkpt>
      <trkpt lat="44.33941" lon="1.07757">
        <ele>220.6</ele>
        <time>2016-05-16T09:38:14Z</time>
      </trkpt>
      <trkpt lat="44.33994" lon="1.07615">
        <ele>224</ele>
        <time>2016-05-16T09:38:48Z</time>
      </trkpt>
      <trkpt lat="44.34014" lon="1.0756">
        <ele>227.6</ele>
        <time>2016-05-16T09:39:01Z</time>
      </trkpt>
      <trkpt lat="44.34033" lon="1.07504">
        <ele>230.8</ele>
        <time>2016-05-16T09:39:16Z</time>
      </trkpt>
      <trkpt lat="44.3404" lon="1.07487">
        <ele>232</ele>
        <time>2016-05-16T09:39:22Z</time>
      </trkpt>
      <trkpt lat="44.34046" lon="1.07467">
        <ele>233.2</ele>
        <time>2016-05-16T09:39:29Z</time>
      </trkpt>
      <trkpt lat="44.34073" lon="1.07414">
        <ele>233.4</ele>
        <time>2016-05-16T09:40:12Z</time>
      </trkpt>
      <trkpt lat="44.3413" lon="1.07347">
        <ele>230</ele>
        <time>2016-05-16T09:40:25Z</time>
      </trkpt>
      <trkpt lat="44.34197" lon="1.07263">
        <ele>226.2</ele>
        <time>2016-05-16T09:40:36Z</time>
      </trkpt>
      <trkpt lat="44.34214" lon="1.07221">
        <ele>224.6</ele>
        <time>2016-05-16T09:40:40Z</time>
      </trkpt>
      <trkpt lat="44.34278" lon="1.07003">
        <ele>221.2</ele>
        <time>2016-05-16T09:41:01Z</time>
      </trkpt>
      <trkpt lat="44.34287" lon="1.06971">
        <ele>220</ele>
        <time>2016-05-16T09:41:04Z</time>
      </trkpt>
      <trkpt lat="44.34284" lon="1.06877">
        <ele>216.6</ele>
        <time>2016-05-16T09:41:12Z</time>
      </trkpt>
      <trkpt lat="44.34277" lon="1.06853">
        <ele>214.8</ele>
        <time>2016-05-16T09:41:14Z</time>
      </trkpt>
      <trkpt lat="44.34273" lon="1.06841">
        <ele>214.8</ele>
        <time>2016-05-16T09:41:15Z</time>
      </trkpt>
      <trkpt lat="44.34265" lon="1.06669">
        <ele>214.8</ele>
        <time>2016-05-16T09:41:32Z</time>
      </trkpt>
      <trkpt lat="44.34274" lon="1.0648">
        <ele>212.2</ele>
        <time>2016-05-16T09:41:51Z</time>
      </trkpt>
      <trkpt lat="44.34299" lon="1.0638">
        <ele>211.4</ele>
        <time>2016-05-16T09:42:00Z</time>
      </trkpt>
      <trkpt lat="44.34312" lon="1.06336">
        <ele>210.6</ele>
        <time>2016-05-16T09:42:04Z</time>
      </trkpt>
      <trkpt lat="44.3433" lon="1.06295">
        <ele>209</ele>
        <time>2016-05-16T09:42:08Z</time>
      </trkpt>
      <trkpt lat="44.34335" lon="1.06285">
        <ele>208.8</ele>
        <time>2016-05-16T09:42:09Z</time>
      </trkpt>
      <trkpt lat="44.34368" lon="1.06217">
        <ele>206.8</ele>
        <time>2016-05-16T09:42:16Z</time>
      </trkpt>
      <trkpt lat="44.34369" lon="1.06142">
        <ele>204.2</ele>
        <time>2016-05-16T09:42:23Z</time>
      </trkpt>
      <trkpt lat="44.34355" lon="1.06097">
        <ele>202.4</ele>
        <time>2016-05-16T09:42:27Z</time>
      </trkpt>
      <trkpt lat="44.34339" lon="1.06066">
        <ele>201.2</ele>
        <time>2016-05-16T09:42:30Z</time>
      </trkpt>
      <trkpt lat="44.34321" lon="1.06033">
        <ele>200.2</ele>
        <time>2016-05-16T09:42:33Z</time>
      </trkpt>
      <trkpt lat="44.34316" lon="1.05963">
        <ele>197.2</ele>
        <time>2016-05-16T09:42:38Z</time>
      </trkpt>
      <trkpt lat="44.34321" lon="1.05888">
        <ele>193.8</ele>
        <time>2016-05-16T09:42:43Z</time>
      </trkpt>
      <trkpt lat="44.34328" lon="1.05842">
        <ele>192.8</ele>
        <time>2016-05-16T09:42:46Z</time>
      </trkpt>
      <trkpt lat="44.34342" lon="1.05792">
        <ele>191.4</ele>
        <time>2016-05-16T09:42:50Z</time>
      </trkpt>
      <trkpt lat="44.34356" lon="1.05774">
        <ele>191.2</ele>
        <time>2016-05-16T09:42:52Z</time>
      </trkpt>
      <trkpt lat="44.34363" lon="1.05765">
        <ele>191.4</ele>
        <time>2016-05-16T09:42:53Z</time>
      </trkpt>
      <trkpt lat="44.34385" lon="1.05732">
        <ele>190.4</ele>
        <time>2016-05-16T09:42:57Z</time>
      </trkpt>
      <trkpt lat="44.34367" lon="1.05661">
        <ele>187.2</ele>
        <time>2016-05-16T09:43:03Z</time>
      </trkpt>
      <trkpt lat="44.34348" lon="1.05611">
        <ele>186</ele>
        <time>2016-05-16T09:43:07Z</time>
      </trkpt>
      <trkpt lat="44.34336" lon="1.05563">
        <ele>184.8</ele>
        <time>2016-05-16T09:43:11Z</time>
      </trkpt>
      <trkpt lat="44.34333" lon="1.05488">
        <ele>184.4</ele>
        <time>2016-05-16T09:43:18Z</time>
      </trkpt>
      <trkpt lat="44.34336" lon="1.05326">
        <ele>182.2</ele>
        <time>2016-05-16T09:43:33Z</time>
      </trkpt>
      <trkpt lat="44.34391" lon="1.05144">
        <ele>180.6</ele>
        <time>2016-05-16T09:43:52Z</time>
      </trkpt>
      <trkpt lat="44.34416" lon="1.05083">
        <ele>178.8</ele>
        <time>2016-05-16T09:43:58Z</time>
      </trkpt>
      <trkpt lat="44.34449" lon="1.05037">
        <ele>177.4</ele>
        <time>2016-05-16T09:44:03Z</time>
      </trkpt>
      <trkpt lat="44.34613" lon="1.04799">
        <ele>174.2</ele>
        <time>2016-05-16T09:44:33Z</time>
      </trkpt>
      <trkpt lat="44.34783" lon="1.04527">
        <ele>171.4</ele>
        <time>2016-05-16T09:45:12Z</time>
      </trkpt>
      <trkpt lat="44.34829" lon="1.04475">
        <ele>168</ele>
        <time>2016-05-16T09:45:18Z</time>
      </trkpt>
      <trkpt lat="44.34921" lon="1.04256">
        <ele>165</ele>
        <time>2016-05-16T09:45:39Z</time>
      </trkpt>
      <trkpt lat="44.34915" lon="1.04197">
        <ele>163.8</ele>
        <time>2016-05-16T09:45:44Z</time>
      </trkpt>
      <trkpt lat="44.34913" lon="1.04185">
        <ele>163.6</ele>
        <time>2016-05-16T09:45:45Z</time>
      </trkpt>
      <trkpt lat="44.34895" lon="1.04097">
        <ele>161.4</ele>
        <time>2016-05-16T09:45:53Z</time>
      </trkpt>
      <trkpt lat="44.34886" lon="1.04056">
        <ele>160.2</ele>
        <time>2016-05-16T09:45:57Z</time>
      </trkpt>
      <trkpt lat="44.3488" lon="1.04036">
        <ele>160.2</ele>
        <time>2016-05-16T09:45:59Z</time>
      </trkpt>
      <trkpt lat="44.34829" lon="1.0388">
        <ele>158</ele>
        <time>2016-05-16T09:46:16Z</time>
      </trkpt>
      <trkpt lat="44.34803" lon="1.03825">
        <ele>157.8</ele>
        <time>2016-05-16T09:46:23Z</time>
      </trkpt>
      <trkpt lat="44.34753" lon="1.03729">
        <ele>157.8</ele>
        <time>2016-05-16T09:46:36Z</time>
      </trkpt>
      <trkpt lat="44.34743" lon="1.03674">
        <ele>157.8</ele>
        <time>2016-05-16T09:46:42Z</time>
      </trkpt>
      <trkpt lat="44.34735" lon="1.03611">
        <ele>157.6</ele>
        <time>2016-05-16T09:46:49Z</time>
      </trkpt>
      <trkpt lat="44.34711" lon="1.03492">
        <ele>157.2</ele>
        <time>2016-05-16T09:47:03Z</time>
      </trkpt>
      <trkpt lat="44.34709" lon="1.03483">
        <ele>157</ele>
        <time>2016-05-16T09:47:04Z</time>
      </trkpt>
      <trkpt lat="44.34673" lon="1.03388">
        <ele>156</ele>
        <time>2016-05-16T09:47:16Z</time>
      </trkpt>
      <trkpt lat="44.34609" lon="1.0326">
        <ele>156</ele>
        <time>2016-05-16T09:47:33Z</time>
      </trkpt>
      <trkpt lat="44.34523" lon="1.03095">
        <ele>154</ele>
        <time>2016-05-16T09:47:52Z</time>
      </trkpt>
      <trkpt lat="44.34478" lon="1.03038">
        <ele>152.8</ele>
        <time>2016-05-16T09:47:59Z</time>
      </trkpt>
      <trkpt lat="44.34441" lon="1.02977">
        <ele>151.8</ele>
        <time>2016-05-16T09:48:06Z</time>
      </trkpt>
      <trkpt lat="44.34407" lon="1.02932">
        <ele>152.2</ele>
        <time>2016-05-16T09:48:12Z</time>
      </trkpt>
      <trkpt lat="44.34374" lon="1.02886">
        <ele>151.6</ele>
        <time>2016-05-16T09:48:18Z</time>
      </trkpt>
      <trkpt lat="44.3434" lon="1.02811">
        <ele>151.6</ele>
        <time>2016-05-16T09:48:26Z</time>
      </trkpt>
      <trkpt lat="44.34271" lon="1.02635">
        <ele>149</ele>
        <time>2016-05-16T09:48:44Z</time>
      </trkpt>
      <trkpt lat="44.34232" lon="1.02555">
        <ele>148.2</ele>
        <time>2016-05-16T09:48:53Z</time>
      </trkpt>
      <trkpt lat="44.34209" lon="1.02435">
        <ele>147.2</ele>
        <time>2016-05-16T09:49:05Z</time>
      </trkpt>
      <trkpt lat="44.34198" lon="1.02364">
        <ele>146.2</ele>
        <time>2016-05-16T09:49:12Z</time>
      </trkpt>
      <trkpt lat="44.34171" lon="1.02282">
        <ele>145.8</ele>
        <time>2016-05-16T09:49:21Z</time>
      </trkpt>
      <trkpt lat="44.34004" lon="1.01865">
        <ele>142.6</ele>
        <time>2016-05-16T09:50:17Z</time>
      </trkpt>
      <trkpt lat="44.33982" lon="1.01782">
        <ele>142.6</ele>
        <time>2016-05-16T09:50:34Z</time>
      </trkpt>
      <trkpt lat="44.33953" lon="1.01747">
        <ele>143.6</ele>
        <time>2016-05-16T09:52:52Z</time>
      </trkpt>
      <trkpt lat="44.3388" lon="1.01613">
        <ele>141.2</ele>
        <time>2016-05-16T09:53:18Z</time>
      </trkpt>
      <trkpt lat="44.33842" lon="1.0154">
        <ele>140</ele>
        <time>2016-05-16T09:53:28Z</time>
      </trkpt>
      <trkpt lat="44.33479" lon="1.00856">
        <ele>139</ele>
        <time>2016-05-16T09:55:03Z</time>
      </trkpt>
      <trkpt lat="44.33456" lon="1.00802">
        <ele>139</ele>
        <time>2016-05-16T09:55:10Z</time>
      </trkpt>
      <trkpt lat="44.33352" lon="1.00532">
        <ele>139.4</ele>
        <time>2016-05-16T09:55:44Z</time>
      </trkpt>
      <trkpt lat="44.33324" lon="1.00428">
        <ele>138.2</ele>
        <time>2016-05-16T09:55:56Z</time>
      </trkpt>
      <trkpt lat="44.33264" lon="1.00169">
        <ele>135.2</ele>
        <time>2016-05-16T09:56:23Z</time>
      </trkpt>
      <trkpt lat="44.33259" lon="1.00149">
        <ele>135</ele>
        <time>2016-05-16T09:56:25Z</time>
      </trkpt>
      <trkpt lat="44.33206" lon="0.99639">
        <ele>131.6</ele>
        <time>2016-05-16T09:57:19Z</time>
      </trkpt>
      <trkpt lat="44.33206" lon="0.99398">
        <ele>128.6</ele>
        <time>2016-05-16T09:57:44Z</time>
      </trkpt>
      <trkpt lat="44.33211" lon="0.99335">
        <ele>127.4</ele>
        <time>2016-05-16T09:57:51Z</time>
      </trkpt>
      <trkpt lat="44.33319" lon="0.98343">
        <ele>125.6</ele>
        <time>2016-05-16T09:59:51Z</time>
      </trkpt>
      <trkpt lat="44.3332" lon="0.9796">
        <ele>122.4</ele>
        <time>2016-05-16T10:00:33Z</time>
      </trkpt>
      <trkpt lat="44.33321" lon="0.97897">
        <ele>122.6</ele>
        <time>2016-05-16T10:00:40Z</time>
      </trkpt>
      <trkpt lat="44.3337" lon="0.9773">
        <ele>122.4</ele>
        <time>2016-05-16T10:01:03Z</time>
      </trkpt>
      <trkpt lat="44.3342" lon="0.97632">
        <ele>122.6</ele>
        <time>2016-05-16T10:01:20Z</time>
      </trkpt>
      <trkpt lat="44.33437" lon="0.9747">
        <ele>123.2</ele>
        <time>2016-05-16T10:01:42Z</time>
      </trkpt>
      <trkpt lat="44.33428" lon="0.97383">
        <ele>121.8</ele>
        <time>2016-05-16T10:01:53Z</time>
      </trkpt>
      <trkpt lat="44.33414" lon="0.97222">
        <ele>119.8</ele>
        <time>2016-05-16T10:02:11Z</time>
      </trkpt>
      <trkpt lat="44.3339" lon="0.96947">
        <ele>116.8</ele>
        <time>2016-05-16T10:02:39Z</time>
      </trkpt>
      <trkpt lat="44.33387" lon="0.96919">
        <ele>116.6</ele>
        <time>2016-05-16T10:02:42Z</time>
      </trkpt>
      <trkpt lat="44.33357" lon="0.96624">
        <ele>115.8</ele>
        <time>2016-05-16T10:03:17Z</time>
      </trkpt>
      <trkpt lat="44.33331" lon="0.96555">
        <ele>115.6</ele>
        <time>2016-05-16T10:03:26Z</time>
      </trkpt>
      <trkpt lat="44.33169" lon="0.96242">
        <ele>112.6</ele>
        <time>2016-05-16T10:04:09Z</time>
      </trkpt>
      <trkpt lat="44.32807" lon="0.95544">
        <ele>113.6</ele>
        <time>2016-05-16T10:05:51Z</time>
      </trkpt>
      <trkpt lat="44.32752" lon="0.95475">
        <ele>114.6</ele>
        <time>2016-05-16T10:06:06Z</time>
      </trkpt>
      <trkpt lat="44.32319" lon="0.95062">
        <ele>111.6</ele>
        <time>2016-05-16T10:07:34Z</time>
      </trkpt>
      <trkpt lat="44.32225" lon="0.94972">
        <ele>108.6</ele>
        <time>2016-05-16T10:07:48Z</time>
      </trkpt>
      <trkpt lat="44.31838" lon="0.94686">
        <ele>109</ele>
        <time>2016-05-16T10:08:56Z</time>
      </trkpt>
      <trkpt lat="44.31746" lon="0.94649">
        <ele>108.8</ele>
        <time>2016-05-16T10:09:12Z</time>
      </trkpt>
      <trkpt lat="44.31674" lon="0.94621">
        <ele>105.8</ele>
        <time>2016-05-16T10:09:24Z</time>
      </trkpt>
      <trkpt lat="44.31668" lon="0.94619">
        <ele>110</ele>
        <time>2016-05-16T10:09:25Z</time>
      </trkpt>
      <trkpt lat="44.31638" lon="0.94606">
        <ele>109</ele>
        <time>2016-05-16T10:09:30Z</time>
      </trkpt>
      <trkpt lat="44.3162" lon="0.94597">
        <ele>108.8</ele>
        <time>2016-05-16T10:09:33Z</time>
      </trkpt>
      <trkpt lat="44.31518" lon="0.94488">
        <ele>106</ele>
        <time>2016-05-16T10:09:51Z</time>
      </trkpt>
      <trkpt lat="44.31406" lon="0.94337">
        <ele>102.6</ele>
        <time>2016-05-16T10:10:11Z</time>
      </trkpt>
      <trkpt lat="44.314" lon="0.94331">
        <ele>102.4</ele>
        <time>2016-05-16T10:10:12Z</time>
      </trkpt>
      <trkpt lat="44.3127" lon="0.94344">
        <ele>102.2</ele>
        <time>2016-05-16T10:10:32Z</time>
      </trkpt>
      <trkpt lat="44.31206" lon="0.94394">
        <ele>101.2</ele>
        <time>2016-05-16T10:10:43Z</time>
      </trkpt>
      <trkpt lat="44.30998" lon="0.9431">
        <ele>101.4</ele>
        <time>2016-05-16T10:11:19Z</time>
      </trkpt>
      <trkpt lat="44.3063" lon="0.93759">
        <ele>100.4</ele>
        <time>2016-05-16T10:12:48Z</time>
      </trkpt>
      <trkpt lat="44.30586" lon="0.93646">
        <ele>100.8</ele>
        <time>2016-05-16T10:13:02Z</time>
      </trkpt>
      <trkpt lat="44.30494" lon="0.93321">
        <ele>102.2</ele>
        <time>2016-05-16T10:13:46Z</time>
      </trkpt>
      <trkpt lat="44.30494" lon="0.93315">
        <ele>102</ele>
        <time>2016-05-16T10:13:47Z</time>
      </trkpt>
      <trkpt lat="44.30501" lon="0.93243">
        <ele>100.8</ele>
        <time>2016-05-16T10:13:56Z</time>
      </trkpt>
      <trkpt lat="44.30502" lon="0.93224">
        <ele>99.8</ele>
        <time>2016-05-16T10:13:58Z</time>
      </trkpt>
      <trkpt lat="44.30491" lon="0.93056">
        <ele>98.6</ele>
        <time>2016-05-16T10:14:17Z</time>
      </trkpt>
      <trkpt lat="44.30451" lon="0.92945">
        <ele>97.4</ele>
        <time>2016-05-16T10:14:33Z</time>
      </trkpt>
      <trkpt lat="44.30236" lon="0.92416">
        <ele>96.4</ele>
        <time>2016-05-16T10:15:55Z</time>
      </trkpt>
      <trkpt lat="44.30226" lon="0.92368">
        <ele>95.8</ele>
        <time>2016-05-16T10:16:01Z</time>
      </trkpt>
      <trkpt lat="44.30212" lon="0.92309">
        <ele>95.4</ele>
        <time>2016-05-16T10:16:08Z</time>
      </trkpt>
      <trkpt lat="44.30209" lon="0.92302">
        <ele>95</ele>
        <time>2016-05-16T10:16:09Z</time>
      </trkpt>
      <trkpt lat="44.30124" lon="0.92111">
        <ele>93.2</ele>
        <time>2016-05-16T10:16:33Z</time>
      </trkpt>
      <trkpt lat="44.30049" lon="0.91942">
        <ele>94.8</ele>
        <time>2016-05-16T10:17:01Z</time>
      </trkpt>
      <trkpt lat="44.30026" lon="0.91842">
        <ele>95</ele>
        <time>2016-05-16T10:17:16Z</time>
      </trkpt>
      <trkpt lat="44.29968" lon="0.91429">
        <ele>95</ele>
        <time>2016-05-16T10:18:13Z</time>
      </trkpt>
      <trkpt lat="44.29945" lon="0.91248">
        <ele>94.8</ele>
        <time>2016-05-16T10:18:42Z</time>
      </trkpt>
      <trkpt lat="44.29918" lon="0.91016">
        <ele>92.2</ele>
        <time>2016-05-16T10:19:13Z</time>
      </trkpt>
      <trkpt lat="44.29909" lon="0.90943">
        <ele>90.2</ele>
        <time>2016-05-16T10:19:21Z</time>
      </trkpt>
      <trkpt lat="44.29884" lon="0.90837">
        <ele>91.8</ele>
        <time>2016-05-16T10:19:35Z</time>
      </trkpt>
      <trkpt lat="44.29862" lon="0.90753">
        <ele>93</ele>
        <time>2016-05-16T10:19:49Z</time>
      </trkpt>
      <trkpt lat="44.29887" lon="0.90585">
        <ele>91.8</ele>
        <time>2016-05-16T10:20:13Z</time>
      </trkpt>
      <trkpt lat="44.29892" lon="0.90538">
        <ele>91</ele>
        <time>2016-05-16T10:20:19Z</time>
      </trkpt>
      <trkpt lat="44.29896" lon="0.90484">
        <ele>90.2</ele>
        <time>2016-05-16T10:20:26Z</time>
      </trkpt>
      <trkpt lat="44.29896" lon="0.90468">
        <ele>89.8</ele>
        <time>2016-05-16T10:20:28Z</time>
      </trkpt>
      <trkpt lat="44.29894" lon="0.9041">
        <ele>89</ele>
        <time>2016-05-16T10:20:35Z</time>
      </trkpt>
      <trkpt lat="44.29891" lon="0.9035">
        <ele>87.8</ele>
        <time>2016-05-16T10:20:42Z</time>
      </trkpt>
      <trkpt lat="44.29894" lon="0.9028">
        <ele>86.6</ele>
        <time>2016-05-16T10:20:50Z</time>
      </trkpt>
      <trkpt lat="44.2988" lon="0.90178">
        <ele>85.6</ele>
        <time>2016-05-16T10:21:03Z</time>
      </trkpt>
      <trkpt lat="44.29854" lon="0.90086">
        <ele>86</ele>
        <time>2016-05-16T10:21:17Z</time>
      </trkpt>
      <trkpt lat="44.29823" lon="0.90034">
        <ele>85.8</ele>
        <time>2016-05-16T10:21:30Z</time>
      </trkpt>
      <trkpt lat="44.29773" lon="0.89963">
        <ele>86.2</ele>
        <time>2016-05-16T10:22:23Z</time>
      </trkpt>
      <trkpt lat="44.29672" lon="0.89709">
        <ele>84.8</ele>
        <time>2016-05-16T10:23:00Z</time>
      </trkpt>
      <trkpt lat="44.29663" lon="0.89686">
        <ele>84.4</ele>
        <time>2016-05-16T10:23:03Z</time>
      </trkpt>
      <trkpt lat="44.29533" lon="0.89488">
        <ele>85</ele>
        <time>2016-05-16T10:23:34Z</time>
      </trkpt>
      <trkpt lat="44.29163" lon="0.89133">
        <ele>82.2</ele>
        <time>2016-05-16T10:24:44Z</time>
      </trkpt>
      <trkpt lat="44.2899" lon="0.88982">
        <ele>81</ele>
        <time>2016-05-16T10:25:16Z</time>
      </trkpt>
      <trkpt lat="44.28424" lon="0.88612">
        <ele>79.2</ele>
        <time>2016-05-16T10:27:01Z</time>
      </trkpt>
      <trkpt lat="44.28384" lon="0.88582">
        <ele>79.2</ele>
        <time>2016-05-16T10:27:10Z</time>
      </trkpt>
      <trkpt lat="44.28334" lon="0.88527">
        <ele>79.6</ele>
        <time>2016-05-16T10:27:26Z</time>
      </trkpt>
      <trkpt lat="44.28327" lon="0.88524">
        <ele>80.2</ele>
        <time>2016-05-16T10:31:36Z</time>
      </trkpt>
      <trkpt lat="44.28305" lon="0.88523">
        <ele>80.4</ele>
        <time>2016-05-16T10:31:44Z</time>
      </trkpt>
      <trkpt lat="44.28249" lon="0.8853">
        <ele>83</ele>
        <time>2016-05-16T10:32:01Z</time>
      </trkpt>
      <trkpt lat="44.28212" lon="0.88547">
        <ele>86.2</ele>
        <time>2016-05-16T10:32:16Z</time>
      </trkpt>
      <trkpt lat="44.28186" lon="0.88577">
        <ele>88.4</ele>
        <time>2016-05-16T10:32:28Z</time>
      </trkpt>
      <trkpt lat="44.2816" lon="0.88608">
        <ele>90.6</ele>
        <time>2016-05-16T10:32:41Z</time>
      </trkpt>
      <trkpt lat="44.28141" lon="0.88633">
        <ele>93</ele>
        <time>2016-05-16T10:32:52Z</time>
      </trkpt>
      <trkpt lat="44.28102" lon="0.88654">
        <ele>96.2</ele>
        <time>2016-05-16T10:33:09Z</time>
      </trkpt>
      <trkpt lat="44.2806" lon="0.88652">
        <ele>99.4</ele>
        <time>2016-05-16T10:33:26Z</time>
      </trkpt>
      <trkpt lat="44.28056" lon="0.88652">
        <ele>99.6</ele>
        <time>2016-05-16T10:33:28Z</time>
      </trkpt>
      <trkpt lat="44.28022" lon="0.88652">
        <ele>102</ele>
        <time>2016-05-16T10:33:40Z</time>
      </trkpt>
      <trkpt lat="44.27999" lon="0.88653">
        <ele>104</ele>
        <time>2016-05-16T10:33:49Z</time>
      </trkpt>
      <trkpt lat="44.27981" lon="0.88657">
        <ele>105.2</ele>
        <time>2016-05-16T10:33:56Z</time>
      </trkpt>
      <trkpt lat="44.27937" lon="0.88675">
        <ele>108.2</ele>
        <time>2016-05-16T10:34:14Z</time>
      </trkpt>
      <trkpt lat="44.27894" lon="0.88695">
        <ele>111.8</ele>
        <time>2016-05-16T10:34:32Z</time>
      </trkpt>
      <trkpt lat="44.27851" lon="0.8871">
        <ele>115.4</ele>
        <time>2016-05-16T10:34:50Z</time>
      </trkpt>
      <trkpt lat="44.27805" lon="0.88712">
        <ele>118.8</ele>
        <time>2016-05-16T10:35:08Z</time>
      </trkpt>
      <trkpt lat="44.27802" lon="0.88712">
        <ele>119</ele>
        <time>2016-05-16T10:35:09Z</time>
      </trkpt>
      <trkpt lat="44.27762" lon="0.8871">
        <ele>122.4</ele>
        <time>2016-05-16T10:35:26Z</time>
      </trkpt>
      <trkpt lat="44.27743" lon="0.88708">
        <ele>123.6</ele>
        <time>2016-05-16T10:35:34Z</time>
      </trkpt>
      <trkpt lat="44.27726" lon="0.887">
        <ele>124.8</ele>
        <time>2016-05-16T10:35:41Z</time>
      </trkpt>
      <trkpt lat="44.27715" lon="0.88682">
        <ele>125.8</ele>
        <time>2016-05-16T10:35:48Z</time>
      </trkpt>
      <trkpt lat="44.27732" lon="0.88639">
        <ele>129.2</ele>
        <time>2016-05-16T10:36:04Z</time>
      </trkpt>
      <trkpt lat="44.27747" lon="0.88622">
        <ele>130.4</ele>
        <time>2016-05-16T10:36:13Z</time>
      </trkpt>
      <trkpt lat="44.2778" lon="0.88593">
        <ele>133.8</ele>
        <time>2016-05-16T10:36:30Z</time>
      </trkpt>
      <trkpt lat="44.27816" lon="0.88567">
        <ele>136.6</ele>
        <time>2016-05-16T10:36:46Z</time>
      </trkpt>
      <trkpt lat="44.27843" lon="0.88523">
        <ele>139.8</ele>
        <time>2016-05-16T10:37:04Z</time>
      </trkpt>
      <trkpt lat="44.27861" lon="0.8848">
        <ele>142.2</ele>
        <time>2016-05-16T10:37:19Z</time>
      </trkpt>
      <trkpt lat="44.27894" lon="0.88439">
        <ele>145.4</ele>
        <time>2016-05-16T10:37:37Z</time>
      </trkpt>
      <trkpt lat="44.2793" lon="0.88409">
        <ele>148.4</ele>
        <time>2016-05-16T10:37:54Z</time>
      </trkpt>
      <trkpt lat="44.27958" lon="0.88348">
        <ele>151.8</ele>
        <time>2016-05-16T10:38:15Z</time>
      </trkpt>
      <trkpt lat="44.27963" lon="0.88331">
        <ele>153</ele>
        <time>2016-05-16T10:38:21Z</time>
      </trkpt>
      <trkpt lat="44.27963" lon="0.88278">
        <ele>156</ele>
        <time>2016-05-16T10:38:40Z</time>
      </trkpt>
      <trkpt lat="44.27941" lon="0.88227">
        <ele>158.8</ele>
        <time>2016-05-16T10:39:00Z</time>
      </trkpt>
      <trkpt lat="44.27933" lon="0.88209">
        <ele>160</ele>
        <time>2016-05-16T10:39:07Z</time>
      </trkpt>
      <trkpt lat="44.27926" lon="0.88191">
        <ele>161.2</ele>
        <time>2016-05-16T10:39:14Z</time>
      </trkpt>
      <trkpt lat="44.27923" lon="0.88144">
        <ele>164.4</ele>
        <time>2016-05-16T10:39:32Z</time>
      </trkpt>
      <trkpt lat="44.27925" lon="0.88121">
        <ele>165.6</ele>
        <time>2016-05-16T10:39:41Z</time>
      </trkpt>
      <trkpt lat="44.27931" lon="0.88076">
        <ele>168.6</ele>
        <time>2016-05-16T10:40:00Z</time>
      </trkpt>
      <trkpt lat="44.27935" lon="0.88034">
        <ele>171</ele>
        <time>2016-05-16T10:40:15Z</time>
      </trkpt>
      <trkpt lat="44.27937" lon="0.88011">
        <ele>172.2</ele>
        <time>2016-05-16T10:40:23Z</time>
      </trkpt>
      <trkpt lat="44.27942" lon="0.87959">
        <ele>175.6</ele>
        <time>2016-05-16T10:40:41Z</time>
      </trkpt>
      <trkpt lat="44.27941" lon="0.87943">
        <ele>176.6</ele>
        <time>2016-05-16T10:40:47Z</time>
      </trkpt>
      <trkpt lat="44.27936" lon="0.87888">
        <ele>179.6</ele>
        <time>2016-05-16T10:41:08Z</time>
      </trkpt>
      <trkpt lat="44.27928" lon="0.87844">
        <ele>182.6</ele>
        <time>2016-05-16T10:41:26Z</time>
      </trkpt>
      <trkpt lat="44.27925" lon="0.87825">
        <ele>183.6</ele>
        <time>2016-05-16T10:41:33Z</time>
      </trkpt>
      <trkpt lat="44.27916" lon="0.8781">
        <ele>184.8</ele>
        <time>2016-05-16T10:41:40Z</time>
      </trkpt>
      <trkpt lat="44.27881" lon="0.8788">
        <ele>187</ele>
        <time>2016-05-16T10:46:08Z</time>
      </trkpt>
      <trkpt lat="44.27845" lon="0.88006">
        <ele>190.2</ele>
        <time>2016-05-16T10:46:45Z</time>
      </trkpt>
      <trkpt lat="44.27809" lon="0.88051">
        <ele>191.6</ele>
        <time>2016-05-16T10:47:03Z</time>
      </trkpt>
      <trkpt lat="44.2779" lon="0.88063">
        <ele>192.4</ele>
        <time>2016-05-16T10:48:22Z</time>
      </trkpt>
      <trkpt lat="44.27768" lon="0.88084">
        <ele>193.2</ele>
        <time>2016-05-16T10:48:32Z</time>
      </trkpt>
      <trkpt lat="44.27677" lon="0.88129">
        <ele>194</ele>
        <time>2016-05-16T10:49:21Z</time>
      </trkpt>
      <trkpt lat="44.27681" lon="0.8813">
        <ele>194.2</ele>
        <time>2016-05-16T10:49:26Z</time>
      </trkpt>
      <trkpt lat="44.27736" lon="0.88113">
        <ele>194.4</ele>
        <time>2016-05-16T10:50:48Z</time>
      </trkpt>
      <trkpt lat="44.27752" lon="0.88149">
        <ele>196.4</ele>
        <time>2016-05-16T10:51:09Z</time>
      </trkpt>
      <trkpt lat="44.27781" lon="0.88103">
        <ele>194.4</ele>
        <time>2016-05-16T10:51:43Z</time>
      </trkpt>
      <trkpt lat="44.27748" lon="0.88126">
        <ele>110.2</ele>
        <time>2016-05-16T13:02:03Z</time>
      </trkpt>
      <trkpt lat="44.27742" lon="0.88127">
        <ele>111.2</ele>
        <time>2016-05-16T13:04:10Z</time>
      </trkpt>
      <trkpt lat="44.27695" lon="0.88144">
        <ele>111.2</ele>
        <time>2016-05-16T13:04:55Z</time>
      </trkpt>
      <trkpt lat="44.2767" lon="0.88145">
        <ele>108.4</ele>
        <time>2016-05-16T13:05:07Z</time>
      </trkpt>
      <trkpt lat="44.27655" lon="0.88157">
        <ele>107.4</ele>
        <time>2016-05-16T13:05:11Z</time>
      </trkpt>
      <trkpt lat="44.27617" lon="0.88158">
        <ele>105.4</ele>
        <time>2016-05-16T13:06:03Z</time>
      </trkpt>
      <trkpt lat="44.27583" lon="0.88159">
        <ele>103.2</ele>
        <time>2016-05-16T13:06:14Z</time>
      </trkpt>
      <trkpt lat="44.27535" lon="0.88159">
        <ele>99.6</ele>
        <time>2016-05-16T13:06:21Z</time>
      </trkpt>
      <trkpt lat="44.27489" lon="0.88153">
        <ele>96.6</ele>
        <time>2016-05-16T13:06:27Z</time>
      </trkpt>
      <trkpt lat="44.27461" lon="0.88124">
        <ele>93.4</ele>
        <time>2016-05-16T13:06:32Z</time>
      </trkpt>
      <trkpt lat="44.27463" lon="0.88071">
        <ele>90.8</ele>
        <time>2016-05-16T13:06:37Z</time>
      </trkpt>
      <trkpt lat="44.27471" lon="0.88048">
        <ele>89.4</ele>
        <time>2016-05-16T13:06:39Z</time>
      </trkpt>
      <trkpt lat="44.27475" lon="0.88036">
        <ele>88.4</ele>
        <time>2016-05-16T13:06:40Z</time>
      </trkpt>
      <trkpt lat="44.27506" lon="0.87974">
        <ele>85.4</ele>
        <time>2016-05-16T13:06:45Z</time>
      </trkpt>
      <trkpt lat="44.2755" lon="0.87883">
        <ele>81</ele>
        <time>2016-05-16T13:06:52Z</time>
      </trkpt>
      <trkpt lat="44.27562" lon="0.87857">
        <ele>79.4</ele>
        <time>2016-05-16T13:06:54Z</time>
      </trkpt>
      <trkpt lat="44.27573" lon="0.87805">
        <ele>76</ele>
        <time>2016-05-16T13:06:58Z</time>
      </trkpt>
      <trkpt lat="44.27562" lon="0.87771">
        <ele>74.4</ele>
        <time>2016-05-16T13:07:01Z</time>
      </trkpt>
      <trkpt lat="44.27542" lon="0.87741">
        <ele>71.8</ele>
        <time>2016-05-16T13:07:04Z</time>
      </trkpt>
      <trkpt lat="44.2749" lon="0.87688">
        <ele>67.2</ele>
        <time>2016-05-16T13:07:10Z</time>
      </trkpt>
      <trkpt lat="44.27452" lon="0.87658">
        <ele>63.6</ele>
        <time>2016-05-16T13:07:14Z</time>
      </trkpt>
      <trkpt lat="44.27434" lon="0.87602">
        <ele>60.4</ele>
        <time>2016-05-16T13:07:18Z</time>
      </trkpt>
      <trkpt lat="44.27428" lon="0.87521">
        <ele>56</ele>
        <time>2016-05-16T13:07:23Z</time>
      </trkpt>
      <trkpt lat="44.27432" lon="0.87462">
        <ele>52.6</ele>
        <time>2016-05-16T13:07:27Z</time>
      </trkpt>
      <trkpt lat="44.27478" lon="0.87405">
        <ele>49.6</ele>
        <time>2016-05-16T13:07:33Z</time>
      </trkpt>
      <trkpt lat="44.27522" lon="0.87369">
        <ele>46.2</ele>
        <time>2016-05-16T13:07:37Z</time>
      </trkpt>
      <trkpt lat="44.27556" lon="0.87343">
        <ele>43.4</ele>
        <time>2016-05-16T13:07:40Z</time>
      </trkpt>
      <trkpt lat="44.27576" lon="0.87301">
        <ele>40.2</ele>
        <time>2016-05-16T13:07:44Z</time>
      </trkpt>
      <trkpt lat="44.27569" lon="0.87263">
        <ele>38.4</ele>
        <time>2016-05-16T13:07:47Z</time>
      </trkpt>
      <trkpt lat="44.27566" lon="0.87252">
        <ele>37.2</ele>
        <time>2016-05-16T13:07:48Z</time>
      </trkpt>
      <trkpt lat="44.27566" lon="0.8724">
        <ele>37</ele>
        <time>2016-05-16T13:07:49Z</time>
      </trkpt>
      <trkpt lat="44.276" lon="0.87184">
        <ele>33.4</ele>
        <time>2016-05-16T13:07:55Z</time>
      </trkpt>
      <trkpt lat="44.2761" lon="0.87178">
        <ele>32.4</ele>
        <time>2016-05-16T13:07:56Z</time>
      </trkpt>
      <trkpt lat="44.2769" lon="0.87115">
        <ele>28</ele>
        <time>2016-05-16T13:08:05Z</time>
      </trkpt>
      <trkpt lat="44.27736" lon="0.87087">
        <ele>25</ele>
        <time>2016-05-16T13:08:10Z</time>
      </trkpt>
      <trkpt lat="44.27754" lon="0.87077">
        <ele>23.8</ele>
        <time>2016-05-16T13:08:12Z</time>
      </trkpt>
      <trkpt lat="44.27791" lon="0.87034">
        <ele>20.4</ele>
        <time>2016-05-16T13:08:17Z</time>
      </trkpt>
      <trkpt lat="44.27797" lon="0.87023">
        <ele>20.4</ele>
        <time>2016-05-16T13:08:18Z</time>
      </trkpt>
      <trkpt lat="44.27814" lon="0.86973">
        <ele>18.2</ele>
        <time>2016-05-16T13:08:22Z</time>
      </trkpt>
      <trkpt lat="44.2782" lon="0.86946">
        <ele>16.4</ele>
        <time>2016-05-16T13:08:24Z</time>
      </trkpt>
      <trkpt lat="44.27828" lon="0.86892">
        <ele>13.8</ele>
        <time>2016-05-16T13:08:28Z</time>
      </trkpt>
      <trkpt lat="44.27839" lon="0.86823">
        <ele>10.8</ele>
        <time>2016-05-16T13:08:33Z</time>
      </trkpt>
      <trkpt lat="44.27859" lon="0.86756">
        <ele>6.4</ele>
        <time>2016-05-16T13:08:38Z</time>
      </trkpt>
      <trkpt lat="44.27882" lon="0.86689">
        <ele>2.2</ele>
        <time>2016-05-16T13:08:43Z</time>
      </trkpt>
      <trkpt lat="44.27903" lon="0.86629">
        <ele>-0.6</ele>
        <time>2016-05-16T13:08:48Z</time>
      </trkpt>
      <trkpt lat="44.27904" lon="0.86569">
        <ele>-3.6</ele>
        <time>2016-05-16T13:08:53Z</time>
      </trkpt>
      <trkpt lat="44.27896" lon="0.86521">
        <ele>-5.2</ele>
        <time>2016-05-16T13:08:57Z</time>
      </trkpt>
      <trkpt lat="44.27867" lon="0.86367">
        <ele>-7</ele>
        <time>2016-05-16T13:09:12Z</time>
      </trkpt>
      <trkpt lat="44.27859" lon="0.86295">
        <ele>-7.2</ele>
        <time>2016-05-16T13:09:20Z</time>
      </trkpt>
      <trkpt lat="44.27842" lon="0.85638">
        <ele>-10</ele>
        <time>2016-05-16T13:10:42Z</time>
      </trkpt>
      <trkpt lat="44.27838" lon="0.85444">
        <ele>-9.8</ele>
        <time>2016-05-16T13:11:09Z</time>
      </trkpt>
      <trkpt lat="44.27826" lon="0.85346">
        <ele>-8.6</ele>
        <time>2016-05-16T13:11:27Z</time>
      </trkpt>
      <trkpt lat="44.27789" lon="0.85183">
        <ele>-5.6</ele>
        <time>2016-05-16T13:12:02Z</time>
      </trkpt>
      <trkpt lat="44.27782" lon="0.85149">
        <ele>-4.8</ele>
        <time>2016-05-16T13:13:42Z</time>
      </trkpt>
      <trkpt lat="44.27747" lon="0.85">
        <ele>-1.8</ele>
        <time>2016-05-16T13:14:11Z</time>
      </trkpt>
      <trkpt lat="44.27739" lon="0.84965">
        <ele>0.4</ele>
        <time>2016-05-16T13:14:19Z</time>
      </trkpt>
      <trkpt lat="44.27727" lon="0.84913">
        <ele>3.6</ele>
        <time>2016-05-16T13:14:35Z</time>
      </trkpt>
      <trkpt lat="44.27726" lon="0.8491">
        <ele>3.8</ele>
        <time>2016-05-16T13:14:36Z</time>
      </trkpt>
      <trkpt lat="44.27695" lon="0.84858">
        <ele>5.4</ele>
        <time>2016-05-16T13:14:54Z</time>
      </trkpt>
      <trkpt lat="44.27652" lon="0.84818">
        <ele>3.4</ele>
        <time>2016-05-16T13:15:03Z</time>
      </trkpt>
      <trkpt lat="44.27614" lon="0.84781">
        <ele>0.4</ele>
        <time>2016-05-16T13:15:09Z</time>
      </trkpt>
      <trkpt lat="44.27599" lon="0.84771">
        <ele>0.2</ele>
        <time>2016-05-16T13:15:11Z</time>
      </trkpt>
      <trkpt lat="44.27566" lon="0.84759">
        <ele>-1.8</ele>
        <time>2016-05-16T13:15:15Z</time>
      </trkpt>
      <trkpt lat="44.27531" lon="0.8475">
        <ele>-3.4</ele>
        <time>2016-05-16T13:15:19Z</time>
      </trkpt>
      <trkpt lat="44.27515" lon="0.84742">
        <ele>-3.4</ele>
        <time>2016-05-16T13:15:21Z</time>
      </trkpt>
      <trkpt lat="44.27459" lon="0.84652">
        <ele>-5.2</ele>
        <time>2016-05-16T13:15:31Z</time>
      </trkpt>
      <trkpt lat="44.27428" lon="0.8453">
        <ele>-6.6</ele>
        <time>2016-05-16T13:15:43Z</time>
      </trkpt>
      <trkpt lat="44.27428" lon="0.84484">
        <ele>-6.8</ele>
        <time>2016-05-16T13:15:48Z</time>
      </trkpt>
      <trkpt lat="44.27441" lon="0.84408">
        <ele>-6.2</ele>
        <time>2016-05-16T13:15:58Z</time>
      </trkpt>
      <trkpt lat="44.27446" lon="0.84357">
        <ele>-5.4</ele>
        <time>2016-05-16T13:16:06Z</time>
      </trkpt>
      <trkpt lat="44.27429" lon="0.84294">
        <ele>-4</ele>
        <time>2016-05-16T13:16:17Z</time>
      </trkpt>
      <trkpt lat="44.27352" lon="0.84122">
        <ele>-3.6</ele>
        <time>2016-05-16T13:16:45Z</time>
      </trkpt>
      <trkpt lat="44.27302" lon="0.84049">
        <ele>-2.4</ele>
        <time>2016-05-16T13:17:00Z</time>
      </trkpt>
      <trkpt lat="44.27296" lon="0.84042">
        <ele>-2</ele>
        <time>2016-05-16T13:17:02Z</time>
      </trkpt>
      <trkpt lat="44.27263" lon="0.83993">
        <ele>-0.2</ele>
        <time>2016-05-16T13:17:14Z</time>
      </trkpt>
      <trkpt lat="44.27252" lon="0.83971">
        <ele>0.8</ele>
        <time>2016-05-16T13:17:19Z</time>
      </trkpt>
      <trkpt lat="44.27203" lon="0.83887">
        <ele>1.2</ele>
        <time>2016-05-16T13:17:36Z</time>
      </trkpt>
      <trkpt lat="44.27149" lon="0.83818">
        <ele>-0.4</ele>
        <time>2016-05-16T13:17:50Z</time>
      </trkpt>
      <trkpt lat="44.27084" lon="0.83739">
        <ele>-3.2</ele>
        <time>2016-05-16T13:18:02Z</time>
      </trkpt>
      <trkpt lat="44.27059" lon="0.8368">
        <ele>-5.2</ele>
        <time>2016-05-16T13:18:08Z</time>
      </trkpt>
      <trkpt lat="44.27052" lon="0.83659">
        <ele>-5.6</ele>
        <time>2016-05-16T13:18:10Z</time>
      </trkpt>
      <trkpt lat="44.27033" lon="0.8355">
        <ele>-6.4</ele>
        <time>2016-05-16T13:18:21Z</time>
      </trkpt>
      <trkpt lat="44.27029" lon="0.83484">
        <ele>-6.6</ele>
        <time>2016-05-16T13:18:29Z</time>
      </trkpt>
      <trkpt lat="44.26984" lon="0.83351">
        <ele>-4.2</ele>
        <time>2016-05-16T13:18:49Z</time>
      </trkpt>
      <trkpt lat="44.26899" lon="0.83205">
        <ele>-4.8</ele>
        <time>2016-05-16T13:19:12Z</time>
      </trkpt>
      <trkpt lat="44.26851" lon="0.83151">
        <ele>-5.4</ele>
        <time>2016-05-16T13:19:22Z</time>
      </trkpt>
      <trkpt lat="44.26772" lon="0.83086">
        <ele>-8.6</ele>
        <time>2016-05-16T13:19:34Z</time>
      </trkpt>
      <trkpt lat="44.26741" lon="0.83045">
        <ele>-10.4</ele>
        <time>2016-05-16T13:19:39Z</time>
      </trkpt>
      <trkpt lat="44.26718" lon="0.83009">
        <ele>-11.6</ele>
        <time>2016-05-16T13:19:43Z</time>
      </trkpt>
      <trkpt lat="44.26692" lon="0.82978">
        <ele>-12.6</ele>
        <time>2016-05-16T13:19:47Z</time>
      </trkpt>
      <trkpt lat="44.26654" lon="0.82947">
        <ele>-13.8</ele>
        <time>2016-05-16T13:19:52Z</time>
      </trkpt>
      <trkpt lat="44.26646" lon="0.82941">
        <ele>-14</ele>
        <time>2016-05-16T13:19:53Z</time>
      </trkpt>
      <trkpt lat="44.26585" lon="0.82861">
        <ele>-13</ele>
        <time>2016-05-16T13:20:04Z</time>
      </trkpt>
      <trkpt lat="44.26433" lon="0.82631">
        <ele>-13.2</ele>
        <time>2016-05-16T13:20:42Z</time>
      </trkpt>
      <trkpt lat="44.2631" lon="0.82573">
        <ele>-13.6</ele>
        <time>2016-05-16T13:21:05Z</time>
      </trkpt>
      <trkpt lat="44.26191" lon="0.82556">
        <ele>-14.4</ele>
        <time>2016-05-16T13:21:24Z</time>
      </trkpt>
      <trkpt lat="44.26141" lon="0.82529">
        <ele>-14.2</ele>
        <time>2016-05-16T13:21:32Z</time>
      </trkpt>
      <trkpt lat="44.25819" lon="0.82384">
        <ele>-16</ele>
        <time>2016-05-16T13:22:23Z</time>
      </trkpt>
      <trkpt lat="44.25733" lon="0.82314">
        <ele>-17.4</ele>
        <time>2016-05-16T13:22:38Z</time>
      </trkpt>
      <trkpt lat="44.25718" lon="0.82297">
        <ele>-17.4</ele>
        <time>2016-05-16T13:22:41Z</time>
      </trkpt>
      <trkpt lat="44.25685" lon="0.82261">
        <ele>-17.2</ele>
        <time>2016-05-16T13:22:48Z</time>
      </trkpt>
      <trkpt lat="44.25572" lon="0.82142">
        <ele>-17.4</ele>
        <time>2016-05-16T13:23:12Z</time>
      </trkpt>
      <trkpt lat="44.2549" lon="0.82023">
        <ele>-17.2</ele>
        <time>2016-05-16T13:23:33Z</time>
      </trkpt>
      <trkpt lat="44.25405" lon="0.81893">
        <ele>-18</ele>
        <time>2016-05-16T13:23:55Z</time>
      </trkpt>
      <trkpt lat="44.25342" lon="0.8185">
        <ele>-17.6</ele>
        <time>2016-05-16T13:24:07Z</time>
      </trkpt>
      <trkpt lat="44.2529" lon="0.81792">
        <ele>-17.6</ele>
        <time>2016-05-16T13:24:19Z</time>
      </trkpt>
      <trkpt lat="44.25111" lon="0.81573">
        <ele>-17.4</ele>
        <time>2016-05-16T13:25:03Z</time>
      </trkpt>
      <trkpt lat="44.25103" lon="0.81561">
        <ele>-17.6</ele>
        <time>2016-05-16T13:25:05Z</time>
      </trkpt>
      <trkpt lat="44.25073" lon="0.81431">
        <ele>-17.4</ele>
        <time>2016-05-16T13:25:23Z</time>
      </trkpt>
      <trkpt lat="44.25057" lon="0.81297">
        <ele>-14.6</ele>
        <time>2016-05-16T13:25:42Z</time>
      </trkpt>
      <trkpt lat="44.25026" lon="0.81084">
        <ele>-16.4</ele>
        <time>2016-05-16T13:26:12Z</time>
      </trkpt>
      <trkpt lat="44.24945" lon="0.80948">
        <ele>-16.2</ele>
        <time>2016-05-16T13:26:36Z</time>
      </trkpt>
      <trkpt lat="44.24511" lon="0.80621">
        <ele>-19.2</ele>
        <time>2016-05-16T13:29:38Z</time>
      </trkpt>
      <trkpt lat="44.24498" lon="0.80615">
        <ele>-19.4</ele>
        <time>2016-05-16T13:29:42Z</time>
      </trkpt>
      <trkpt lat="44.24486" lon="0.80611">
        <ele>-19.4</ele>
        <time>2016-05-16T13:29:45Z</time>
      </trkpt>
      <trkpt lat="44.24042" lon="0.80492">
        <ele>-21.8</ele>
        <time>2016-05-16T13:31:00Z</time>
      </trkpt>
      <trkpt lat="44.24001" lon="0.80482">
        <ele>-22</ele>
        <time>2016-05-16T13:31:07Z</time>
      </trkpt>
      <trkpt lat="44.23918" lon="0.80437">
        <ele>-22.2</ele>
        <time>2016-05-16T13:31:21Z</time>
      </trkpt>
      <trkpt lat="44.23877" lon="0.80413">
        <ele>-22.8</ele>
        <time>2016-05-16T13:31:28Z</time>
      </trkpt>
      <trkpt lat="44.23834" lon="0.804">
        <ele>-22.8</ele>
        <time>2016-05-16T13:31:35Z</time>
      </trkpt>
      <trkpt lat="44.23219" lon="0.80202">
        <ele>-25.4</ele>
        <time>2016-05-16T13:33:18Z</time>
      </trkpt>
      <trkpt lat="44.23179" lon="0.80178">
        <ele>-25.6</ele>
        <time>2016-05-16T13:33:25Z</time>
      </trkpt>
      <trkpt lat="44.22717" lon="0.79865">
        <ele>-25</ele>
        <time>2016-05-16T13:35:05Z</time>
      </trkpt>
      <trkpt lat="44.22411" lon="0.79697">
        <ele>-27.2</ele>
        <time>2016-05-16T13:36:04Z</time>
      </trkpt>
      <trkpt lat="44.22307" lon="0.79646">
        <ele>-27.4</ele>
        <time>2016-05-16T13:36:22Z</time>
      </trkpt>
      <trkpt lat="44.22264" lon="0.79615">
        <ele>-27.4</ele>
        <time>2016-05-16T13:36:30Z</time>
      </trkpt>
      <trkpt lat="44.22218" lon="0.79579">
        <ele>-27.4</ele>
        <time>2016-05-16T13:36:39Z</time>
      </trkpt>
      <trkpt lat="44.22028" lon="0.79293">
        <ele>-27.4</ele>
        <time>2016-05-16T13:37:29Z</time>
      </trkpt>
      <trkpt lat="44.21779" lon="0.789">
        <ele>-27.2</ele>
        <time>2016-05-16T13:38:34Z</time>
      </trkpt>
      <trkpt lat="44.21714" lon="0.7882">
        <ele>-28.8</ele>
        <time>2016-05-16T13:38:48Z</time>
      </trkpt>
      <trkpt lat="44.21674" lon="0.78776">
        <ele>-28.8</ele>
        <time>2016-05-16T13:38:56Z</time>
      </trkpt>
      <trkpt lat="44.21405" lon="0.78556">
        <ele>-30</ele>
        <time>2016-05-16T13:39:46Z</time>
      </trkpt>
      <trkpt lat="44.21336" lon="0.78477">
        <ele>-30.4</ele>
        <time>2016-05-16T13:40:01Z</time>
      </trkpt>
      <trkpt lat="44.21073" lon="0.78125">
        <ele>-29.8</ele>
        <time>2016-05-16T13:41:05Z</time>
      </trkpt>
      <trkpt lat="44.21038" lon="0.78091">
        <ele>-29.8</ele>
        <time>2016-05-16T13:41:12Z</time>
      </trkpt>
      <trkpt lat="44.20999" lon="0.78048">
        <ele>-30.2</ele>
        <time>2016-05-16T13:41:20Z</time>
      </trkpt>
      <trkpt lat="44.20885" lon="0.77881">
        <ele>-31.8</ele>
        <time>2016-05-16T13:41:48Z</time>
      </trkpt>
      <trkpt lat="44.20611" lon="0.77643">
        <ele>-32</ele>
        <time>2016-05-16T13:42:45Z</time>
      </trkpt>
      <trkpt lat="44.20599" lon="0.77627">
        <ele>-31.4</ele>
        <time>2016-05-16T13:42:48Z</time>
      </trkpt>
      <trkpt lat="44.20165" lon="0.77113">
        <ele>-32.4</ele>
        <time>2016-05-16T13:44:29Z</time>
      </trkpt>
      <trkpt lat="44.20117" lon="0.77018">
        <ele>-32</ele>
        <time>2016-05-16T13:44:45Z</time>
      </trkpt>
      <trkpt lat="44.201" lon="0.76964">
        <ele>-31.8</ele>
        <time>2016-05-16T13:44:53Z</time>
      </trkpt>
      <trkpt lat="44.20044" lon="0.76897">
        <ele>-31.6</ele>
        <time>2016-05-16T13:45:07Z</time>
      </trkpt>
      <trkpt lat="44.19998" lon="0.76852">
        <ele>-31.6</ele>
        <time>2016-05-16T13:45:17Z</time>
      </trkpt>
      <trkpt lat="44.19922" lon="0.76821">
        <ele>-31.6</ele>
        <time>2016-05-16T13:45:31Z</time>
      </trkpt>
      <trkpt lat="44.19828" lon="0.76799">
        <ele>-31.8</ele>
        <time>2016-05-16T13:45:47Z</time>
      </trkpt>
      <trkpt lat="44.19769" lon="0.76764">
        <ele>-30.8</ele>
        <time>2016-05-16T13:45:58Z</time>
      </trkpt>
      <trkpt lat="44.1975" lon="0.76751">
        <ele>-31.2</ele>
        <time>2016-05-16T13:46:02Z</time>
      </trkpt>
      <trkpt lat="44.19685" lon="0.76724">
        <ele>-31.8</ele>
        <time>2016-05-16T13:46:13Z</time>
      </trkpt>
      <trkpt lat="44.19503" lon="0.76683">
        <ele>-34.4</ele>
        <time>2016-05-16T13:46:39Z</time>
      </trkpt>
      <trkpt lat="44.19419" lon="0.76637">
        <ele>-34.6</ele>
        <time>2016-05-16T13:46:53Z</time>
      </trkpt>
      <trkpt lat="44.19377" lon="0.76606">
        <ele>-34.2</ele>
        <time>2016-05-16T13:47:01Z</time>
      </trkpt>
      <trkpt lat="44.19339" lon="0.76585">
        <ele>-34.2</ele>
        <time>2016-05-16T13:47:08Z</time>
      </trkpt>
      <trkpt lat="44.1925" lon="0.76535">
        <ele>-34.4</ele>
        <time>2016-05-16T13:47:24Z</time>
      </trkpt>
      <trkpt lat="44.19221" lon="0.76505">
        <ele>-34.6</ele>
        <time>2016-05-16T13:47:30Z</time>
      </trkpt>
      <trkpt lat="44.1914" lon="0.76403">
        <ele>-34.4</ele>
        <time>2016-05-16T13:47:48Z</time>
      </trkpt>
      <trkpt lat="44.18979" lon="0.76197">
        <ele>-34.6</ele>
        <time>2016-05-16T13:48:25Z</time>
      </trkpt>
      <trkpt lat="44.18897" lon="0.76129">
        <ele>-34.8</ele>
        <time>2016-05-16T13:48:41Z</time>
      </trkpt>
      <trkpt lat="44.18718" lon="0.75978">
        <ele>-34.4</ele>
        <time>2016-05-16T13:49:17Z</time>
      </trkpt>
      <trkpt lat="44.18664" lon="0.7595">
        <ele>-34</ele>
        <time>2016-05-16T13:49:27Z</time>
      </trkpt>
      <trkpt lat="44.1857" lon="0.75794">
        <ele>-34</ele>
        <time>2016-05-16T13:49:53Z</time>
      </trkpt>
      <trkpt lat="44.18541" lon="0.75665">
        <ele>-34.8</ele>
        <time>2016-05-16T13:50:10Z</time>
      </trkpt>
      <trkpt lat="44.18534" lon="0.756">
        <ele>-35.2</ele>
        <time>2016-05-16T13:50:19Z</time>
      </trkpt>
      <trkpt lat="44.18494" lon="0.75366">
        <ele>-34</ele>
        <time>2016-05-16T13:50:51Z</time>
      </trkpt>
      <trkpt lat="44.18493" lon="0.75321">
        <ele>-33.2</ele>
        <time>2016-05-16T13:50:58Z</time>
      </trkpt>
      <trkpt lat="44.18491" lon="0.74814">
        <ele>-31.4</ele>
        <time>2016-05-16T13:52:09Z</time>
      </trkpt>
      <trkpt lat="44.18389" lon="0.74559">
        <ele>-31.8</ele>
        <time>2016-05-16T13:52:48Z</time>
      </trkpt>
      <trkpt lat="44.18321" lon="0.74508">
        <ele>-33</ele>
        <time>2016-05-16T13:53:00Z</time>
      </trkpt>
      <trkpt lat="44.18252" lon="0.74323">
        <ele>-34.2</ele>
        <time>2016-05-16T13:53:24Z</time>
      </trkpt>
      <trkpt lat="44.18224" lon="0.74257">
        <ele>-34.8</ele>
        <time>2016-05-16T13:53:33Z</time>
      </trkpt>
      <trkpt lat="44.1812" lon="0.74031">
        <ele>-35</ele>
        <time>2016-05-16T13:54:05Z</time>
      </trkpt>
      <trkpt lat="44.18092" lon="0.73972">
        <ele>-34.2</ele>
        <time>2016-05-16T13:54:14Z</time>
      </trkpt>
      <trkpt lat="44.18077" lon="0.73919">
        <ele>-34.8</ele>
        <time>2016-05-16T13:54:21Z</time>
      </trkpt>
      <trkpt lat="44.18023" lon="0.7374">
        <ele>-36.2</ele>
        <time>2016-05-16T13:54:44Z</time>
      </trkpt>
      <trkpt lat="44.18002" lon="0.73674">
        <ele>-36.2</ele>
        <time>2016-05-16T13:54:53Z</time>
      </trkpt>
      <trkpt lat="44.17626" lon="0.72928">
        <ele>-36.4</ele>
        <time>2016-05-16T13:56:51Z</time>
      </trkpt>
      <trkpt lat="44.17317" lon="0.72049">
        <ele>-38.2</ele>
        <time>2016-05-16T13:58:56Z</time>
      </trkpt>
      <trkpt lat="44.17299" lon="0.71573">
        <ele>-41.2</ele>
        <time>2016-05-16T13:59:54Z</time>
      </trkpt>
      <trkpt lat="44.17263" lon="0.70454">
        <ele>-42.6</ele>
        <time>2016-05-16T14:02:22Z</time>
      </trkpt>
      <trkpt lat="44.17246" lon="0.70041">
        <ele>-41.4</ele>
        <time>2016-05-16T14:03:20Z</time>
      </trkpt>
      <trkpt lat="44.17233" lon="0.70033">
        <ele>-41.8</ele>
        <time>2016-05-16T14:04:09Z</time>
      </trkpt>
      <trkpt lat="44.17211" lon="0.70031">
        <ele>-41.8</ele>
        <time>2016-05-16T14:04:15Z</time>
      </trkpt>
      <trkpt lat="44.17031" lon="0.69971">
        <ele>-42.6</ele>
        <time>2016-05-16T14:05:07Z</time>
      </trkpt>
      <trkpt lat="44.16998" lon="0.69949">
        <ele>-42.8</ele>
        <time>2016-05-16T14:05:14Z</time>
      </trkpt>
      <trkpt lat="44.16967" lon="0.69917">
        <ele>-43.2</ele>
        <time>2016-05-16T14:05:22Z</time>
      </trkpt>
      <trkpt lat="44.16953" lon="0.69884">
        <ele>-43.2</ele>
        <time>2016-05-16T14:05:46Z</time>
      </trkpt>
      <trkpt lat="44.16971" lon="0.69823">
        <ele>-42.8</ele>
        <time>2016-05-16T14:06:26Z</time>
      </trkpt>
      <trkpt lat="44.16951" lon="0.69866">
        <ele>-43</ele>
        <time>2016-05-16T14:06:34Z</time>
      </trkpt>
      <trkpt lat="44.16905" lon="0.69957">
        <ele>-42.2</ele>
        <time>2016-05-16T14:06:54Z</time>
      </trkpt>
      <trkpt lat="44.16878" lon="0.69928">
        <ele>-43.2</ele>
        <time>2016-05-16T14:07:03Z</time>
      </trkpt>
      <trkpt lat="44.16855" lon="0.69889">
        <ele>-42.8</ele>
        <time>2016-05-16T14:07:11Z</time>
      </trkpt>
      <trkpt lat="44.16836" lon="0.69832">
        <ele>-41.8</ele>
        <time>2016-05-16T14:07:21Z</time>
      </trkpt>
      <trkpt lat="44.16772" lon="0.69759">
        <ele>-41.6</ele>
        <time>2016-05-16T14:07:38Z</time>
      </trkpt>
      <trkpt lat="44.1668" lon="0.69679">
        <ele>-38.4</ele>
        <time>2016-05-16T14:08:03Z</time>
      </trkpt>
      <trkpt lat="44.16658" lon="0.69657">
        <ele>-36.6</ele>
        <time>2016-05-16T14:08:12Z</time>
      </trkpt>
      <trkpt lat="44.16688" lon="0.69579">
        <ele>-38.6</ele>
        <time>2016-05-16T14:08:26Z</time>
      </trkpt>
      <trkpt lat="44.16699" lon="0.69555">
        <ele>-40.2</ele>
        <time>2016-05-16T14:08:29Z</time>
      </trkpt>
      <trkpt lat="44.16807" lon="0.69331">
        <ele>-41.8</ele>
        <time>2016-05-16T14:09:04Z</time>
      </trkpt>
      <trkpt lat="44.16828" lon="0.69275">
        <ele>-40.6</ele>
        <time>2016-05-16T14:09:15Z</time>
      </trkpt>
      <trkpt lat="44.16944" lon="0.69025">
        <ele>-40.6</ele>
        <time>2016-05-16T14:09:57Z</time>
      </trkpt>
      <trkpt lat="44.16954" lon="0.68995">
        <ele>-41</ele>
        <time>2016-05-16T14:10:02Z</time>
      </trkpt>
      <trkpt lat="44.16962" lon="0.68979">
        <ele>-41</ele>
        <time>2016-05-16T14:10:05Z</time>
      </trkpt>
      <trkpt lat="44.17066" lon="0.68673">
        <ele>-41.6</ele>
        <time>2016-05-16T14:10:53Z</time>
      </trkpt>
      <trkpt lat="44.17074" lon="0.68622">
        <ele>-40.8</ele>
        <time>2016-05-16T14:11:00Z</time>
      </trkpt>
      <trkpt lat="44.17077" lon="0.68609">
        <ele>-40.6</ele>
        <time>2016-05-16T14:11:02Z</time>
      </trkpt>
      <trkpt lat="44.17084" lon="0.68584">
        <ele>-40.4</ele>
        <time>2016-05-16T14:11:06Z</time>
      </trkpt>
      <trkpt lat="44.17094" lon="0.68542">
        <ele>-37.4</ele>
        <time>2016-05-16T14:11:14Z</time>
      </trkpt>
      <trkpt lat="44.17099" lon="0.68536">
        <ele>-36.4</ele>
        <time>2016-05-16T14:11:18Z</time>
      </trkpt>
      <trkpt lat="44.171" lon="0.68504">
        <ele>-37.6</ele>
        <time>2016-05-16T14:11:25Z</time>
      </trkpt>
      <trkpt lat="44.17147" lon="0.68168">
        <ele>-40</ele>
        <time>2016-05-16T14:12:07Z</time>
      </trkpt>
      <trkpt lat="44.17175" lon="0.67919">
        <ele>-40.8</ele>
        <time>2016-05-16T14:12:41Z</time>
      </trkpt>
      <trkpt lat="44.1726" lon="0.6733">
        <ele>-40.8</ele>
        <time>2016-05-16T14:13:58Z</time>
      </trkpt>
      <trkpt lat="44.17269" lon="0.67286">
        <ele>-40.8</ele>
        <time>2016-05-16T14:14:04Z</time>
      </trkpt>
      <trkpt lat="44.17325" lon="0.66929">
        <ele>-40.8</ele>
        <time>2016-05-16T14:14:54Z</time>
      </trkpt>
      <trkpt lat="44.17447" lon="0.66672">
        <ele>-40.8</ele>
        <time>2016-05-16T14:15:38Z</time>
      </trkpt>
      <trkpt lat="44.1765" lon="0.66479">
        <ele>-40.6</ele>
        <time>2016-05-16T14:16:26Z</time>
      </trkpt>
      <trkpt lat="44.17666" lon="0.6648">
        <ele>-40.8</ele>
        <time>2016-05-16T14:16:30Z</time>
      </trkpt>
      <trkpt lat="44.17681" lon="0.66482">
        <ele>-40.2</ele>
        <time>2016-05-16T14:16:34Z</time>
      </trkpt>
      <trkpt lat="44.17695" lon="0.66467">
        <ele>-40.4</ele>
        <time>2016-05-16T14:16:38Z</time>
      </trkpt>
      <trkpt lat="44.17722" lon="0.66414">
        <ele>-39.8</ele>
        <time>2016-05-16T14:16:48Z</time>
      </trkpt>
      <trkpt lat="44.1773" lon="0.66406">
        <ele>-40</ele>
        <time>2016-05-16T14:16:51Z</time>
      </trkpt>
      <trkpt lat="44.17773" lon="0.66358">
        <ele>-40.8</ele>
        <time>2016-05-16T14:17:01Z</time>
      </trkpt>
      <trkpt lat="44.17867" lon="0.66271">
        <ele>-40.6</ele>
        <time>2016-05-16T14:17:24Z</time>
      </trkpt>
      <trkpt lat="44.1791" lon="0.6623">
        <ele>-40.4</ele>
        <time>2016-05-16T14:17:36Z</time>
      </trkpt>
      <trkpt lat="44.18379" lon="0.65745">
        <ele>-40.4</ele>
        <time>2016-05-16T14:19:28Z</time>
      </trkpt>
      <trkpt lat="44.18427" lon="0.65681">
        <ele>-40.8</ele>
        <time>2016-05-16T14:19:40Z</time>
      </trkpt>
      <trkpt lat="44.18638" lon="0.65333">
        <ele>-39.8</ele>
        <time>2016-05-16T14:20:38Z</time>
      </trkpt>
      <trkpt lat="44.18676" lon="0.65288">
        <ele>-39.8</ele>
        <time>2016-05-16T14:20:47Z</time>
      </trkpt>
      <trkpt lat="44.1869" lon="0.6528">
        <ele>-40.2</ele>
        <time>2016-05-16T14:20:50Z</time>
      </trkpt>
      <trkpt lat="44.18695" lon="0.65276">
        <ele>-40</ele>
        <time>2016-05-16T14:20:51Z</time>
      </trkpt>
      <trkpt lat="44.18721" lon="0.65257">
        <ele>-39.8</ele>
        <time>2016-05-16T14:20:56Z</time>
      </trkpt>
      <trkpt lat="44.18756" lon="0.65237">
        <ele>-38.2</ele>
        <time>2016-05-16T14:21:03Z</time>
      </trkpt>
      <trkpt lat="44.18761" lon="0.65235">
        <ele>-38</ele>
        <time>2016-05-16T14:21:04Z</time>
      </trkpt>
      <trkpt lat="44.18794" lon="0.6522">
        <ele>-39</ele>
        <time>2016-05-16T14:21:10Z</time>
      </trkpt>
      <trkpt lat="44.18853" lon="0.6521">
        <ele>-39.8</ele>
        <time>2016-05-16T14:21:19Z</time>
      </trkpt>
      <trkpt lat="44.18859" lon="0.6521">
        <ele>-40</ele>
        <time>2016-05-16T14:21:20Z</time>
      </trkpt>
      <trkpt lat="44.18919" lon="0.6522">
        <ele>-40.6</ele>
        <time>2016-05-16T14:21:30Z</time>
      </trkpt>
      <trkpt lat="44.19017" lon="0.65273">
        <ele>-40.2</ele>
        <time>2016-05-16T14:21:55Z</time>
      </trkpt>
      <trkpt lat="44.19024" lon="0.65283">
        <ele>-40.2</ele>
        <time>2016-05-16T14:21:57Z</time>
      </trkpt>
      <trkpt lat="44.19038" lon="0.65301">
        <ele>-40.2</ele>
        <time>2016-05-16T14:22:01Z</time>
      </trkpt>
      <trkpt lat="44.1906" lon="0.65321">
        <ele>-39.6</ele>
        <time>2016-05-16T14:22:06Z</time>
      </trkpt>
      <trkpt lat="44.19107" lon="0.65352">
        <ele>-38.6</ele>
        <time>2016-05-16T14:22:18Z</time>
      </trkpt>
      <trkpt lat="44.19188" lon="0.65328">
        <ele>-40.2</ele>
        <time>2016-05-16T14:22:32Z</time>
      </trkpt>
      <trkpt lat="44.19245" lon="0.65249">
        <ele>-40.4</ele>
        <time>2016-05-16T14:22:46Z</time>
      </trkpt>
      <trkpt lat="44.1972" lon="0.64548">
        <ele>-40.6</ele>
        <time>2016-05-16T14:24:48Z</time>
      </trkpt>
      <trkpt lat="44.19841" lon="0.64476">
        <ele>-40</ele>
        <time>2016-05-16T14:25:16Z</time>
      </trkpt>
      <trkpt lat="44.1986" lon="0.64467">
        <ele>-40.4</ele>
        <time>2016-05-16T14:25:20Z</time>
      </trkpt>
      <trkpt lat="44.20109" lon="0.64329">
        <ele>-40.6</ele>
        <time>2016-05-16T14:26:12Z</time>
      </trkpt>
      <trkpt lat="44.20272" lon="0.64302">
        <ele>-40.2</ele>
        <time>2016-05-16T14:26:44Z</time>
      </trkpt>
      <trkpt lat="44.20539" lon="0.64306">
        <ele>-40</ele>
        <time>2016-05-16T14:27:37Z</time>
      </trkpt>
      <trkpt lat="44.20653" lon="0.6427">
        <ele>-40.6</ele>
        <time>2016-05-16T14:28:01Z</time>
      </trkpt>
      <trkpt lat="44.20725" lon="0.64223">
        <ele>-40.4</ele>
        <time>2016-05-16T14:28:17Z</time>
      </trkpt>
      <trkpt lat="44.20996" lon="0.63875">
        <ele>-40.4</ele>
        <time>2016-05-16T14:29:29Z</time>
      </trkpt>
      <trkpt lat="44.21009" lon="0.63852">
        <ele>-40.6</ele>
        <time>2016-05-16T14:29:34Z</time>
      </trkpt>
      <trkpt lat="44.21018" lon="0.63826">
        <ele>-40.4</ele>
        <time>2016-05-16T14:29:38Z</time>
      </trkpt>
      <trkpt lat="44.21052" lon="0.63708">
        <ele>-40.2</ele>
        <time>2016-05-16T14:29:54Z</time>
      </trkpt>
      <trkpt lat="44.21065" lon="0.63484">
        <ele>-40</ele>
        <time>2016-05-16T14:30:23Z</time>
      </trkpt>
      <trkpt lat="44.20994" lon="0.62943">
        <ele>-40.2</ele>
        <time>2016-05-16T14:31:38Z</time>
      </trkpt>
      <trkpt lat="44.20993" lon="0.62913">
        <ele>-38</ele>
        <time>2016-05-16T14:31:46Z</time>
      </trkpt>
      <trkpt lat="44.20992" lon="0.62907">
        <ele>-37</ele>
        <time>2016-05-16T14:31:49Z</time>
      </trkpt>
      <trkpt lat="44.20909" lon="0.62831">
        <ele>-38.4</ele>
        <time>2016-05-16T14:32:59Z</time>
      </trkpt>
      <trkpt lat="44.2088" lon="0.62807">
        <ele>-39.4</ele>
        <time>2016-05-16T14:33:04Z</time>
      </trkpt>
      <trkpt lat="44.20841" lon="0.62785">
        <ele>-40.6</ele>
        <time>2016-05-16T14:33:10Z</time>
      </trkpt>
      <trkpt lat="44.20797" lon="0.62754">
        <ele>-39.2</ele>
        <time>2016-05-16T14:33:19Z</time>
      </trkpt>
      <trkpt lat="44.20781" lon="0.62743">
        <ele>-38.8</ele>
        <time>2016-05-16T14:33:23Z</time>
      </trkpt>
      <trkpt lat="44.20637" lon="0.62646">
        <ele>-40.2</ele>
        <time>2016-05-16T14:33:58Z</time>
      </trkpt>
      <trkpt lat="44.20616" lon="0.62631">
        <ele>-41.2</ele>
        <time>2016-05-16T14:34:02Z</time>
      </trkpt>
      <trkpt lat="44.20597" lon="0.62617">
        <ele>-42.4</ele>
        <time>2016-05-16T14:34:08Z</time>
      </trkpt>
      <trkpt lat="44.2057" lon="0.62586">
        <ele>-43.6</ele>
        <time>2016-05-16T14:34:24Z</time>
      </trkpt>
      <trkpt lat="44.20596" lon="0.6255">
        <ele>-44</ele>
        <time>2016-05-16T14:34:32Z</time>
      </trkpt>
      <trkpt lat="44.20726" lon="0.62329">
        <ele>-44.2</ele>
        <time>2016-05-16T14:35:20Z</time>
      </trkpt>
      <trkpt lat="44.2074" lon="0.62324">
        <ele>-44.4</ele>
        <time>2016-05-16T14:35:23Z</time>
      </trkpt>
      <trkpt lat="44.20782" lon="0.62205">
        <ele>-44.6</ele>
        <time>2016-05-16T14:35:47Z</time>
      </trkpt>
      <trkpt lat="44.20811" lon="0.62089">
        <ele>-44</ele>
        <time>2016-05-16T14:37:24Z</time>
      </trkpt>
      <trkpt lat="44.20815" lon="0.62085">
        <ele>-44</ele>
        <time>2016-05-16T14:37:39Z</time>
      </trkpt>
    </trkseg>
  </trk>
</gpx>